[[{"header":{"parameterUnit":"m.s-1","parameterCategory":1,"la1":30.6,"la2":28.766,"lo1":-90.7593,"lo2":-88.6598,"dy":0.0162,"dx":0.0183,"nx":116,"ny":114,"refTime":"2023-11-02T18:00:00:Z","depth":0,"parameterNumber":2,"parameterNumberName":"U-component_of_WINDS"},"data":[0.0,0.0,0.0,0.0,0.0,0.0,0.0,0.0,0.0,0.0,0.0,0.0,0.0,0.0,0.0,0.0,0.0,0.0,0.0,0.0,0.0,0.0,0.0,0.0,0.0,0.0,0.0,0.0,0.0,0.0,0.0,0.0,0.0,0.0,0.0,0.0,0.0,0.0,0.0,0.0,0.0,0.0,0.0,0.0,0.0,0.0,0.0,0.0,0.0,0.0,0.0,0.0,0.0,0.0,0.0,0.0,0.0,0.0,0.0,0.0,0.0,0.0,0.0,0.0,0.0,0.0,0.0,0.0,0.0,0.0,0.0,0.0,0.0,0.0,0.0,0.0,0.0,0.0,0.0,0.0,0.0,0.0,0.0,0.0,0.0,0.0,0.0,0.0,0.0,0.0,0.0,0.0,0.0,0.0,0.0,0.0,0.0,0.0,0.0,0.0,0.0,0.0,0.0,0.0,0.0,0.0,0.0,0.0,0.0,0.0,0.0,0.0,0.0,0.0,0.0,0.0,0.0,0.0,0.0,0.0,0.0,0.0,0.0,0.0,0.0,0.0,0.0,0.0,0.0,0.0,0.0,0.0,0.0,0.0,0.0,0.0,0.0,0.0,0.0,0.0,0.0,0.0,0.0,0.0,0.0,0.0,0.0,0.0,0.0,0.0,0.0,0.0,0.0,0.0,0.0,0.0,0.0,0.0,0.0,0.0,0.0,0.0,0.0,0.0,0.0,0.0,0.0,0.0,0.0,0.0,0.0,0.0,0.0,0.0,0.0,0.0,0.0,0.0,0.0,0.0,0.0,0.0,0.0,0.0,0.0,0.0,0.0,0.0,0.0,0.0,0.0,0.0,0.0,0.0,0.0,0.0,0.0,0.0,0.0,0.0,0.0,0.0,0.0,0.0,0.0,0.0,0.0,0.0,0.0,0.0,0.0,0.0,0.0,0.0,0.0,0.0,0.0,0.0,0.0,0.0,0.0,0.0,0.0,0.0,0.0,0.0,0.0,0.0,0.0,0.0,0.0,0.0,0.0,0.0,0.0,0.0,0.0,0.0,0.0,0.0,0.0,0.0,0.0,0.0,0.0,0.0,0.0,0.0,0.0,0.0,0.0,0.0,0.0,0.0,0.0,0.0,0.0,0.0,0.0,0.0,0.0,0.0,0.0,0.0,0.0,0.0,0.0,0.0,0.0,0.0,0.0,0.0,0.0,0.0,0.0,0.0,0.0,0.0,0.0,0.0,0.0,0.0,0.0,0.0,0.0,0.0,0.0,0.0,0.0,0.0,0.0,0.0,0.0,0.0,0.0,0.0,0.0,0.0,0.0,0.0,0.0,0.0,0.0,0.0,0.0,0.0,0.0,0.0,0.0,0.0,0.0,0.0,0.0,0.0,0.0,0.0,0.0,0.0,0.0,0.0,0.0,0.0,0.0,0.0,0.0,0.0,0.0,0.0,0.0,0.0,0.0,0.0,0.0,0.0,0.0,0.0,0.0,0.0,0.0,0.0,0.0,0.0,0.0,0.0,0.0,0.0,0.0,0.0,0.0,0.0,0.0,0.0,0.0,0.0,0.0,0.0,0.0,0.0,0.0,0.0,0.0,0.0,0.0,0.0,0.0,0.0,0.0,0.0,0.0,0.0,0.0,0.0,0.0,0.0,0.0,0.0,0.0,0.0,0.0,0.0,0.0,0.0,0.0,0.0,0.0,0.0,0.0,0.0,0.0,0.0,0.0,0.0,0.0,0.0,0.0,0.0,0.0,0.0,0.0,0.0,0.0,0.0,0.0,0.0,0.0,0.0,0.0,0.0,0.0,0.0,0.0,0.0,0.0,0.0,0.0,0.0,0.0,0.0,0.0,0.0,0.0,0.0,0.0,0.0,0.0,0.0,0.0,0.0,0.0,0.0,0.0,0.0,0.0,0.0,0.0,0.0,0.0,0.0,0.0,0.0,0.0,0.0,0.0,0.0,0.0,0.0,0.0,0.0,0.0,0.0,0.0,0.0,0.0,0.0,0.0,0.0,0.0,0.0,0.0,0.0,0.0,0.0,0.0,0.0,0.0,0.0,0.0,0.0,0.0,0.0,0.0,0.0,0.0,0.0,0.0,0.0,0.0,0.0,0.0,0.0,0.0,0.0,0.0,0.0,0.0,0.0,0.0,0.0,0.0,0.0,0.0,0.0,0.0,0.0,0.0,0.0,0.0,0.0,0.0,0.0,0.0,0.0,0.0,0.0,0.0,0.0,0.0,0.0,0.0,0.0,0.0,0.0,0.0,0.0,0.0,0.0,0.0,0.0,0.0,0.0,0.0,0.0,0.0,0.0,0.0,0.0,0.0,0.0,0.0,0.0,0.0,0.0,0.0,0.0,0.0,0.0,0.0,0.0,0.0,0.0,0.0,0.0,0.0,0.0,0.0,0.0,0.0,0.0,0.0,0.0,0.0,0.0,0.0,0.0,0.0,0.0,0.0,0.0,0.0,0.0,0.0,0.0,0.0,0.0,0.0,0.0,0.0,0.0,0.0,0.0,0.0,0.0,0.0,0.0,0.0,0.0,0.0,0.0,0.0,0.0,0.0,0.0,0.0,0.0,0.0,0.0,0.0,0.0,0.0,0.0,0.0,0.0,0.0,0.0,0.0,0.0,0.0,0.0,0.0,0.0,0.0,0.0,0.0,0.0,0.0,0.0,0.0,0.0,0.0,0.0,0.0,0.0,0.0,0.0,0.0,0.0,0.0,0.0,0.0,0.0,0.0,0.0,0.0,0.0,0.0,0.0,0.0,0.0,0.0,0.0,0.0,0.0,0.0,0.0,0.0,0.0,0.0,0.0,0.0,0.0,0.0,0.0,0.0,0.0,0.0,0.0,0.0,0.0,0.0,0.0,0.0,0.0,0.0,0.0,0.0,0.0,0.0,0.0,0.0,0.0,0.0,0.0,0.0,0.0,0.0,0.0,0.0,0.0,0.0,0.0,0.0,0.0,0.0,0.0,0.0,0.0,0.0,0.0,0.0,0.0,0.0,0.0,0.0,0.0,0.0,0.0,0.0,0.0,0.0,0.0,0.0,0.0,0.0,0.0,0.0,0.0,0.0,0.0,0.0,0.0,0.0,0.0,0.0,0.0,0.0,0.0,0.0,0.0,0.0,0.0,0.0,0.0,0.0,0.0,0.0,0.0,0.0,0.0,0.0,0.0,0.0,0.0,0.0,0.0,0.0,0.0,0.0,0.0,0.0,0.0,0.0,0.0,0.0,0.0,0.0,0.0,0.0,0.0,0.0,0.0,0.0,0.0,0.0,0.0,0.0,0.0,0.0,0.0,0.0,0.0,0.0,0.0,0.0,0.0,0.0,0.0,0.0,0.0,0.0,0.0,0.0,0.0,0.0,0.0,0.0,0.0,0.0,0.0,0.0,0.0,0.0,0.0,0.0,0.0,0.0,0.0,0.0,0.0,0.0,0.0,0.0,0.0,0.0,0.0,0.0,0.0,0.0,0.0,0.0,0.0,0.0,0.0,0.0,0.0,0.0,0.0,0.0,0.0,0.0,0.0,0.0,0.0,0.0,0.0,0.0,0.0,0.0,0.0,0.0,0.0,0.0,0.0,0.0,0.0,0.0,0.0,0.0,0.0,0.0,0.0,0.0,0.0,0.0,0.0,0.0,0.0,0.0,0.0,0.0,0.0,0.0,0.0,0.0,0.0,0.0,0.0,0.0,0.0,0.0,0.0,0.0,0.0,0.0,0.0,0.0,0.0,0.0,0.0,0.0,0.0,0.0,0.0,0.0,0.0,0.0,0.0,0.0,0.0,0.0,0.0,0.0,0.0,0.0,0.0,0.0,0.0,0.0,0.0,0.0,0.0,0.0,0.0,0.0,0.0,0.0,0.0,0.0,0.0,0.0,0.0,0.0,0.0,0.0,0.0,0.0,0.0,0.0,0.0,0.0,0.0,0.0,0.0,0.0,0.0,0.0,0.0,0.0,0.0,0.0,0.0,0.0,0.0,0.0,0.0,0.0,0.0,0.0,0.0,0.0,0.0,0.0,0.0,0.0,0.0,0.0,0.0,0.0,0.0,0.0,0.0,0.0,0.0,0.0,0.0,0.0,0.0,0.0,0.0,0.0,0.0,0.0,0.0,0.0,0.0,0.0,0.0,0.0,0.0,0.0,0.0,0.0,0.0,0.0,0.0,0.0,0.0,0.0,0.0,0.0,0.0,0.0,0.0,0.0,0.0,0.0,0.0,0.0,0.0,0.0,0.0,0.0,0.0,0.0,0.0,0.0,0.0,0.0,0.0,0.0,0.0,0.0,0.0,0.0,0.0,0.0,0.0,0.0,0.0,0.0,0.0,0.0,0.0,0.0,0.0,0.0,0.0,0.0,0.0,0.0,0.0,0.0,0.0,0.0,0.0,0.0,0.0,0.0,0.0,0.0,0.0,0.0,0.0,0.0,0.0,0.0,0.0,0.0,0.0,0.0,0.0,0.0,0.0,0.0,0.0,0.0,0.0,0.0,0.0,0.0,0.0,0.0,0.0,0.0,0.0,0.0,0.0,0.0,0.0,0.0,0.0,0.0,0.0,0.0,0.0,0.0,0.0,0.0,0.0,0.0,0.0,0.0,0.0,0.0,0.0,0.0,0.0,0.0,0.0,0.0,0.0,0.0,0.0,0.0,0.0,0.0,0.0,0.0,0.0,0.0,0.0,0.0,0.0,0.0,0.0,0.0,0.0,0.0,0.0,0.0,0.0,0.0,0.0,0.0,0.0,0.0,0.0,0.0,0.0,0.0,0.0,0.0,0.0,0.0,0.0,0.0,0.0,0.0,0.0,0.0,0.0,0.0,0.0,0.0,0.0,0.0,0.0,0.0,0.0,0.0,0.0,0.0,0.0,0.0,0.0,0.0,0.0,0.0,0.0,0.0,0.0,0.0,0.0,0.0,0.0,0.0,0.0,0.0,0.0,0.0,0.0,0.0,0.0,0.0,0.0,0.0,0.0,0.0,0.0,0.0,0.0,0.0,0.0,0.0,0.0,0.0,0.0,0.0,0.0,0.0,0.0,0.0,0.0,0.0,0.0,0.0,0.0,0.0,0.0,0.0,0.0,0.0,0.0,0.0,0.0,0.0,0.0,0.0,0.0,0.0,0.0,0.0,0.0,0.0,0.0,0.0,0.0,0.0,0.0,0.0,0.0,0.0,0.0,0.0,0.0,0.0,0.0,0.0,0.0,0.0,0.0,0.0,0.0,0.0,0.0,0.0,0.0,0.0,0.0,0.0,0.0,0.0,0.0,0.0,0.0,0.0,0.0,0.0,0.0,0.0,0.0,0.0,0.0,0.0,0.0,0.0,0.0,0.0,0.0,0.0,0.0,0.0,0.0,0.0,0.0,0.0,0.0,0.0,0.0,0.0,0.0,0.0,0.0,0.0,0.0,0.0,0.0,0.0,0.0,0.0,0.0,0.0,0.0,0.0,0.0,0.0,0.0,0.0,0.0,0.0,0.0,0.0,0.0,0.0,0.0,0.0,0.0,0.0,0.0,0.0,0.0,0.0,0.0,0.0,0.0,0.0,0.0,0.0,0.0,0.0,0.0,0.0,0.0,0.0,0.0,0.0,0.0,0.0,0.0,0.0,0.0,0.0,0.0,0.0,0.0,0.0,0.0,0.0,0.0,0.0,0.0,0.0,0.0,0.0,0.0,0.0,0.0,0.0,0.0,0.0,0.0,0.0,0.0,0.0,0.0,0.0,0.0,0.0,0.0,0.0,0.0,0.0,0.0,0.0,0.0,0.0,0.0,0.0,0.0,0.0,0.0,0.0,0.0,0.0,0.0,0.0,0.0,0.0,0.0,0.0,0.0,0.0,0.0,0.0,0.0,0.0,0.0,0.0,0.0,0.0,0.0,0.0,0.0,0.0,0.0,0.0,0.0,0.0,0.0,0.0,0.0,0.0,0.0,0.0,0.0,0.0,0.0,0.0,0.0,0.0,0.0,0.0,0.0,0.0,0.0,0.0,0.0,0.0,0.0,0.0,0.0,0.0,0.0,0.0,0.0,0.0,0.0,0.0,0.0,0.0,0.0,0.0,0.0,0.0,0.0,0.0,0.0,0.0,0.0,0.0,0.0,-1.1762,0.0,0.0,0.0,0.0,0.0,0.0,0.0,0.0,0.0,0.0,0.0,0.0,0.0,0.0,0.0,0.0,0.0,0.0,0.0,0.0,0.0,0.0,0.0,0.0,0.0,0.0,0.0,0.0,0.0,0.0,0.0,0.0,0.0,0.0,0.0,0.0,0.0,0.0,0.0,-2.419,-2.4247,-2.4339,-2.4339,-2.4284,-2.419,0.0,0.0,0.0,0.0,0.0,0.0,0.0,0.0,0.0,0.0,0.0,0.0,0.0,0.0,0.0,0.0,0.0,0.0,0.0,0.0,0.0,0.0,0.0,0.0,0.0,0.0,0.0,0.0,0.0,0.0,0.0,0.0,0.0,0.0,0.0,0.0,0.0,0.0,0.0,0.0,0.0,0.0,0.0,0.0,0.0,0.0,0.0,0.0,0.0,0.0,0.0,0.0,0.0,0.0,0.0,0.0,0.0,0.0,0.0,0.0,0.0,0.0,0.0,0.0,0.0,0.0,0.0,0.0,0.0,0.0,0.0,-1.1454,0.0,0.0,0.0,0.0,0.0,0.0,0.0,0.0,0.0,0.0,0.0,0.0,0.0,0.0,0.0,0.0,0.0,0.0,0.0,0.0,0.0,0.0,0.0,0.0,-2.419,-2.419,-2.419,-2.419,0.0,0.0,0.0,0.0,0.0,0.0,0.0,0.0,0.0,-2.4266,-2.4432,-2.4596,-2.4767,-2.4933,-2.4832,-2.4487,-2.4283,0.0,0.0,0.0,0.0,0.0,0.0,0.0,0.0,0.0,0.0,0.0,0.0,0.0,0.0,0.0,0.0,0.0,0.0,0.0,0.0,0.0,0.0,0.0,0.0,0.0,0.0,0.0,0.0,0.0,0.0,0.0,0.0,0.0,0.0,0.0,0.0,0.0,0.0,0.0,0.0,0.0,0.0,0.0,0.0,0.0,0.0,0.0,0.0,0.0,0.0,0.0,0.0,0.0,0.0,0.0,0.0,0.0,0.0,0.0,0.0,0.0,0.0,0.0,-1.5376,-1.5258,-1.5141,-1.4627,-1.45,-1.4701,-1.289,-1.2246,-1.238,-1.1506,0.0,0.0,0.0,0.0,0.0,0.0,0.0,0.0,0.0,0.0,0.0,0.0,0.0,0.0,0.0,0.0,0.0,0.0,0.0,0.0,0.0,-2.4428,-2.419,-2.419,-2.419,-2.419,0.0,0.0,0.0,0.0,0.0,0.0,0.0,-2.419,-2.4284,-2.4461,-2.5333,-2.5781,-2.5831,-2.6582,-2.651,-2.5712,-2.4672,-2.419,-2.419,0.0,0.0,0.0,0.0,0.0,0.0,0.0,0.0,0.0,0.0,0.0,0.0,0.0,0.0,0.0,0.0,0.0,0.0,0.0,0.0,0.0,0.0,0.0,0.0,0.0,0.0,0.0,0.0,0.0,0.0,0.0,0.0,0.0,0.0,0.0,0.0,0.0,0.0,0.0,0.0,0.0,-2.4776,-2.4653,0.0,0.0,0.0,0.0,0.0,0.0,0.0,0.0,0.0,0.0,0.0,0.0,0.0,-2.0102,-1.9173,-1.9173,-1.8664,-1.7661,-1.7196,-1.6705,-1.6178,-1.5635,-1.5157,-1.4699,-1.4405,0.0,-1.2979,-1.2718,0.0,0.0,0.0,0.0,0.0,0.0,0.0,0.0,0.0,0.0,0.0,0.0,0.0,0.0,0.0,0.0,0.0,0.0,0.0,0.0,0.0,-2.4697,-2.4545,-2.4545,-2.4545,-2.4545,-2.4545,-2.4426,0.0,0.0,0.0,-2.419,-2.419,-2.4321,-2.4684,-2.5327,-2.6249,-2.6657,-2.6676,-2.6958,-2.6921,-2.6657,-2.6003,-2.5281,-2.4528,-2.4428,0.0,0.0,0.0,0.0,0.0,0.0,0.0,0.0,0.0,0.0,0.0,0.0,0.0,0.0,0.0,0.0,0.0,0.0,0.0,0.0,0.0,0.0,0.0,0.0,0.0,0.0,0.0,0.0,0.0,0.0,0.0,0.0,0.0,0.0,0.0,0.0,0.0,0.0,0.0,-2.4828,-2.4716,-2.4495,-2.4393,-2.4321,0.0,0.0,0.0,0.0,0.0,0.0,0.0,0.0,0.0,-2.1275,-2.0846,-2.0162,-1.9236,-1.92,-1.8826,-1.8106,-1.7867,-1.7612,-1.7341,-1.6815,-1.6403,-1.6145,-1.5487,-1.4924,-1.4462,-1.3695,-1.3297,-1.304,0.0,0.0,0.0,0.0,-1.0948,-1.0324,0.0,0.0,0.0,0.0,0.0,0.0,0.0,0.0,0.0,0.0,0.0,0.0,-2.501,-2.4877,-2.4804,-2.4804,-2.4804,-2.4804,-2.4804,-2.4654,0.0,0.0,0.0,-2.4358,-2.4502,-2.5168,-2.5874,-2.6601,-2.7705,-2.8215,-2.8152,-2.8203,-2.8202,-2.8133,-2.8065,-2.7067,-2.5427,-2.5032,-2.4874,-2.4874,0.0,0.0,0.0,0.0,0.0,0.0,0.0,0.0,0.0,0.0,0.0,0.0,0.0,0.0,0.0,0.0,0.0,0.0,0.0,0.0,0.0,0.0,0.0,0.0,0.0,0.0,0.0,0.0,0.0,0.0,0.0,0.0,0.0,0.0,0.0,0.0,0.0,-2.476,-2.4591,-2.4247,-2.419,-2.419,0.0,0.0,0.0,0.0,0.0,0.0,-2.2415,-2.1895,-2.146,-2.115,-2.0715,-2.0128,-1.9456,-1.9456,-1.9185,-1.8646,-1.8545,-1.8405,-1.8302,-1.7747,-1.7422,-1.7271,-1.6403,-1.594,-1.5732,-1.4549,-1.405,-1.3956,-1.3372,-1.3152,-1.3055,-1.2335,-1.1972,-1.1665,0.0,0.0,0.0,0.0,0.0,0.0,0.0,0.0,0.0,0.0,0.0,-2.501,-2.501,-2.4877,-2.4804,-2.4804,-2.4804,-2.4804,-2.4804,-2.479,-2.47,-2.4512,-2.4495,-2.4745,-2.5329,-2.7285,-2.828,-2.8282,-3.0162,-3.0961,-3.0734,-3.1487,-3.1431,-3.0716,-3.0961,-2.9627,-2.7119,-2.6276,-2.5921,-2.5865,-2.5091,0.0,0.0,0.0,0.0,0.0,0.0,0.0,0.0,0.0,0.0,0.0,0.0,0.0,0.0,0.0,0.0,0.0,0.0,0.0,0.0,0.0,0.0,0.0,0.0,0.0,0.0,0.0,0.0,0.0,0.0,0.0,0.0,0.0,0.0,0.0,0.0,0.0,0.0,-2.4228,-2.419,0.0,0.0,0.0,0.0,-2.3692,-2.3346,-2.3021,-2.2695,-2.1989,-2.1582,-2.1582,-2.1181,-2.0926,-2.0894,-2.0894,-2.0649,-2.0196,-1.9728,-1.9295,-1.8855,-1.8302,-1.7787,-1.7312,-1.7229,-1.6951,-1.638,-1.5152,-1.4652,-1.4606,-1.4003,-1.3732,-1.3684,-1.3055,-1.2393,-1.1814,0.0,0.0,0.0,0.0,0.0,0.0,0.0,0.0,-2.5303,-2.5303,-2.5243,-2.5414,-2.597,-2.5983,-2.619,-2.6745,-2.6783,-2.6783,-2.6783,-2.6663,-2.6564,-2.6494,-2.6374,-2.672,-2.7576,-2.8867,-2.9861,-3.0519,-3.2123,-3.2778,-3.2523,-3.321,-3.3047,-3.2257,-3.2343,-3.1656,-3.0279,-2.8548,-2.7096,-2.5963,-2.5676,-2.5257,0.0,0.0,0.0,0.0,0.0,0.0,0.0,0.0,0.0,0.0,0.0,0.0,0.0,0.0,0.0,0.0,0.0,0.0,0.0,0.0,0.0,0.0,0.0,0.0,0.0,0.0,0.0,0.0,0.0,0.0,0.0,0.0,0.0,0.0,0.0,0.0,0.0,-2.4426,-2.4393,0.0,-2.4209,-2.3996,-2.3816,-2.3714,-2.3392,-2.3045,-2.2721,-2.2441,-2.2102,-2.1612,-2.146,-2.1244,-2.0991,-2.0991,-2.0926,-2.0748,-2.0265,-1.9954,-1.9778,-1.8977,-1.8341,-1.7827,-1.7827,-1.7504,-1.6993,-1.6532,-1.5915,-1.5231,-1.4595,-1.4376,-1.4294,-1.3695,-1.3304,-1.2938,0.0,0.0,0.0,0.0,0.0,0.0,0.0,0.0,-2.5303,-2.5303,-2.5303,-2.563,-2.6505,-2.6601,-2.6948,-2.7813,-2.789,-2.789,-2.789,-2.7694,-2.77,-2.7981,-2.8343,-2.8894,-2.9655,-3.1049,-3.2125,-3.2856,-3.4346,-3.4942,-3.4694,-3.5093,-3.4918,-3.425,-3.4348,-3.3736,-3.2577,-3.1295,-2.9377,-2.7175,-2.6906,-2.6167,-2.519,0.0,0.0,0.0,0.0,0.0,0.0,0.0,0.0,0.0,0.0,0.0,0.0,0.0,0.0,0.0,0.0,0.0,0.0,0.0,0.0,0.0,0.0,0.0,0.0,0.0,0.0,0.0,0.0,0.0,0.0,0.0,0.0,0.0,0.0,0.0,-2.4898,-2.4639,-2.4787,-2.4854,-2.4709,-2.4695,-2.4614,-2.4526,-2.4311,-2.4016,-2.3692,-2.358,-2.3285,-2.279,-2.2658,-2.2446,-2.218,-2.2196,-2.2101,-2.1973,-2.1661,-2.13,-2.0879,-2.0274,-1.9487,-1.8622,-1.8622,-1.8196,-1.7585,-1.7585,-1.7107,-1.6336,-1.5398,-1.5005,-1.4926,-1.4329,-1.3956,-1.3627,0.0,0.0,0.0,0.0,0.0,0.0,0.0,-2.5303,-2.5303,-2.5303,-2.5303,-2.563,-2.6544,-2.664,-2.7005,-2.789,-2.8005,-2.8025,-2.8025,-2.7797,-2.8049,-2.8891,-3.033,-3.1225,-3.1522,-3.3914,-3.5157,-3.5181,-3.6837,-3.7509,-3.7251,-3.7289,-3.7115,-3.6764,-3.6994,-3.5928,-3.3915,-3.445,-3.2767,-2.9662,-2.8793,-2.7509,-2.6045,0.0,0.0,0.0,0.0,0.0,0.0,0.0,0.0,0.0,0.0,0.0,0.0,0.0,0.0,0.0,0.0,0.0,0.0,0.0,0.0,0.0,0.0,0.0,0.0,0.0,0.0,0.0,0.0,0.0,0.0,0.0,0.0,0.0,-2.5072,-2.5041,-2.4987,-2.4851,-2.5375,-2.5744,-2.5744,-2.6259,-2.6469,-2.6144,-2.6121,-2.5967,-2.5636,-2.5304,-2.5118,-2.509,-2.4731,-2.4506,-2.4506,-2.4506,-2.4288,-2.3902,-2.3918,-2.3276,-2.2163,-2.2114,-2.1227,-1.9636,-1.9651,-1.9089,-1.8145,-1.8145,-1.8145,-1.7973,-1.6305,-1.5632,-1.5588,-1.4971,-1.4329,-1.3616,0.0,0.0,0.0,0.0,0.0,0.0,0.0,-2.5303,-2.5303,-2.5303,-2.5303,-2.587,-2.7371,-2.7544,-2.8121,-2.9602,-3.0294,-3.066,-3.066,-3.1142,-3.152,-3.1764,-3.2779,-3.3647,-3.4361,-3.5609,-3.6569,-3.7203,-3.8297,-3.8661,-3.8384,-3.9012,-3.8793,-3.792,-3.7759,-3.7026,-3.5899,-3.5832,-3.4596,-3.2464,-3.0394,-2.8847,-2.7679,0.0,0.0,0.0,0.0,0.0,0.0,0.0,0.0,0.0,0.0,0.0,0.0,0.0,0.0,0.0,0.0,0.0,0.0,0.0,0.0,0.0,0.0,0.0,0.0,0.0,0.0,0.0,0.0,0.0,0.0,0.0,0.0,-2.6248,-2.5473,-2.5821,-2.609,-2.5914,-2.6588,-2.6934,-2.6599,-2.6712,-2.6725,-2.649,-2.6469,-2.6318,-2.5967,-2.587,-2.5595,-2.5118,-2.5005,-2.4773,-2.4506,-2.4506,-2.4444,-2.432,-2.4032,-2.3737,-2.3391,-2.2658,-2.1755,-2.0828,-2.0518,-1.9946,-1.917,-1.8826,-1.8688,-1.8574,-1.7327,-1.6828,-1.6701,-1.5708,-1.4675,-1.3768,0.0,0.0,0.0,0.0,0.0,0.0,0.0,-2.5303,-2.5303,-2.5303,-2.5303,-2.5967,-2.7717,-2.789,-2.8563,-3.0244,-3.1198,-3.1698,-3.1698,-3.3141,-3.3942,-3.382,-3.5081,-3.6026,-3.6546,-3.77,-3.8546,-3.9046,-4.0296,-4.079,-4.0594,-4.0747,-4.0387,-3.9591,-3.8898,-3.8097,-3.7199,-3.6915,-3.6046,-3.4669,-3.2582,-3.0846,-2.9375,-2.873,-2.7941,-2.7101,-2.6517,-2.5983,-2.5531,-2.5358,0.0,0.0,0.0,0.0,0.0,0.0,0.0,0.0,0.0,0.0,0.0,0.0,0.0,0.0,0.0,0.0,0.0,0.0,0.0,0.0,0.0,0.0,0.0,0.0,-2.6587,-2.6838,-2.6627,-2.6931,-2.7123,-2.7002,-2.7644,-2.7937,-2.7581,-2.7793,-2.7862,-2.7625,-2.7622,-2.7537,-2.7341,-2.7164,-2.6882,-2.6489,-2.6173,-2.5897,-2.5672,-2.5501,-2.5406,-2.5406,-2.5179,-2.4913,-2.4596,-2.3992,-2.3243,-2.2364,-2.213,-2.1554,-2.0725,-2.0227,-1.9864,0.0,0.0,0.0,0.0,0.0,-1.5174,-1.4503,0.0,0.0,0.0,0.0,0.0,0.0,0.0,-2.5303,-2.5303,-2.5303,-2.5303,-2.5928,-2.7563,-2.7832,-2.8544,-3.0121,-3.1141,-3.1775,-3.1968,-3.4276,-3.5532,-3.5302,-3.7222,-3.8277,-3.8277,-3.9931,-4.0777,-4.0777,-4.2335,-4.3104,-4.3085,-4.2316,-4.1792,-4.1437,-4.0312,-3.9199,-3.8201,-3.7849,-3.7206,-3.6332,-3.5073,-3.3243,-3.1167,-3.0242,-2.9466,-2.8698,-2.716,-2.6473,-2.6206,-2.5646,0.0,0.0,0.0,0.0,0.0,0.0,0.0,0.0,0.0,0.0,0.0,0.0,0.0,0.0,0.0,0.0,0.0,0.0,0.0,0.0,0.0,0.0,0.0,0.0,-2.7182,-2.7449,-2.8155,-2.8288,-2.8233,-2.8065,-2.8587,-2.8884,-2.8596,-2.912,-2.9353,-2.9067,-2.9062,-2.904,-2.9017,0.0,0.0,0.0,0.0,-2.7409,-2.7348,-2.7019,-2.6808,-2.6791,-2.6791,-2.6386,-2.5727,-2.5662,-2.5095,-2.41,-2.3984,-2.3428,-2.2535,-2.1848,-2.1305,-2.0623,-1.8896,-1.7827,-1.7188,-1.6145,-1.572,-1.5454,0.0,0.0,0.0,0.0,0.0,0.0,0.0,-2.5303,-2.5303,-2.5303,-2.5303,-2.5687,-2.6736,-2.7486,-2.8294,-2.9275,-3.0794,-3.2275,-3.3622,-3.5449,-3.6454,-3.6392,-3.8723,-4.0008,-4.0008,-4.17,-4.2604,-4.2604,-4.2931,-4.3104,-4.3104,-4.2931,-4.2819,-4.271,-4.1514,-4.0732,-4.0244,-3.9234,-3.8192,-3.725,-3.6977,-3.5528,-3.3355,-3.1653,-3.0373,-2.9453,-2.8798,-2.7585,-2.6301,-2.6337,-2.589,-2.5303,-2.5303,0.0,0.0,0.0,0.0,0.0,0.0,0.0,0.0,0.0,0.0,0.0,0.0,0.0,0.0,0.0,0.0,0.0,0.0,0.0,0.0,-2.791,-2.8632,-2.9117,-2.9205,-2.978,-2.9852,-2.8963,-2.9598,-2.9979,-2.9722,-2.9813,-2.9729,-2.9332,-2.933,-2.9225,-2.9017,-2.8929,-2.8749,-2.842,-2.8272,-2.8057,-2.7783,-2.7725,-2.7517,-2.7178,0.0,0.0,-2.6471,-2.6097,-2.5697,-2.5227,-2.4486,-2.3951,-2.3534,-2.2623,-2.1942,-2.1302,-1.9469,-1.8145,-1.7271,-1.705,-1.6403,-1.5588,0.0,0.0,0.0,0.0,0.0,0.0,0.0,-2.5303,-2.5303,-2.5303,-2.5303,-2.563,-2.6505,-2.7371,-2.8217,-2.9025,-3.1064,-3.2833,-3.4122,-3.618,-3.7353,-3.7353,-3.9796,-4.1143,-4.1143,-4.2835,-4.3701,-4.3701,-4.4143,-4.4355,-4.4335,-4.3893,-4.3701,-4.3662,-4.247,-4.1559,-4.0849,-4.0087,-3.911,-3.8028,-3.7202,-3.6223,-3.5073,-3.3539,-3.2179,-3.0975,-3.0081,-2.8528,-2.6906,-2.6694,-2.5945,-2.5163,-2.5264,-2.5303,-2.5303,0.0,0.0,0.0,0.0,0.0,0.0,0.0,0.0,0.0,0.0,0.0,0.0,0.0,0.0,-2.6295,0.0,0.0,-2.7949,-2.8809,-2.9316,-2.9725,-3.0055,-3.044,-3.0472,-2.9873,-3.0172,-3.0337,-3.0028,-2.9999,-2.9877,-2.957,-2.9454,-2.9351,-2.9222,-2.9067,-2.8905,-2.8725,-2.8496,-2.8316,-2.8156,-2.7964,-2.7811,-2.7589,-2.7589,-2.7517,-2.7286,-2.7049,-2.6764,-2.6407,-2.5949,-2.5463,-2.4873,-2.3759,-2.297,-2.2313,-2.1122,-2.0011,-1.9073,-1.8822,-1.8142,-1.7256,0.0,0.0,0.0,0.0,0.0,0.0,0.0,-2.5303,-2.5303,-2.5303,-2.5303,-2.5572,-2.6274,-2.7121,-2.8044,-2.9006,-3.1121,-3.2852,-3.3872,-3.6334,-3.7815,-3.7988,-4.045,-4.1893,-4.2047,-4.3528,-4.4374,-4.4547,-4.5259,-4.5586,-4.5566,-4.4874,-4.4547,-4.4509,-4.3178,-4.2053,-4.1095,-4.0424,-3.9592,-3.8579,-3.711,-3.6431,-3.6158,-3.4988,-3.3658,-3.2238,-3.0822,-2.9168,-2.7567,-2.6998,-2.6025,-2.5088,-2.5203,-2.5264,-2.5303,-2.5303,-2.5303,0.0,0.0,0.0,0.0,0.0,0.0,0.0,0.0,0.0,-2.5563,-2.5572,-2.635,-2.7079,-2.7283,-2.7988,-2.8827,-2.9707,-2.9844,-3.0057,-3.0669,-3.0743,-3.0696,-3.0547,-3.0524,-3.0384,-3.0117,-3.0075,-3.0003,-2.9763,-2.9607,-2.9474,-2.9412,-2.92,-2.9044,-2.9017,-2.8682,-2.8515,-2.8515,-2.8255,-2.8065,-2.801,-2.801,-2.7964,-2.7897,-2.7897,-2.7678,-2.7303,-2.721,-2.674,-2.5911,-2.4944,-2.418,-2.3558,-2.3122,-2.24,-2.1474,-2.0599,-1.9838,-1.9169,0.0,0.0,0.0,0.0,0.0,0.0,0.0,0.0,-2.5303,-2.5303,-2.5303,-2.5341,-2.5418,-2.6217,-2.7371,-2.8948,-3.0063,-3.1352,-3.2949,-3.543,-3.7199,-3.7969,-4.045,-4.2162,-4.2931,-4.3835,-4.4682,-4.5451,-4.5547,-4.5586,-4.5586,-4.549,-4.5451,-4.5374,-4.3446,-4.2357,-4.185,-4.0031,-3.9026,-3.8615,-3.7716,-3.6927,-3.6158,-3.4773,-3.3374,-3.1977,-3.0544,-2.9111,-2.7838,-2.7567,-2.6512,-2.5253,-2.5088,-2.5152,-2.5303,-2.5303,0.0,-2.5303,-2.5303,-2.5303,0.0,-2.5303,-2.5303,-2.5303,0.0,0.0,-2.6477,-2.652,-2.7257,-2.8145,-2.9035,-2.9288,-2.9674,-3.0605,-3.0742,-3.0781,-3.0879,-3.0879,-3.0835,-3.0687,-3.0575,-3.0463,-3.0359,-3.0355,-3.0254,-2.9984,-2.9954,-2.9763,-2.9414,-2.9372,-2.9246,-2.9017,-2.897,-2.8929,-2.8929,-2.8905,-2.87,-2.8324,-2.8324,-2.8183,-2.7897,-2.7897,-2.7678,-2.7272,-2.6939,-2.647,-2.5997,-2.5842,-2.5473,-2.4981,-2.4904,-2.4516,-2.3774,-2.1589,-2.0472,-1.9975,0.0,0.0,0.0,0.0,0.0,0.0,0.0,0.0,0.0,-2.5303,-2.5303,-2.5303,-2.5303,-2.6082,-2.7082,-2.8294,-2.964,-3.0686,-3.141,-3.4314,-3.6161,-3.6526,-3.9431,-4.12,-4.1585,-4.2912,-4.3778,-4.4143,-4.4143,-4.4143,-4.4143,-4.4143,-4.4035,-4.381,-4.2985,-4.206,-4.1065,-4.0213,-3.9128,-3.7918,-3.7129,-3.6009,-3.4679,-3.3135,-3.1708,-3.047,-3.0124,-2.902,0.0,-2.7186,-2.6121,-2.5043,-2.513,-2.5152,-2.5152,-2.5264,-2.5303,0.0,-2.5303,-2.5303,0.0,0.0,-2.6063,-2.6197,-2.6697,-2.7082,-2.7372,-2.7403,-2.8085,-2.8819,-2.9253,-2.9799,-3.0328,0.0,-3.0857,-3.0898,-3.0898,-3.0898,-3.0857,-3.0718,-3.0661,-3.0575,-3.0482,-3.0462,-3.04,-3.0235,-3.0089,-2.9924,-2.9765,-2.9644,-2.9474,-2.9246,-2.9225,-2.9156,-2.8994,-2.8994,-2.8929,-2.8749,-2.8749,-2.8676,-2.8533,-2.8533,-2.8334,-2.7918,-2.756,-2.7286,-2.7095,-2.7095,-2.6965,-2.6704,-2.6182,-2.5812,-2.5403,-2.3613,-2.2378,-2.1554,0.0,0.0,0.0,0.0,0.0,0.0,0.0,0.0,0.0,0.0,-2.5303,-2.5303,-2.5303,-2.587,-2.6601,-2.7467,-2.8659,-2.9648,-3.034,-3.2949,-3.4776,-3.5468,-3.8046,-3.9681,-4.0162,-4.1412,-4.2277,-4.2739,-4.2633,-4.2731,-4.2961,-4.287,-4.2584,-4.2136,-4.1803,-4.0962,-3.973,-3.9416,-3.845,-3.7074,-3.6028,-3.4871,-3.3587,-3.1513,-3.0175,-2.9415,-2.9465,-2.8487,-2.7075,-2.653,-2.5665,-2.4832,-2.5012,-2.5005,-2.4962,-2.5126,-2.5182,-2.5271,-2.5501,-2.5629,0.0,-2.6736,-2.6967,-2.7121,-2.7755,-2.8063,-2.8217,-2.8217,-2.8917,-2.9534,-2.9569,-3.016,-3.0661,-3.0673,-3.0767,-3.0838,-3.0838,-3.0879,-3.0859,-3.0769,-3.0767,-3.0703,-3.0568,-3.0521,-3.0482,-3.0439,-3.0228,-3.0075,-2.9999,-2.9861,-2.9696,-2.9474,-2.9474,-2.9375,-2.9185,-2.9185,-2.9181,-2.9112,-2.9112,-2.9067,-2.8994,-2.8905,-2.8682,-2.8376,-2.8047,-2.7897,-2.7897,-2.7897,-2.7897,-2.7823,-2.7043,-2.6622,-2.6371,-2.5233,-2.4215,-2.3346,0.0,0.0,0.0,0.0,0.0,0.0,0.0,0.0,0.0,0.0,0.0,0.0,0.0,-2.5322,-2.5687,-2.6563,-2.6697,-2.7755,-3.0244,-3.1295,-3.2929,-3.5391,-3.6353,-3.7603,-3.9296,-3.9392,-4.02,-4.1854,-4.1513,-4.1799,-4.262,-4.2284,-4.169,-4.09,-3.9789,-3.885,-3.7996,-3.6888,-3.6405,-3.6193,-3.4541,-3.3844,-3.3458,-3.0283,-2.9215,-2.9301,-2.8445,-2.7245,-2.6016,-2.5804,-2.5308,-2.4775,-2.4575,-2.4654,0.0,-2.4818,-2.4904,-2.5182,-2.6041,-2.6416,-2.6774,-2.764,-2.7852,-2.7871,-2.789,-2.8486,-2.9063,-2.9063,-2.9756,-3.0378,-3.0461,-3.0488,-3.0529,-3.0594,-3.0665,-3.0716,-3.0716,-3.0816,-3.0898,-3.0898,-3.0898,-3.0837,0.0,-3.0581,-3.0498,-3.0498,-3.043,-3.0267,-3.0013,-2.9999,-2.9908,-2.9696,-2.9696,-2.9696,-2.9678,-2.9678,-2.9589,-2.9392,-2.9392,-2.9246,-2.8994,-2.8608,-2.842,-2.8376,-2.8047,-2.7897,-2.7897,-2.7897,-2.7897,-2.7869,-2.7439,-2.6965,-2.6438,-2.6106,-2.5598,-2.5112,0.0,0.0,0.0,0.0,0.0,0.0,0.0,0.0,0.0,0.0,0.0,0.0,0.0,0.0,0.0,0.0,-2.6274,-2.6967,-2.7832,-2.9737,-3.1218,-3.2071,-3.3987,-3.5584,-3.6757,-3.7296,-3.8123,-3.9277,-3.8988,-3.8994,-3.928,-3.8984,-3.8591,-3.8096,-3.771,-3.6965,-3.5965,-3.5607,-3.4835,-3.3752,-3.2651,-3.1568,-3.0448,-2.8815,-2.7595,-2.6722,0.0,-2.6188,-2.5903,-2.5314,-2.4879,-2.4607,-2.4685,-2.4654,-2.4623,-2.476,-2.5289,-2.5926,-2.6231,-2.6876,-2.7659,-2.8486,-2.8698,-2.8852,-2.9429,-2.9775,-2.9967,-2.9967,-3.0198,-3.0402,-3.0439,-3.0463,-3.0516,-3.0529,-3.0594,-3.0657,-3.069,-3.0743,-3.0793,-3.0898,-3.0898,0.0,0.0,0.0,0.0,-3.0568,-3.0507,-3.0433,-3.0334,-3.029,-3.0136,-2.9908,-2.9908,-2.9829,-2.9696,-2.9696,-2.9661,-2.9607,-2.9607,-2.9494,-2.9267,-2.9123,-2.8966,-2.8773,-2.8676,-2.8626,-2.8626,-2.8626,-2.8626,-2.8601,-2.821,-2.7939,-2.7717,-2.7387,-2.7141,-2.6802,0.0,0.0,0.0,0.0,0.0,0.0,0.0,0.0,0.0,0.0,0.0,0.0,0.0,0.0,0.0,0.0,0.0,-2.6184,-2.6582,-2.8076,-2.9236,-2.991,-3.1795,-3.3256,-3.4122,-3.4856,-3.5652,-3.6496,-3.612,-3.6121,-3.6405,-3.6133,-3.5707,-3.5243,-3.5243,-3.4689,-3.3697,-3.3421,-3.2706,-3.1659,-3.054,-2.9494,-2.8448,-2.7346,-2.6303,0.0,-2.5072,-2.5134,-2.5284,-2.4762,-2.4495,-2.4428,-2.4526,-2.4495,-2.4482,-2.4976,-2.5641,-2.6344,-2.7001,-2.775,-2.8525,-2.9352,-2.9563,-2.9717,-3.0275,-3.016,-2.9948,-2.9948,-2.9948,-2.9948,-2.9948,-3.0237,-3.0453,-3.0453,-3.0513,-3.0581,-3.0614,-3.0657,-3.0707,-3.0816,-3.0836,-3.0857,0.0,0.0,0.0,-3.0648,-3.0575,-3.0537,-3.0537,-3.0463,-3.0367,-3.0183,-3.0157,-3.008,-2.9962,-2.9962,-2.9896,-2.9796,-2.9729,-2.9625,-2.9494,-2.9434,-2.931,-2.9134,-2.9044,-2.8994,-2.8994,-2.8994,-2.8994,-2.8975,-2.8652,-2.8542,-2.8517,-2.8234,-2.8076,-2.7847,0.0,0.0,0.0,0.0,0.0,0.0,0.0,0.0,0.0,0.0,0.0,0.0,0.0,0.0,0.0,0.0,0.0,0.0,-2.6436,-2.6369,-2.7077,-2.8868,-2.9771,-3.0655,-3.152,-3.2101,-3.2794,-3.3611,-3.3066,-3.3235,-3.4023,-3.3714,-3.3146,-3.243,-3.243,-3.1971,-3.1164,-3.0393,-3.0063,-2.9879,-2.8301,-2.7677,-2.7512,-2.5954,-2.5348,-2.5256,-2.4465,-2.419,-2.419,-2.419,-2.419,-2.419,-2.419,-2.4226,-2.4449,-2.5427,-2.5893,-2.6511,-2.8303,-2.8976,-2.934,-3.0186,-3.0398,-3.0379,-3.034,-2.9698,-2.9102,-2.9102,-2.9071,-2.9091,0.0,0.0,-3.0379,-3.0398,-3.0442,-3.049,-3.0498,-3.0547,-3.0628,0.0,0.0,0.0,0.0,0.0,0.0,-3.0721,0.0,-3.0611,-3.0611,-3.0545,-3.0507,-3.0507,-3.0441,-3.0402,-3.041,-3.041,-3.0267,-3.0013,-2.9829,-2.9731,-2.9713,-2.9513,-2.9433,-2.9394,-2.9156,-2.904,-2.904,-2.904,-2.904,-2.9003,-2.8915,-2.886,-2.8842,-2.8695,-2.8487,-2.824,0.0,0.0,0.0,0.0,0.0,0.0,0.0,0.0,0.0,0.0,0.0,0.0,0.0,0.0,0.0,0.0,0.0,0.0,-2.5259,-2.5773,-2.6285,-2.6778,-2.7628,-2.8498,-2.9368,-2.9551,-2.9994,-3.0807,-3.0471,-3.0424,-3.063,-3.0356,-3.0094,-2.991,-2.991,-2.9475,-2.8686,-2.8503,-2.8062,-2.7438,-2.641,-2.6027,-2.5917,-2.4887,-2.4502,-2.4483,-2.4263,0.0,0.0,0.0,0.0,0.0,0.0,-2.4612,-2.5186,-2.5576,-2.6596,-2.775,-2.8565,-2.9287,-2.9863,-3.0297,-3.0398,-3.0237,-2.9583,-2.9256,-2.906,-2.8906,-2.888,-2.9052,0.0,0.0,0.0,-3.0367,-3.0414,0.0,-3.049,-3.0505,0.0,-3.0623,0.0,-3.0657,-3.0743,-3.0747,0.0,0.0,-3.074,-3.0677,-3.0677,-3.0617,-3.0575,-3.0575,-3.0567,-3.054,-3.0472,-3.0428,-3.0367,-3.0299,-3.026,-3.0128,-2.9924,-2.9877,-2.9782,-2.9626,-2.9551,-2.9514,-2.9514,-2.9514,-2.9514,-2.9514,-2.9476,-2.9458,-2.9458,-2.942,-2.9283,-2.9089,0.0,0.0,0.0,0.0,0.0,0.0,0.0,0.0,0.0,0.0,0.0,0.0,0.0,0.0,0.0,0.0,0.0,0.0,0.0,-2.5129,-2.5374,-2.5484,-2.6273,-2.6968,-2.7456,-2.7719,-2.8081,-2.8532,-2.8296,-2.8176,-2.8176,-2.8021,-2.7948,-2.7948,-2.7948,-2.7714,-2.7255,-2.6888,-2.6484,0.0,0.0,-2.4869,-2.4814,-2.4373,-2.419,-2.419,0.0,0.0,0.0,0.0,0.0,-2.419,-2.419,-2.474,-2.5518,-2.6061,0.0,-2.826,-2.8998,-2.9516,-2.9893,-3.0052,-2.9827,-2.9522,-2.9393,-2.8796,-2.833,-2.8563,-2.8609,0.0,-2.9197,0.0,0.0,0.0,0.0,0.0,-3.0442,-3.0452,-3.0482,0.0,-3.0897,0.0,-3.1217,-3.1573,-3.1847,0.0,-3.123,-3.0792,-3.0792,-3.07,-3.0633,-3.0633,-3.0623,-3.0581,-3.0533,-3.0507,-3.0491,-3.0491,-3.0452,-3.037,-3.022,-3.0065,-2.9939,-2.9829,-2.9748,-2.9696,-2.9696,-2.9696,-2.9696,-2.9713,-2.9796,-2.9829,-2.9845,-2.9958,-2.9848,-2.9661,0.0,0.0,0.0,0.0,0.0,0.0,0.0,0.0,0.0,0.0,0.0,0.0,0.0,0.0,0.0,0.0,0.0,0.0,0.0,0.0,0.0,-2.4716,-2.5389,-2.5766,-2.5766,-2.6261,-2.6544,-2.6544,-2.6368,-2.6282,-2.6282,-2.6282,-2.6282,-2.6282,-2.6282,-2.6282,-2.6245,-2.5529,-2.5217,-2.5122,-2.4465,-2.417,-2.4151,0.0,0.0,0.0,0.0,0.0,0.0,0.0,-2.419,-2.419,-2.419,-2.4814,-2.5737,-2.6637,-2.7531,-2.8445,-2.9436,-2.9678,-2.9661,-2.9696,-2.9108,-2.8652,-2.9242,-2.8166,-2.7264,-2.8041,0.0,-2.8269,-2.8495,-2.9285,-2.9939,-2.9999,0.0,-3.0355,-3.0379,-3.0398,-3.0417,-3.0482,-3.1149,-3.1639,-3.1702,-3.2499,-3.3044,-3.3111,-3.1823,-3.1034,-3.1074,-3.085,-3.0721,-3.0721,-3.0657,-3.0617,-3.0617,-3.0611,-3.0606,-3.0606,-3.0545,-3.0516,-3.049,-3.0208,-3.007,-3.0028,-2.988,-2.9799,-2.9799,-2.9799,-2.9799,-2.9815,-2.9969,-3.0042,-3.0075,-3.0311,-3.0222,-2.9999,0.0,0.0,0.0,0.0,0.0,0.0,0.0,0.0,0.0,0.0,0.0,0.0,0.0,0.0,0.0,0.0,0.0,0.0,0.0,0.0,0.0,0.0,-2.4432,-2.4506,-2.4506,-2.4598,-2.4671,-2.4671,-2.4631,-2.4612,-2.4612,-2.4612,-2.4612,-2.4612,-2.4612,-2.4612,-2.4612,-2.4465,-2.4255,-2.4016,-2.4149,-2.4036,-2.3816,0.0,0.0,0.0,0.0,0.0,0.0,0.0,-2.419,-2.419,-2.419,-2.5217,-2.6473,-2.6804,-2.782,-2.8956,-2.9551,-2.957,-2.9494,-2.9661,-2.9108,-2.835,-2.777,-2.6884,0.0,0.0,-2.7158,-2.7587,-2.8969,-2.9381,-2.9626,-2.9954,0.0,0.0,0.0,0.0,-3.039,0.0,0.0,0.0,0.0,0.0,0.0,0.0,-3.1874,-3.1792,-3.1973,-3.1269,-3.0878,-3.0878,-3.0743,-3.0684,-3.0684,-3.0633,-3.0606,-3.0606,-3.0587,-3.0547,-3.0498,-3.0434,-3.0372,-3.0323,-3.0286,0.0,-3.0286,-3.0286,-3.0286,-3.0286,-3.0311,-3.0323,-3.0343,-3.0379,-3.0222,-2.9999,0.0,0.0,0.0,0.0,0.0,0.0,0.0,0.0,0.0,0.0,-2.4339,-2.4339,0.0,0.0,0.0,0.0,0.0,0.0,0.0,0.0,0.0,0.0,0.0,0.0,0.0,-2.419,-2.419,-2.419,0.0,-2.419,-2.419,-2.419,-2.419,-2.419,-2.419,-2.419,-2.419,-2.4016,-2.3855,-2.3714,-2.3876,-2.3735,0.0,0.0,0.0,0.0,0.0,0.0,0.0,0.0,-2.4054,-2.419,-2.419,-2.5309,-2.6615,-2.6722,-2.7822,-2.9044,-2.9272,-2.927,-2.9114,-2.8795,-2.8109,-2.7401,-2.6972,0.0,0.0,0.0,-2.7093,-2.7611,-2.8426,0.0,0.0,0.0,0.0,0.0,0.0,0.0,0.0,0.0,0.0,0.0,0.0,0.0,0.0,-3.2512,-3.2105,-3.1909,-3.2096,-3.1346,-3.0898,-3.0898,-3.0837,-3.0795,-3.0795,-3.0762,-3.0755,-3.0755,-3.0693,-3.0882,-3.1279,-3.1236,-3.1457,-3.1861,-3.1861,-3.1861,-3.1861,-3.1861,-3.1581,-3.1174,-3.1174,-3.0895,-3.0498,-3.0498,-3.0424,-3.0317,0.0,0.0,0.0,0.0,0.0,0.0,0.0,-2.419,-2.419,-2.419,-2.419,-2.419,-2.419,-2.419,0.0,0.0,0.0,0.0,0.0,0.0,0.0,0.0,0.0,0.0,0.0,0.0,0.0,-2.419,-2.419,0.0,0.0,0.0,0.0,0.0,-2.3996,-2.3996,-2.3976,-2.3692,-2.3544,0.0,0.0,-2.3392,0.0,0.0,0.0,0.0,0.0,0.0,0.0,0.0,-2.3816,-2.4074,-2.4016,-2.5082,-2.6374,-2.6557,-2.7622,-2.8796,-2.8938,-2.8865,-2.8594,-2.7952,-2.7071,-2.6337,-2.6337,-2.5713,0.0,0.0,-2.6851,-2.7328,-2.7512,0.0,-2.9072,0.0,0.0,0.0,0.0,0.0,0.0,0.0,0.0,0.0,0.0,0.0,0.0,-3.2703,-3.2155,-3.1783,-3.1699,-3.1161,-3.0858,-3.0858,-3.0898,-3.0898,-3.0898,-3.0878,-3.0858,-3.0858,-3.0741,-3.1128,-3.1965,-3.19,-3.2346,-3.3141,-3.3141,-3.3141,-3.3141,-3.3141,-3.2732,-3.2104,-3.1924,-3.1436,-3.0808,-3.0628,-3.055,-3.055,0.0,0.0,0.0,0.0,0.0,0.0,0.0,-2.419,-2.419,-2.419,-2.419,-2.419,-2.419,-2.419,0.0,0.0,0.0,0.0,0.0,0.0,0.0,0.0,0.0,0.0,0.0,0.0,0.0,-2.419,-2.419,0.0,0.0,0.0,0.0,0.0,0.0,-2.33,-2.33,-2.3259,0.0,0.0,0.0,0.0,0.0,0.0,0.0,0.0,0.0,0.0,0.0,0.0,0.0,-2.3692,-2.3392,-2.431,-2.564,-2.6392,0.0,0.0,-2.8792,-2.8484,-2.7879,-2.7824,-2.6649,-2.5513,-2.5513,0.0,0.0,-2.5348,-2.5568,-2.5823,-2.6576,-2.7386,-2.8009,0.0,0.0,-2.9589,0.0,0.0,0.0,0.0,0.0,0.0,0.0,0.0,0.0,-3.1465,-3.1672,-3.1499,-3.0767,-3.0716,-3.0718,-3.0718,-3.0837,-3.0898,-3.0898,-3.0771,-3.0718,-3.0718,-3.0642,-3.1031,-3.1828,-3.1811,-3.2217,-3.2929,-3.2929,-3.2929,0.0,-3.2929,-3.2871,-3.2734,-3.1992,-3.168,-3.1504,-3.0702,-3.0428,-3.0428,0.0,0.0,0.0,0.0,0.0,0.0,0.0,-2.419,-2.419,-2.419,-2.419,-2.419,-2.419,-2.419,-2.419,0.0,0.0,0.0,0.0,0.0,0.0,0.0,0.0,0.0,0.0,0.0,-2.3588,-2.3588,-2.3588,0.0,0.0,0.0,0.0,0.0,0.0,-2.3189,-2.3189,-2.2996,0.0,0.0,0.0,0.0,0.0,0.0,0.0,0.0,0.0,0.0,0.0,0.0,0.0,0.0,-2.3236,-2.3606,0.0,0.0,-2.6282,-2.7145,-2.7475,-2.7328,-2.6961,-2.6465,-2.588,-2.5234,-2.4541,0.0,-2.3928,-2.4046,-2.4455,-2.4905,-2.5211,-2.6095,-2.6945,-2.7519,-2.8188,0.0,0.0,0.0,0.0,0.0,0.0,0.0,0.0,0.0,0.0,-3.0341,-3.0562,-3.0578,-3.0252,-3.0496,-3.0648,-3.0648,-3.0689,-3.0719,-3.0719,-3.0681,-3.0648,-3.0648,-3.0617,-3.1318,-3.2649,-3.2649,-3.3341,-3.4588,-3.4588,-3.4588,0.0,-3.4588,-3.4296,-3.3828,-3.3516,-3.2736,-3.1761,-3.13,-3.0862,-3.0474,0.0,0.0,0.0,0.0,0.0,0.0,-2.419,-2.419,-2.419,-2.419,-2.419,-2.419,-2.419,-2.419,-2.419,-2.419,0.0,0.0,0.0,0.0,0.0,0.0,0.0,0.0,0.0,0.0,-2.3189,-2.3189,-2.3189,-2.3141,0.0,0.0,-2.2996,-2.2933,0.0,0.0,0.0,0.0,0.0,0.0,0.0,0.0,0.0,0.0,0.0,0.0,0.0,0.0,0.0,0.0,0.0,0.0,0.0,0.0,0.0,0.0,-2.5474,-2.6176,-2.6518,-2.6429,-2.6098,-2.555,-2.5159,-2.4689,0.0,0.0,-2.35,-2.3236,-2.3655,-2.4045,-2.4045,-2.4897,-2.5805,-2.6483,-2.712,-2.7857,-2.8871,0.0,0.0,0.0,0.0,0.0,0.0,0.0,-2.9626,-2.9626,-2.9796,-2.9908,-2.9908,-3.0179,-3.041,-3.0568,-3.0594,-3.0574,-3.051,-3.0482,-3.0432,-3.0361,-3.0345,-3.1148,-3.2656,-3.2908,-3.3799,-3.5156,-3.5484,-3.5591,0.0,-3.562,-3.5318,-3.4766,-3.442,-3.3548,-3.2387,-3.1653,-3.1086,-3.0598,0.0,0.0,0.0,0.0,0.0,0.0,0.0,-2.419,-2.419,-2.419,-2.419,-2.419,-2.419,-2.419,-2.419,-2.419,0.0,0.0,0.0,0.0,0.0,0.0,0.0,0.0,0.0,0.0,0.0,-2.3189,-2.3189,-2.3021,-2.2721,-2.2721,-2.2563,-2.231,0.0,0.0,0.0,0.0,0.0,0.0,0.0,0.0,0.0,0.0,0.0,0.0,0.0,0.0,0.0,0.0,0.0,0.0,0.0,0.0,-2.3419,0.0,-2.4901,-2.5149,-2.6289,-2.6025,-2.5421,-2.5403,-2.4559,-2.3692,0.0,0.0,-2.3189,-2.3189,-2.3206,-2.3206,-2.3206,-2.3868,-2.4539,-2.4874,-2.5592,0.0,-2.792,0.0,0.0,0.0,0.0,0.0,0.0,0.0,-2.9412,-2.9412,-2.9589,0.0,-2.9713,-2.9713,-2.9961,-3.047,-3.0561,-3.0503,-3.0305,-3.0237,-3.0068,-2.9818,-2.9737,-3.0265,-3.1344,-3.2218,-3.3058,-3.3881,-3.5,-3.535,0.0,-3.5398,-3.5507,-3.5378,-3.4247,-3.3805,-3.3544,-3.1634,-3.0903,-3.0771,0.0,0.0,0.0,0.0,0.0,0.0,0.0,-2.419,-2.419,-2.419,-2.419,-2.419,-2.419,-2.419,-2.4094,-2.3876,0.0,0.0,0.0,0.0,0.0,0.0,0.0,0.0,0.0,0.0,-2.2571,-2.2571,-2.2571,-2.2517,-2.2426,-2.2426,-2.2388,-2.231,-2.231,-2.231,0.0,0.0,0.0,0.0,0.0,0.0,0.0,0.0,0.0,0.0,0.0,0.0,0.0,0.0,0.0,0.0,0.0,0.0,0.0,-2.3237,-2.356,-2.382,-2.4162,-2.41,-2.3903,-2.3903,-2.3634,-2.33,-2.3069,0.0,-2.2815,-2.2607,-2.2571,-2.2571,-2.2571,-2.2946,-2.3482,-2.4171,-2.4637,-2.5356,0.0,0.0,0.0,0.0,0.0,0.0,0.0,0.0,-2.9134,-2.9134,-2.9353,-2.9494,-2.9494,-2.9626,-2.978,-2.9946,-2.998,-2.9961,-2.9889,-2.9867,-2.9823,-2.9739,-2.9693,-3.0182,-3.112,-3.1953,-3.2767,-3.3581,-3.4546,-3.4908,-3.4832,-3.4926,-3.4963,-3.4925,-3.4567,-3.4056,-3.3356,-3.1747,-3.0881,-3.0311,0.0,0.0,0.0,0.0,0.0,0.0,0.0,-2.419,-2.419,-2.419,-2.419,-2.4151,-2.4034,-2.4016,-2.3876,-2.3544,0.0,0.0,0.0,0.0,0.0,0.0,0.0,0.0,0.0,-2.231,-2.231,-2.231,-2.231,-2.231,-2.231,-2.231,-2.231,-2.231,-2.231,-2.231,0.0,0.0,0.0,0.0,0.0,0.0,-2.1811,0.0,0.0,0.0,0.0,0.0,0.0,0.0,0.0,0.0,0.0,0.0,0.0,0.0,-2.219,-2.2487,0.0,-2.3189,-2.3189,-2.3189,-2.3093,0.0,0.0,0.0,-2.25,-2.2321,-2.231,-2.231,-2.231,-2.2453,-2.2771,-2.3397,-2.3632,0.0,0.0,0.0,0.0,0.0,0.0,0.0,0.0,-2.8773,-2.8725,-2.8583,-2.8737,-2.8883,-2.9016,-2.9135,-2.928,-2.9436,-2.9607,-2.9661,-2.9589,-2.9589,-2.9533,-2.9436,-2.9436,-2.9776,-3.0415,-3.1107,-3.1813,-3.2577,-3.3403,-3.3859,0.0,-3.412,-3.4166,-3.4166,-3.4069,-3.3682,-3.3035,-3.1451,-3.0493,-2.9733,0.0,0.0,0.0,0.0,0.0,0.0,0.0,0.0,0.0,0.0,-2.4132,-2.4016,-2.3692,-2.3671,-2.3522,0.0,0.0,0.0,0.0,0.0,0.0,0.0,0.0,0.0,0.0,-2.231,-2.231,-2.231,-2.231,-2.231,-2.231,-2.231,-2.231,-2.231,-2.2282,0.0,0.0,0.0,0.0,0.0,0.0,0.0,0.0,0.0,0.0,0.0,0.0,0.0,0.0,0.0,0.0,0.0,0.0,0.0,0.0,0.0,0.0,0.0,0.0,-2.3052,0.0,0.0,0.0,0.0,0.0,0.0,0.0,-2.231,-2.231,-2.231,-2.231,-2.231,-2.2388,-2.2634,-2.2669,0.0,0.0,0.0,0.0,0.0,0.0,0.0,-2.835,-2.835,-2.8237,-2.7926,-2.7897,-2.802,-2.8342,-2.835,-2.854,-2.8905,-2.9339,-2.9476,-2.9332,-2.9312,-2.9163,-2.8929,-2.8929,-2.9048,-2.931,-2.9812,-3.0363,0.0,-3.1693,-3.2302,-3.2757,-3.2966,-3.3067,-3.3086,-3.2852,-3.2739,-3.2499,-3.0707,-2.9715,-2.9073,0.0,0.0,0.0,0.0,0.0,0.0,0.0,0.0,0.0,0.0,0.0,-2.3414,-2.3323,-2.3323,0.0,0.0,0.0,0.0,0.0,0.0,0.0,0.0,0.0,0.0,0.0,-2.231,-2.231,-2.231,-2.231,-2.231,-2.231,-2.231,-2.231,-2.2282,-2.1928,0.0,0.0,0.0,0.0,0.0,0.0,0.0,0.0,0.0,0.0,0.0,-2.0991,-2.0991,0.0,0.0,0.0,0.0,0.0,0.0,0.0,0.0,-2.0991,-2.1086,-2.1411,0.0,-2.1989,-2.1989,-2.2181,0.0,0.0,0.0,0.0,0.0,0.0,0.0,0.0,0.0,0.0,0.0,0.0,0.0,0.0,0.0,0.0,0.0,0.0,-2.8037,-2.8037,-2.8037,-2.7964,-2.7897,-2.7897,-2.7926,-2.7992,-2.8037,-2.8047,-2.8147,-2.8254,-2.8417,-2.8628,-2.8376,-2.8237,-2.8147,-2.8147,-2.8183,-2.8281,-2.9008,-2.9418,-2.9587,-2.9976,-3.0483,-3.104,-3.0698,-3.0872,-3.1304,-3.1248,-3.121,-3.1001,-2.9161,-2.8451,-2.8048,0.0,0.0,0.0,0.0,0.0,0.0,0.0,0.0,0.0,0.0,0.0,0.0,0.0,0.0,0.0,0.0,0.0,0.0,0.0,0.0,0.0,0.0,0.0,0.0,0.0,-2.231,-2.231,-2.231,-2.231,-2.218,-2.1974,-2.1974,-2.1869,-2.1691,-2.1446,0.0,0.0,0.0,0.0,0.0,-2.0465,0.0,0.0,0.0,0.0,0.0,-2.0413,-2.0413,0.0,-2.0413,-2.0413,-2.0413,0.0,0.0,0.0,0.0,-2.0413,-2.0413,-2.0413,-2.0846,-2.1337,-2.1337,-2.1524,-2.1691,0.0,0.0,0.0,0.0,0.0,0.0,0.0,0.0,0.0,0.0,0.0,0.0,0.0,0.0,0.0,0.0,0.0,-2.7619,0.0,-2.7619,-2.753,-2.7348,-2.7348,-2.7409,-2.7619,-2.7619,-2.7707,-2.7897,-2.7477,-2.7549,-2.8156,-2.7992,-2.7776,-2.7531,-2.7531,-2.7407,-2.7191,-2.7469,-2.7751,-2.808,-2.8046,-2.844,-2.9072,-2.9104,-2.9334,-2.9691,-2.998,-3.0112,-2.9865,-2.7948,-2.6856,-2.6123,0.0,0.0,0.0,0.0,0.0,0.0,0.0,0.0,0.0,0.0,0.0,0.0,0.0,0.0,0.0,0.0,0.0,0.0,0.0,0.0,0.0,0.0,0.0,-2.231,-2.231,-2.231,-2.231,-2.231,-2.2237,-2.2003,-2.1582,-2.1521,-2.1275,-2.0894,-2.0894,0.0,0.0,0.0,0.0,0.0,-1.9839,0.0,0.0,0.0,0.0,0.0,0.0,0.0,0.0,-1.969,-1.969,-1.969,-1.969,0.0,0.0,0.0,0.0,0.0,-1.969,-2.0243,-2.0829,-2.0862,-2.0959,-2.0991,0.0,0.0,0.0,0.0,0.0,0.0,0.0,0.0,0.0,0.0,0.0,0.0,0.0,0.0,0.0,0.0,0.0,0.0,-2.6985,-2.6985,-2.6822,-2.6505,-2.647,-2.6624,-2.6952,-2.6985,-2.7126,-2.7495,-2.672,-2.6687,-2.7495,-2.7495,-2.7243,-2.6813,-2.6813,-2.6568,-2.6101,-2.5818,-2.6032,-2.6623,-2.611,0.0,-2.7125,-2.764,-2.7886,-2.8,-2.8697,-2.8919,-2.8529,-2.6489,-2.5055,-2.3903,0.0,0.0,0.0,0.0,0.0,0.0,0.0,0.0,0.0,0.0,0.0,0.0,0.0,0.0,0.0,0.0,0.0,0.0,0.0,0.0,0.0,0.0,-2.231,-2.231,-2.231,-2.231,-2.231,-2.231,-2.1899,-2.1658,-2.1582,-2.1244,-2.0846,-2.0416,-2.0416,-2.0227,0.0,0.0,0.0,0.0,-1.9711,0.0,0.0,0.0,0.0,0.0,0.0,0.0,0.0,-1.969,-1.969,-1.969,-1.969,0.0,0.0,0.0,0.0,0.0,-1.969,-1.9782,-1.998,-2.0314,-2.0731,-2.0991,0.0,0.0,0.0,0.0,0.0,0.0,0.0,0.0,0.0,0.0,0.0,0.0,0.0,0.0,0.0,-2.4337,0.0,-2.5529,-2.5529,-2.5529,-2.5508,-2.5433,-2.5449,-2.547,-2.5529,-2.5529,-2.5566,-2.5623,-2.5475,-2.5491,-2.5623,-2.5623,-2.5587,-2.5496,-2.5496,-2.5459,-2.5347,-2.5341,-2.5368,-2.5388,0.0,-2.4606,-2.5687,-2.539,-2.5555,-2.6,-2.6674,-2.6558,-2.5788,-2.3799,-2.2956,-2.2417,0.0,0.0,0.0,0.0,0.0,0.0,0.0,0.0,0.0,0.0,0.0,0.0,0.0,0.0,0.0,0.0,0.0,0.0,0.0,0.0,0.0,0.0,-2.2061,-2.1928,-2.1928,-2.1928,-2.1811,-2.1584,-2.1385,-2.1134,-2.0894,-2.0499,-2.0174,-1.9965,-1.9965,-1.9874,-1.969,0.0,0.0,0.0,0.0,0.0,0.0,0.0,0.0,0.0,0.0,0.0,0.0,0.0,-1.969,-1.969,-1.969,0.0,0.0,0.0,0.0,0.0,-1.969,-1.969,-1.9747,-1.9945,-2.0139,-2.0311,0.0,0.0,0.0,0.0,0.0,0.0,0.0,0.0,0.0,0.0,0.0,0.0,0.0,-2.2718,-2.3519,0.0,0.0,-2.5221,-2.5221,-2.5221,-2.5221,-2.5221,-2.5221,-2.5221,-2.5221,-2.5221,-2.5221,-2.5221,-2.491,-2.4776,-2.4776,-2.4471,-2.4471,-2.4776,-2.4776,-2.4632,-2.4348,-2.4348,-2.4168,-2.3819,0.0,-2.3201,-2.3418,-2.3535,-2.3942,-2.4526,-2.5184,-2.542,-2.4997,-2.1873,-1.9833,-1.8372,0.0,0.0,0.0,0.0,0.0,0.0,0.0,0.0,0.0,0.0,0.0,0.0,0.0,0.0,0.0,0.0,0.0,0.0,0.0,0.0,-2.2106,-2.1991,-2.1628,-2.1491,-2.1582,-2.1491,-2.1306,-2.0991,-2.0894,-2.0583,-2.0158,-1.9839,-1.969,-1.969,-1.969,-1.969,-1.969,-1.969,0.0,0.0,0.0,0.0,0.0,0.0,0.0,0.0,0.0,0.0,0.0,0.0,0.0,0.0,0.0,0.0,0.0,-1.969,-1.969,-1.969,-1.969,-1.969,-1.969,-1.969,0.0,0.0,0.0,0.0,0.0,0.0,0.0,0.0,0.0,0.0,0.0,0.0,0.0,-2.1327,-2.213,-2.2664,-2.3437,-2.4674,-2.4831,-2.4831,-2.4831,-2.4831,-2.4831,-2.4831,-2.4831,-2.4831,-2.4831,-2.4831,-2.4776,-2.4641,-2.421,-2.3918,-2.3761,-2.3362,-2.342,-2.4002,-2.4002,-2.3706,-2.3172,-2.3172,-2.2905,-2.2452,-2.2146,-2.1791,-2.1472,-2.1839,-2.2293,-2.2844,-2.346,-2.3572,-2.3,-1.9784,-1.7009,-1.4662,0.0,0.0,0.0,0.0,0.0,0.0,0.0,0.0,0.0,0.0,0.0,0.0,0.0,0.0,0.0,0.0,0.0,0.0,0.0,0.0,-2.146,-2.1103,-2.1055,-2.1213,-2.1582,-2.1244,-2.1039,-2.0991,-2.055,-2.0158,-1.9747,-1.9711,-1.969,-1.969,-1.969,-1.969,-1.969,-1.969,-1.969,0.0,0.0,0.0,0.0,0.0,0.0,0.0,0.0,0.0,0.0,0.0,0.0,0.0,0.0,0.0,-1.969,-1.969,-1.969,-1.969,-1.969,-1.969,-1.969,-1.969,0.0,0.0,0.0,0.0,0.0,0.0,0.0,0.0,0.0,0.0,0.0,0.0,0.0,-2.1393,-2.1693,0.0,-2.2972,-2.3634,-2.3724,-2.3724,-2.3724,-2.3724,-2.3724,-2.3724,-2.3724,-2.3724,-2.3724,-2.3724,-2.345,-2.2905,-2.2815,-2.2529,-2.1885,-2.1838,-2.2193,-2.283,-2.283,-2.2483,-2.1838,-2.1838,-2.1791,-2.1697,-2.0455,-2.023,-2.0614,-2.0067,-2.0024,-2.043,-2.1005,-1.9667,-1.7389,-1.7081,-1.5373,-1.3053,0.0,0.0,0.0,0.0,0.0,0.0,0.0,0.0,0.0,0.0,0.0,0.0,0.0,0.0,0.0,0.0,0.0,0.0,0.0,0.0,-2.115,-2.1007,-2.0715,-2.0649,-2.0797,-2.0649,-2.0431,-2.0174,-2.0,-1.9839,-1.969,-1.969,-1.969,-1.969,-1.969,-1.953,-1.9207,-1.9207,-1.9006,-1.8688,-1.8688,0.0,0.0,0.0,0.0,0.0,0.0,0.0,0.0,0.0,-1.8535,-1.8688,-1.8688,-1.893,-1.9207,-1.9207,-1.9442,-1.969,-1.969,-1.969,-1.9603,-1.9281,0.0,0.0,0.0,0.0,0.0,0.0,-1.9207,0.0,0.0,0.0,0.0,0.0,-2.047,-2.1092,-2.1644,-2.2263,-2.2906,-2.3535,-2.3595,-2.3465,-2.3054,-2.3377,-2.326,-2.2455,-2.2801,-2.286,-2.2455,-2.2409,-2.2317,-2.21,-2.1608,-2.1295,-2.0992,-2.0562,-2.0252,-2.0165,-2.0992,-2.1247,-2.0992,-2.0548,-2.0152,-1.9724,-1.9236,-1.8936,-1.8684,-1.7943,-1.7975,-1.8627,-1.8838,-1.7731,-1.586,-1.5341,-1.3537,-1.1308,0.0,0.0,0.0,0.0,0.0,0.0,0.0,0.0,0.0,0.0,0.0,0.0,0.0,0.0,0.0,0.0,0.0,0.0,0.0,-2.0797,-2.0731,-2.0614,-2.0296,-2.0124,-2.0124,-1.9934,-1.9808,-1.969,-1.953,-1.9442,-1.9442,-1.9281,-1.9207,-1.9207,-1.9207,-1.9006,-1.865,-1.865,-1.8458,-1.8106,-1.8106,-1.7987,0.0,0.0,0.0,0.0,0.0,0.0,0.0,0.0,-1.7947,-1.8106,-1.8106,-1.8341,-1.865,-1.865,-1.8893,-1.9207,-1.9207,-1.9332,-1.9332,0.0,0.0,0.0,0.0,0.0,0.0,0.0,-1.8779,0.0,0.0,0.0,0.0,0.0,-1.9899,-2.0615,-2.1053,-2.1827,-2.2527,-2.2936,-2.298,-2.2846,-2.2438,-2.2756,-2.2651,-2.1744,-2.2146,-2.2193,-2.1697,-2.1697,-2.1615,-2.1424,-2.0726,-2.0191,-1.999,-1.929,-1.8677,-1.83,-1.9004,-1.9405,-1.9623,-1.9135,-1.8677,-1.8247,-1.777,-1.7313,-1.6824,-1.5846,-1.5926,-1.6699,-1.6844,-1.5815,-1.4197,-1.3555,-1.1797,-0.9655,0.0,0.0,0.0,0.0,0.0,0.0,0.0,0.0,0.0,0.0,0.0,0.0,0.0,0.0,0.0,0.0,0.0,0.0,0.0,-2.028,-2.0124,-1.9711,-1.969,-1.969,-1.969,-1.9169,-1.9169,-1.969,-1.9169,-1.8893,-1.8893,-1.8341,-1.8106,-1.8106,-1.8106,-1.8106,-1.8106,-1.8106,-1.8106,-1.8066,-1.8066,-1.7787,-1.7312,0.0,0.0,0.0,0.0,0.0,0.0,0.0,-1.7666,-1.8066,-1.8066,-1.8106,-1.8106,-1.8106,-1.8106,-1.8106,-1.8106,-1.8496,-1.8765,0.0,0.0,0.0,0.0,0.0,0.0,0.0,0.0,-1.8727,-1.8224,0.0,0.0,-1.8185,-1.9114,-1.9901,-1.9901,-2.0937,-2.1697,-2.1697,-2.1697,-2.1697,-2.1697,-2.1697,-2.1697,-2.1697,-2.1697,-2.1697,-2.1649,-2.1649,-2.1376,-2.0795,-2.0042,-1.9362,-1.8715,-1.7961,-1.7578,-1.7578,-1.681,-1.6866,-1.7578,-1.7578,-1.7567,-1.7457,-1.5944,-1.5303,-1.5158,-1.3924,-1.3835,-1.4514,-1.4952,-1.3782,-1.1757,-1.16,-1.0165,-0.8063,0.0,0.0,0.0,0.0,0.0,0.0,0.0,0.0,0.0,0.0,0.0,0.0,0.0,0.0,0.0,0.0,0.0,0.0,0.0,-1.9874,-1.9645,-1.9169,-1.9132,-1.8968,-1.8574,-1.8419,-1.8419,-1.8574,-1.8419,-1.8341,-1.8341,-1.8185,-1.8106,-1.8106,0.0,-1.7907,-1.7544,-1.7544,-1.7312,-1.6951,-1.6951,-1.6879,-1.6752,0.0,0.0,0.0,0.0,0.0,0.0,0.0,0.0,0.0,-1.6951,-1.7229,-1.7544,-1.7544,-1.7787,-1.8106,-1.8106,-1.8224,0.0,0.0,0.0,0.0,0.0,0.0,0.0,0.0,0.0,-1.8302,-1.8145,0.0,0.0,-1.8145,-1.9114,-1.9901,-1.9901,-2.0937,-2.1697,-2.1697,-2.1697,-2.152,-2.1113,-2.1424,-2.1315,-2.0421,-2.0818,-2.0644,-1.9659,-1.9608,-1.9245,-1.8584,-1.7818,-1.7335,-1.7135,-1.6415,-1.5776,-1.5177,-1.4963,-1.5293,-1.5944,-1.5458,-1.4876,-1.4337,-1.387,-1.37,-1.3631,-1.3091,-1.281,-1.2657,-1.2217,-1.1563,-1.0718,-0.9816,-0.8541,-0.7247,0.0,0.0,0.0,0.0,0.0,0.0,0.0,0.0,0.0,0.0,-2.0296,0.0,0.0,0.0,0.0,0.0,0.0,0.0,0.0,0.0,-1.893,-1.8612,-1.8574,-1.8341,-1.7787,-1.7787,-1.7666,-1.7463,-1.7666,-1.7787,-1.7787,-1.7544,-1.7463,-1.7463,0.0,-1.7271,-1.6993,-1.6993,-1.6795,-1.6522,-1.6522,-1.6522,-1.6522,0.0,0.0,0.0,0.0,0.0,0.0,0.0,0.0,0.0,-1.6522,-1.671,-1.6993,-1.6993,-1.7188,-1.7463,-1.7463,-1.7626,0.0,0.0,0.0,0.0,0.0,0.0,0.0,0.0,0.0,-1.838,-1.8182,-1.8296,0.0,-1.8182,-1.891,-1.9522,-1.9522,-2.0101,-2.0505,-2.0505,-2.023,-1.9965,-1.9698,-1.9995,-1.9806,-1.8908,-1.9183,-1.8995,-1.8078,-1.8037,-1.7917,-1.7622,-1.6866,-1.6492,-1.6492,-1.5449,-1.4688,-1.4213,-1.3906,-1.376,-1.3895,-1.3768,-1.3485,-1.3009,-1.2634,-1.2484,-1.2326,-1.1787,-1.151,-1.1386,-1.0507,-0.9878,-0.9269,-0.8379,-0.7425,-0.6391,0.0,0.0,0.0,0.0,0.0,0.0,0.0,0.0,0.0,0.0,-1.9639,-1.9639,0.0,0.0,0.0,0.0,0.0,0.0,0.0,0.0,-1.8066,-1.8027,-1.7987,-1.7747,-1.7229,-1.7229,-1.6993,-1.6522,-1.6993,-1.7229,-1.7229,0.0,-1.6522,-1.6522,0.0,-1.6522,-1.6522,-1.6522,-1.6522,-1.6522,-1.6522,-1.6522,-1.6522,-1.6522,0.0,0.0,0.0,0.0,0.0,0.0,0.0,0.0,-1.6522,-1.6522,-1.6522,-1.6522,-1.6522,-1.6522,-1.6522,0.0,0.0,0.0,0.0,0.0,0.0,0.0,0.0,-1.7451,0.0,-1.8773,-1.8298,-1.8601,-1.8773,-1.8298,-1.8668,-1.8983,-1.8983,-1.8833,-1.8715,-1.8715,-1.8024,-1.7603,-1.7772,-1.7792,-1.763,-1.7265,-1.723,-1.7135,-1.6868,-1.683,-1.6946,-1.7214,-1.662,-1.6255,-1.6187,-1.4845,-1.4145,-1.3965,-1.3243,-1.2451,-1.1578,-1.2512,-1.2826,-1.2634,-1.1826,-1.1309,-1.1073,-1.0158,-1.0099,-1.0404,-0.9437,-0.838,-0.7423,-0.7074,-0.6301,-0.5399,0.0,0.0,0.0,0.0,0.0,0.0,0.0,0.0,0.0,0.0,0.0,0.0,0.0,0.0,0.0,0.0,0.0,0.0,0.0,0.0,-1.7907,-1.7504,-1.7076,-1.6795,-1.668,-1.668,-1.6637,-1.6522,-1.6637,-1.668,0.0,0.0,0.0,-1.6522,0.0,-1.6522,-1.6522,-1.6522,-1.6522,-1.6522,-1.6522,-1.6522,-1.6522,-1.6522,-1.6522,0.0,0.0,0.0,0.0,0.0,0.0,0.0,-1.6522,-1.6522,-1.6522,-1.6522,-1.6522,-1.6522,0.0,-1.6595,0.0,0.0,0.0,0.0,0.0,0.0,0.0,-1.8028,-1.821,-1.8333,-1.8204,-1.8298,-1.8333,-1.8204,-1.8668,-1.8983,-1.8983,-1.8833,-1.8715,-1.8715,-1.7779,-1.7134,-1.7179,-1.6928,-1.6715,-1.66,-1.66,-1.6272,-1.5633,-1.5326,-1.4958,-1.4468,-1.4627,-1.4373,-1.3777,-1.4025,-1.3597,-1.232,-1.2135,-1.1274,-0.9894,-1.1399,-1.1329,-1.0021,-0.9175,-0.8937,-0.9184,-0.8974,-0.8645,-0.825,-0.7275,-0.62,-0.5177,-0.4218,-0.3687,-0.3467,0.0,0.0,0.0,0.0,0.0,0.0,0.0,0.0,0.0,0.0,0.0,0.0,0.0,0.0,0.0,0.0,0.0,0.0,0.0,0.0,0.0,0.0,-1.6213,-1.592,-1.5656,-1.5656,-1.5788,-1.6051,0.0,0.0,0.0,0.0,0.0,-1.6479,0.0,-1.6051,-1.6051,-1.6051,-1.6051,-1.6095,-1.638,-1.6522,-1.6466,-1.6194,-1.6051,-1.6008,-1.5744,0.0,0.0,0.0,0.0,0.0,0.0,0.0,-1.5656,-1.5656,-1.5832,-1.6051,0.0,0.0,0.0,0.0,0.0,0.0,0.0,0.0,0.0,-1.8857,-1.897,-1.8871,-1.8498,-1.8448,-1.8347,-1.7981,-1.8413,-1.8709,-1.8386,-1.823,-1.7978,-1.7404,-1.6526,-1.5882,-1.5785,-1.5563,-1.5384,-1.5154,-1.5143,-1.4786,-1.3977,-1.3719,-1.3479,-1.3159,-1.3301,-1.3314,-1.3,-1.3053,-1.2626,-1.1764,-1.0961,-0.9952,-0.8678,-0.9558,-0.9494,-0.8678,-0.8221,-0.8214,-0.8554,-0.7548,-0.7033,-0.6809,-0.528,-0.4353,-0.3799,-0.3116,-0.2896,-0.2822,0.0,0.0,0.0,0.0,0.0,0.0,0.0,0.0,0.0,0.0,0.0,0.0,0.0,0.0,0.0,0.0,0.0,0.0,0.0,0.0,0.0,0.0,-1.5454,-1.5231,-1.4698,-1.4698,-1.4926,0.0,0.0,0.0,0.0,0.0,0.0,-1.6337,0.0,-1.5454,-1.5454,-1.5454,-1.5454,-1.5499,-1.5964,-1.6194,-1.6151,-1.5632,0.0,-1.5365,-1.488,-1.4698,-1.4789,-1.5276,0.0,0.0,0.0,0.0,-1.4698,-1.4698,-1.5062,-1.5454,0.0,0.0,0.0,0.0,0.0,0.0,0.0,0.0,-1.8054,-1.9282,-1.9684,-1.9579,-1.8821,-1.8715,-1.8447,-1.7743,-1.8124,-1.8286,-1.7688,-1.7445,-1.6972,-1.604,-1.5124,-1.4483,-1.4285,-1.419,-1.3993,-1.3668,-1.3637,-1.3272,-1.2422,-1.2305,-1.2295,-1.2241,-1.2323,-1.2468,-1.2573,-1.2081,-1.1648,-1.1329,-0.9633,-0.8484,-0.7762,-0.7637,-0.7637,-0.7767,-0.747,-0.7499,-0.7703,-0.5789,-0.522,-0.5206,-0.3509,-0.2734,-0.2572,-0.2447,-0.2392,-0.2258,0.0,0.0,0.0,0.0,0.0,0.0,0.0,0.0,0.0,0.0,-1.7706,0.0,0.0,0.0,0.0,0.0,0.0,0.0,0.0,0.0,0.0,0.0,-1.4835,-1.4789,-1.4698,-1.4698,-1.4744,0.0,0.0,0.0,0.0,0.0,0.0,-1.5676,0.0,0.0,-1.4835,-1.4835,-1.4835,-1.4835,-1.4926,-1.4926,-1.4926,0.0,0.0,0.0,-1.4744,-1.4698,-1.4698,-1.4789,-1.4744,0.0,0.0,0.0,-1.4698,-1.4698,-1.4755,-1.4835,0.0,0.0,0.0,0.0,0.0,0.0,0.0,0.0,-1.6356,0.0,-1.9103,-1.9579,-1.8821,-1.8715,-1.8447,-1.7743,-1.7688,-1.7688,-1.7633,-1.6776,-1.6062,-1.5944,-1.4578,-1.3684,-1.3608,-1.3313,-1.3076,-1.3017,-1.3017,-1.2676,-1.1945,-1.161,-1.1285,-1.0959,-1.1305,-1.1322,-1.0926,-1.1531,-1.108,-0.9582,-0.7892,-0.6981,-0.685,-0.6075,-0.6141,-0.6793,-0.52,-0.4652,-0.4718,-0.3639,-0.2821,-0.219,-0.188,-0.1254,-0.0392,-0.0391,-0.0385,-0.0225,0.0,0.0,0.0,0.0,0.0,0.0,0.0,0.0,0.0,0.0,0.0,-1.6361,0.0,0.0,0.0,0.0,0.0,0.0,0.0,0.0,0.0,0.0,0.0,-1.4061,-1.3705,-1.3705,-1.3836,0.0,0.0,0.0,0.0,-1.4641,-1.4778,0.0,0.0,0.0,0.0,0.0,-1.419,-1.4236,-1.456,-1.4698,0.0,0.0,0.0,0.0,0.0,0.0,0.0,-1.4097,-1.3967,-1.3742,-1.4107,0.0,0.0,0.0,-1.392,0.0,-1.4606,0.0,0.0,0.0,0.0,0.0,0.0,0.0,-1.5785,-1.6923,-1.7553,-1.7934,-1.8074,-1.7743,-1.7246,-1.6472,-1.6698,-1.6781,-1.6126,-1.5962,-1.5593,-1.4673,-1.3928,-1.3418,-1.3184,-1.2988,-1.2881,-1.2881,-1.251,-1.1981,-1.1266,-1.0764,-1.037,-1.0172,-1.0312,-1.0442,-1.0618,-1.0471,-0.9564,-0.7832,-0.7046,-0.6461,-0.5943,-0.5017,-0.5084,-0.5885,-0.4546,-0.4106,-0.4075,-0.2613,-0.1839,-0.1568,-0.0941,-0.0392,0.0,0.0,0.0386,0.0904,0.0,0.0,0.0,0.0,0.0,0.0,0.0,0.0,0.0,0.0,0.0,0.0,0.0,0.0,0.0,0.0,0.0,0.0,0.0,0.0,0.0,0.0,0.0,0.0,-1.2929,-1.2881,0.0,0.0,0.0,0.0,-1.4247,-1.3789,-1.3826,0.0,-1.3779,0.0,0.0,0.0,0.0,0.0,0.0,0.0,0.0,0.0,0.0,0.0,0.0,0.0,0.0,0.0,0.0,-1.2968,-1.342,-1.3238,0.0,0.0,0.0,0.0,0.0,0.0,0.0,0.0,0.0,0.0,0.0,0.0,-1.5055,0.0,-1.5808,-1.595,-1.6828,-1.6654,-1.6048,-1.5212,-1.5622,-1.5711,-1.4788,-1.4992,-1.4828,-1.3625,-1.3246,-1.2953,-1.2646,-1.2608,-1.2559,-1.2363,-1.203,-1.1408,-1.061,-1.0064,-0.9692,-0.9363,-0.9382,-0.9535,-0.9964,-0.9069,-0.7962,-0.6719,-0.6256,-0.5672,-0.5024,-0.4082,-0.4082,-0.4631,-0.3749,-0.3349,-0.3346,-0.1655,-0.108,-0.1097,-0.0314,0.0,0.0,0.0314,0.0931,0.167,0.0,0.0,0.0,0.0,0.0,0.0,0.0,0.0,0.0,0.0,0.0,0.0,0.0,0.0,0.0,-1.4698,0.0,0.0,0.0,0.0,0.0,0.0,0.0,0.0,0.0,0.0,0.0,0.0,0.0,0.0,-1.2968,-1.2968,-1.2968,-1.2968,-1.2968,-1.2978,-1.2978,0.0,0.0,0.0,0.0,0.0,0.0,0.0,0.0,0.0,0.0,0.0,0.0,0.0,0.0,0.0,0.0,0.0,0.0,0.0,0.0,0.0,0.0,0.0,0.0,0.0,0.0,0.0,0.0,0.0,0.0,-1.4447,-1.4124,-1.3971,-1.5122,-1.5669,-1.5515,-1.4365,-1.4541,-1.4714,-1.4228,-1.3818,-1.3606,-1.3516,-1.2557,-1.1891,-1.1864,-1.1864,-1.1566,-1.0965,-1.1466,-1.1216,-0.9917,-0.9814,-0.9409,-0.8516,-0.8475,-0.8359,-0.8151,-0.7242,-0.6785,-0.6654,-0.4938,-0.4148,-0.4015,-0.3145,-0.2811,-0.282,-0.1844,-0.1452,-0.1386,-0.0461,-0.0078,-0.0079,0.0,0.0,0.0157,0.1176,0.1566,0.1864,0.0,0.0,0.0,0.0,0.0,0.0,0.0,0.0,0.0,0.0,0.0,0.0,0.0,-1.3789,-1.3515,-1.3515,-1.3515,0.0,0.0,0.0,0.0,0.0,0.0,0.0,0.0,0.0,0.0,0.0,0.0,-1.2881,-1.2881,-1.2881,-1.2881,-1.2881,-1.2881,-1.2881,-1.2881,-1.2881,0.0,0.0,0.0,0.0,0.0,0.0,0.0,0.0,0.0,0.0,0.0,0.0,0.0,0.0,0.0,0.0,0.0,0.0,0.0,0.0,0.0,0.0,0.0,0.0,0.0,0.0,0.0,-1.2881,-1.3017,-1.34,-1.3293,-1.3244,-1.3631,-1.4294,-1.462,-1.416,-1.4268,-1.4219,-1.3789,-1.3603,-1.3237,-1.2488,-1.2054,-1.1616,-1.1216,-1.1166,-1.1065,-1.0813,-1.0618,-1.032,-0.9814,-0.8928,-0.844,-0.8399,-0.794,-0.7502,-0.7172,-0.685,-0.6125,-0.4938,-0.4278,-0.368,-0.3145,-0.2209,-0.1808,-0.1747,-0.0853,-0.08,-0.1241,-0.0385,0.0,0.0079,0.0784,0.102,0.1176,0.219,0.2969,0.3657,0.0,0.0,0.0,0.0,0.0,0.0,0.0,0.0,0.0,0.0,0.0,0.0,0.0,0.0,-1.2881,-1.2881,-1.2881,-1.2881,-1.2881,-1.2881,0.0,0.0,0.0,0.0,0.0,0.0,0.0,0.0,0.0,0.0,0.0,-1.2881,-1.2881,-1.2891,-1.3027,-1.3018,0.0,0.0,0.0,-1.3105,0.0,0.0,-1.325,0.0,0.0,0.0,0.0,0.0,0.0,0.0,0.0,0.0,0.0,0.0,0.0,0.0,0.0,0.0,0.0,0.0,0.0,0.0,0.0,-1.2881,-1.2881,0.0,-1.2881,-1.2881,-1.2881,-1.2881,-1.2881,-1.334,-1.3711,-1.3711,-1.3828,-1.3779,-1.3359,-1.3301,-1.2924,-1.19,-1.1616,-1.1216,-1.0517,-1.0466,-1.0364,-1.0167,-0.9917,-0.9607,-0.9138,-0.8196,-0.7677,-0.7575,-0.7016,-0.6535,-0.6264,-0.5932,-0.5203,-0.4015,-0.3413,-0.2811,-0.221,-0.1275,-0.0873,-0.0808,-0.0285,-0.0364,-0.0803,-0.0231,0.0236,0.0628,0.1333,0.1802,0.2192,0.3281,0.4062,0.4748,0.0,0.0,0.0,0.0,0.0,0.0,0.0,0.0,0.0,0.0,0.0,0.0,0.0,0.0,0.0,-1.2881,-1.2881,-1.2881,-1.2881,-1.2881,0.0,0.0,0.0,0.0,0.0,0.0,0.0,0.0,0.0,0.0,0.0,0.0,-1.29,-1.2861,-1.328,-1.325,-1.289,0.0,-1.3474,-1.3462,0.0,-1.3304,-1.3917,0.0,0.0,0.0,-1.3141,-1.2681,0.0,-1.1542,0.0,0.0,0.0,0.0,0.0,0.0,0.0,0.0,0.0,0.0,0.0,0.0,0.0,0.0,-1.2881,0.0,-1.2881,-1.2881,-1.2881,-1.2881,-1.2881,-1.2881,-1.2881,-1.2822,-1.3223,-1.335,-1.2939,-1.2881,-1.2608,-1.1864,-1.1166,-1.0517,-0.9814,-0.9762,-0.951,-0.8857,-0.9361,-0.9138,-0.7777,-0.7681,-0.7139,-0.598,-0.5585,-0.5428,-0.5428,-0.4486,-0.4015,-0.3949,-0.2143,-0.1273,-0.1207,-0.0404,0.0,0.0,0.0,0.0073,0.0073,0.0077,0.0628,0.1568,0.1646,0.2268,0.3279,0.4373,0.4766,0.4905,0.0,0.0,0.0,0.0,0.0,0.0,0.0,0.0,0.0,0.0,0.0,0.0,0.0,0.0,-1.2881,-1.2881,-1.2881,-1.2881,-1.2881,-1.2881,-1.2881,-1.2881,-1.2881,-1.2881,0.0,0.0,0.0,0.0,0.0,0.0,0.0,0.0,0.0,0.0,-1.2689,-1.269,-1.21,-1.2762,0.0,0.0,-1.2312,-1.218,0.0,0.0,0.0,0.0,0.0,-1.1567,-1.1809,0.0,-1.0973,-1.1168,0.0,0.0,0.0,0.0,0.0,0.0,-1.1384,0.0,0.0,0.0,0.0,0.0,-1.2774,-1.2881,-1.2881,-1.2881,-1.2881,-1.2725,-1.2187,-1.208,-1.1931,-1.1484,-1.2348,-1.3018,-1.29,-1.2452,-1.1832,-1.1166,-1.0466,-0.9814,-0.9159,-0.9061,-0.9008,0.0,-0.8468,-0.809,-0.7723,-0.6946,-0.6066,-0.5214,-0.5335,-0.5428,-0.5428,-0.4486,-0.368,-0.3078,-0.1876,-0.0939,-0.0337,-0.0135,0.0,0.0068,0.0854,0.1164,0.1168,0.1153,0.1333,0.1724,0.3283,0.3984,0.4375,0.5473,0.5867,0.586,0.0,0.0,0.0,0.0,0.0,0.0,0.0,0.0,0.0,0.0,0.0,0.0,0.0,0.0,0.0,-1.2881,-1.2881,-1.2881,-1.2881,-1.2881,-1.2774,-1.2452,-1.2725,-1.2627,-1.2049,-1.1873,-1.1746,-1.1601,-1.1191,-1.1066,-1.117,-1.1873,-1.1922,0.0,0.0,0.0,0.0,0.0,0.0,0.0,-1.201,0.0,0.0,-1.1892,-1.195,0.0,0.0,0.0,-1.1441,-1.0712,-1.0721,0.0,0.0,0.0,0.0,0.0,0.0,0.0,0.0,0.0,0.0,0.0,0.0,0.0,-1.194,-1.1999,-1.1999,-1.1999,-1.1999,-1.1891,-1.1466,-1.1366,-1.1266,-1.0864,-1.1484,-1.1999,-1.1999,-1.1625,-1.1116,-1.0466,-1.0064,-0.951,-0.8857,-0.8804,-0.8699,-0.8374,-0.7937,-0.745,-0.6794,-0.5968,-0.5336,-0.4918,-0.5206,-0.5226,-0.4821,-0.3882,-0.3011,-0.2075,-0.1208,-0.0471,0.0,0.0,0.0202,0.0607,0.128,0.1816,0.2188,0.2683,0.2893,0.3049,0.4219,0.4999,0.547,0.6099,0.6338,0.6338,0.0,0.0,0.0,0.0,0.0,0.0,0.0,0.0,0.0,0.0,0.0,0.0,0.0,0.0,0.0,0.0,-1.2811,-1.2761,-1.2761,-1.2761,0.0,-1.184,-1.2435,-1.2186,-1.0937,-1.1387,-1.155,-1.121,-1.1156,-1.1263,-1.1455,-1.16,-1.1624,-1.1527,0.0,0.0,0.0,0.0,0.0,-1.215,-1.1783,-1.2081,0.0,0.0,-1.2081,-1.2642,-1.1896,-1.1463,-1.1092,-1.0356,-1.0349,0.0,0.0,0.0,0.0,0.0,-1.0624,0.0,0.0,0.0,0.0,0.0,0.0,0.0,-1.0762,-1.0813,-1.0813,-1.0813,-1.0813,-1.0762,-1.0712,-1.0669,-1.0661,-1.061,-1.0568,-1.0618,-1.0762,-1.0762,-1.0466,-0.9865,-0.971,-0.9465,-0.8857,-0.8752,-0.8427,-0.7723,-0.7557,-0.6848,-0.5487,-0.51,-0.4918,-0.4918,-0.5142,-0.4821,-0.4015,-0.3011,-0.2143,-0.1273,-0.0404,0.0,0.0,0.0067,0.0538,0.1344,0.1775,0.2397,0.3207,0.4365,0.4844,0.4688,0.4844,0.5473,0.6338,0.6338,0.6338,0.6338,0.0,0.0,0.0,0.0,0.0,0.0,0.0,0.0,0.0,0.0,0.0,0.0,0.0,0.0,0.0,0.0,-1.2303,-1.1906,-1.1906,-1.1906,-1.1852,-1.1734,-1.1852,-1.1797,-1.1524,-1.1138,-1.0908,-1.0808,-1.0258,-1.0015,-1.0135,-1.0945,-1.1005,-1.0446,0.0,0.0,0.0,0.0,0.0,-1.0968,-1.0843,0.0,-1.1052,-1.0863,-1.0926,-1.1052,-1.0863,-1.0766,-1.0677,-1.0255,-1.0134,-1.0152,0.0,0.0,0.0,0.0,0.0,0.0,0.0,0.0,0.0,0.0,0.0,0.0,-1.0661,-1.0813,-1.0813,-1.0813,-1.0813,-1.0669,-1.0115,-1.0012,-0.9814,-0.9263,-0.9211,-0.9562,-1.0669,-1.0364,-0.9969,-0.9814,-0.9309,-0.8962,-0.8804,-0.8268,-0.783,-0.7723,-0.6573,-0.5542,-0.4732,-0.481,-0.4918,-0.4918,-0.4487,-0.4217,-0.4015,-0.2409,-0.1474,-0.1273,-0.0404,0.0,0.0,0.0739,0.114,0.1412,0.3187,0.4058,0.4292,0.5515,0.5473,0.4766,0.5631,0.6103,0.6338,0.6338,0.6338,0.6416,0.0,0.0,0.0,0.0,0.0,0.0,0.0,0.0,0.0,0.0,0.0,0.0,0.0,0.0,0.0,0.0,0.0,0.0,0.0,0.0,-1.1559,-1.123,-1.1511,-1.1399,-1.0736,-1.0679,-1.0595,-1.0411,-1.0071,-0.9973,-1.0181,-1.0683,-1.0753,-1.0341,0.0,0.0,0.0,0.0,-1.0624,-1.0624,-1.0624,0.0,-1.0624,-1.0624,-1.0624,-1.0624,-1.0624,-1.0624,-1.0598,-1.0388,-1.0341,0.0,0.0,-0.99,-0.984,0.0,-0.9459,-0.9432,0.0,0.0,0.0,-0.9666,0.0,0.0,0.0,-0.9881,-0.9814,-0.9814,-0.9814,-0.9718,-0.9361,-0.9309,-0.9211,-0.8857,-0.8804,-0.9061,-0.9718,-0.951,-0.9309,-0.9309,-0.9008,-0.8804,-0.8804,-0.8156,-0.7396,-0.6686,-0.5601,-0.4838,-0.4515,-0.4752,-0.4674,-0.4241,-0.4094,-0.3547,-0.2678,-0.1742,-0.1073,-0.0672,0.0202,0.0672,0.0672,0.1609,0.2294,0.2809,0.3989,0.4818,0.5338,0.601,0.5944,0.555,0.6103,0.6338,0.6338,0.6338,0.6338,0.6338,-1.3036,0.0,0.0,0.0,0.0,0.0,0.0,0.0,0.0,0.0,0.0,0.0,0.0,0.0,0.0,0.0,0.0,0.0,0.0,0.0,0.0,-1.0697,-1.1203,-1.098,-0.9912,-1.042,-1.054,-1.02,-1.02,-1.0321,-1.0624,-1.0624,-1.0624,0.0,0.0,0.0,0.0,0.0,0.0,-1.0386,0.0,-1.056,-1.0648,-1.0701,-1.0728,-1.0722,-1.0533,-1.045,-1.0437,-1.0384,-1.0364,-1.0325,-1.0212,-1.02,0.0,0.0,0.0,0.0,0.0,0.0,0.0,0.0,0.0,-0.9269,0.0,0.0,0.0,-0.8978,-0.8978,0.0,0.0,0.0,0.0,0.0,0.0,0.0,0.0,-0.848,0.0,-0.8586,-0.848,-0.8374,-0.8374,-0.7723,-0.674,-0.5433,-0.4787,-0.4463,-0.4294,-0.4513,-0.4241,-0.3439,-0.3445,-0.2811,-0.134,-0.114,-0.0672,0.0,0.0873,0.1273,0.134,0.2477,0.3398,0.4191,0.4588,0.5222,0.604,0.6196,0.6338,0.6338,0.6338,0.6338,0.6338,0.6338,0.6416,0.6644,-1.2998,-1.2881,0.0,0.0,0.0,0.0,0.0,0.0,0.0,0.0,0.0,0.0,0.0,0.0,0.0,0.0,0.0,0.0,-1.0698,0.0,0.0,0.0,-1.0705,-1.0642,-1.0524,-1.058,-1.06,-1.0571,-1.0571,-1.0591,-1.0624,-1.0624,-1.0624,0.0,-0.9786,0.0,0.0,0.0,-0.9735,0.0,-0.9906,-1.0343,0.0,-1.1229,-1.1329,-1.116,-1.0159,-0.9808,-0.9772,0.0,-0.9466,-0.9588,0.0,-1.0571,-1.0454,-1.0154,0.0,0.0,0.0,0.0,0.0,0.0,-0.9659,0.0,0.0,0.0,-0.9586,-0.9586,0.0,0.0,0.0,0.0,0.0,0.0,0.0,0.0,-0.783,-0.7235,-0.7074,-0.7723,-0.7235,-0.6858,-0.6858,-0.6199,-0.5433,-0.468,-0.4519,-0.4239,-0.3569,-0.3679,-0.3378,-0.2644,-0.1952,-0.1541,-0.1273,-0.0538,-0.0067,0.0,0.0873,0.1273,0.134,0.3078,0.4009,0.4263,0.5235,0.5815,0.604,0.6196,0.6338,0.6338,0.6338,0.6338,0.6338,0.6338,0.6872,0.7783,-1.333,-1.3437,0.0,0.0,0.0,0.0,0.0,0.0,0.0,0.0,0.0,0.0,0.0,0.0,0.0,0.0,0.0,-1.1062,0.0,0.0,0.0,0.0,0.0,0.0,-1.0624,-1.0624,-1.0624,-1.0624,-1.0624,-1.0624,-1.0624,-1.0624,-1.0648,0.0,-0.9819,0.0,-1.0184,0.0,-0.9793,0.0,0.0,0.0,0.0,-0.9892,-0.9667,-0.958,-0.9135,-0.8885,-0.8824,0.0,-0.893,0.0,0.0,0.0,0.0,0.0,0.0,0.0,0.0,0.0,0.0,0.0,0.0,0.0,-0.9807,0.0,-0.9686,0.0,0.0,0.0,0.0,0.0,0.0,0.0,-0.7875,0.0,0.0,0.0,-0.6253,0.0,0.0,0.0,-0.5982,-0.5706,-0.505,-0.3956,-0.3846,-0.3456,-0.2732,-0.285,-0.2581,-0.1722,-0.1432,-0.1074,-0.0538,0.0336,0.0739,0.0739,0.221,0.2878,0.2945,0.4217,0.4937,0.5142,0.563,0.5939,0.6169,0.6234,0.6338,0.6338,0.6945,0.6795,0.6338,0.6949,0.7403,0.7936,0.0,0.0,0.0,0.0,0.0,0.0,0.0,0.0,0.0,0.0,0.0,0.0,-1.1109,-1.1296,0.0,0.0,-1.1423,-1.1423,0.0,0.0,-1.1329,0.0,0.0,0.0,0.0,-1.0795,-1.0795,-1.0795,-1.0795,-1.0795,-1.0795,-1.0795,-1.0778,-1.0629,0.0,-0.936,-0.9458,0.0,-0.92,-0.9221,-0.9534,-0.9558,-0.9249,-0.8789,-0.8657,-0.8576,-0.8303,-0.8117,-0.7984,-0.7931,-0.824,0.0,-0.8189,0.0,0.0,0.0,0.0,0.0,-0.9907,0.0,0.0,0.0,0.0,0.0,0.0,0.0,0.0,0.0,0.0,0.0,0.0,0.0,0.0,0.0,0.0,-0.6654,0.0,-0.5854,0.0,0.0,0.0,0.0,0.0,-0.5218,-0.4721,-0.3456,-0.3373,-0.2882,-0.1924,-0.2047,-0.1681,-0.0811,-0.0917,-0.0537,0.0336,0.1006,0.1407,0.1675,0.328,0.4015,0.4018,0.4998,0.5562,0.5803,0.5844,0.6013,0.6338,0.6338,0.649,0.6795,0.748,0.7553,0.7176,0.7936,0.8385,0.8761,-1.4746,-1.4414,0.0,0.0,0.0,0.0,0.0,0.0,0.0,0.0,0.0,0.0,0.0,0.0,0.0,0.0,0.0,-1.1423,-1.1423,0.0,-1.1423,0.0,0.0,-1.141,0.0,0.0,-1.1396,-1.1396,-1.1396,-1.1396,-1.1396,-1.1396,-1.0842,-0.9863,-0.9034,-0.8544,-0.8418,-0.7838,-0.7482,-0.7417,-0.7765,-0.7318,-0.6633,0.0,-0.9276,-0.9095,-0.7921,0.0,0.0,-0.7199,-0.7085,0.0,0.0,0.0,0.0,0.0,0.0,0.0,0.0,0.0,0.0,-0.8091,0.0,0.0,0.0,0.0,-0.8071,0.0,0.0,0.0,0.0,0.0,0.0,0.0,0.0,0.0,0.0,0.0,0.0,0.0,0.0,0.0,0.0,-0.4515,-0.4181,-0.3342,-0.3387,-0.2749,-0.1231,-0.112,-0.0772,-0.0064,-0.0066,0.0404,0.1274,0.1273,0.1742,0.2678,0.3547,0.4015,0.402,0.5099,0.5661,0.581,0.5959,0.6112,0.6338,0.6338,0.6872,0.7783,0.7783,0.8389,0.9221,0.9226,0.9895,1.0708,0.0,0.0,0.0,0.0,0.0,0.0,0.0,-1.2131,0.0,0.0,-1.1737,0.0,0.0,-1.1891,-1.2004,0.0,0.0,-1.2004,-1.2004,-1.2004,0.0,0.0,0.0,-1.1623,0.0,0.0,0.0,0.0,-1.0723,-1.0435,-1.0372,-0.9736,-0.9325,-0.9118,0.0,-0.7832,0.0,0.0,0.0,0.0,0.0,-0.7176,-0.6338,0.0,-0.7326,-0.7242,-0.6881,-0.6636,0.0,-0.6408,-0.6637,-0.6983,-0.6706,-0.734,-0.8051,-0.7444,-0.7617,-0.8027,0.0,0.0,-0.7307,-0.7827,0.0,0.0,0.0,0.0,0.0,0.0,0.0,0.0,0.0,0.0,0.0,0.0,0.0,0.0,0.0,0.0,0.0,0.0,0.0,0.0,0.0,0.0,-0.3397,-0.2649,-0.2139,-0.1454,-0.0425,-0.0379,-0.0258,0.0,0.053,0.1006,0.1273,0.2476,0.3278,0.3547,0.4486,0.4954,0.496,0.5381,0.5667,0.581,0.5962,0.6489,0.7249,0.6567,0.6872,0.7859,0.8542,0.8993,0.9372,1.004,1.049,1.0932,-1.5428,0.0,0.0,0.0,0.0,0.0,0.0,0.0,0.0,0.0,-1.1931,0.0,-1.2251,0.0,-1.2625,0.0,-1.2625,-1.2625,-1.2625,-1.2518,0.0,-1.2264,-1.2078,0.0,0.0,0.0,0.0,0.0,0.0,-1.0076,-0.9653,-0.9001,-0.8641,-0.8403,0.0,-0.7362,-0.7249,-0.7249,-0.7249,0.0,0.0,-0.6872,0.0,0.0,-0.6338,-0.6338,0.0,-0.6196,-0.6112,-0.6112,-0.6378,-0.6603,-0.6026,-0.6556,-0.7246,-0.6692,-0.6839,-0.7158,-0.7158,-0.6713,0.0,-0.6924,-0.6662,0.0,-0.6924,0.0,-0.6985,0.0,0.0,0.0,0.0,0.0,0.0,0.0,0.0,0.0,0.0,-0.505,0.0,0.0,0.0,0.0,0.0,-0.3605,-0.2905,-0.1905,-0.1399,-0.0805,-0.0063,0.0,0.0,0.0,0.0865,0.1474,0.1808,0.328,0.4151,0.4486,0.509,0.5456,0.5447,0.5596,0.5745,0.5891,0.6044,0.6543,0.7253,0.6949,0.7403,0.8466,0.9442,1.0045,1.0421,1.1093,1.1316,1.1465,-1.5459,0.0,0.0,0.0,-1.3501,0.0,0.0,0.0,-1.1897,0.0,-1.2472,-1.2829,-1.2842,-1.3033,-1.3213,-1.3213,-1.3213,-1.3213,-1.3213,-1.2933,0.0,0.0,-1.2404,-1.2251,-1.217,0.0,0.0,0.0,0.0,0.0,-0.9221,-0.9145,-0.8618,-0.7706,-0.7706,0.0,-0.6338,-0.6338,-0.6338,-0.6338,-0.6338,-0.6338,-0.6338,-0.6338,-0.6338,-0.6338,-0.6338,-0.6338,-0.6338,-0.6338,-0.6162,-0.604,-0.604,-0.5935,-0.5813,-0.5813,-0.5711,-0.5599,-0.5599,-0.5491,-0.5439,-0.5439,-0.5432,0.0,0.0,0.0,-0.509,0.0,0.0,0.0,0.0,0.0,0.0,0.0,0.0,0.0,0.0,0.0,0.0,0.0,0.0,0.0,0.0,-0.3258,-0.2594,-0.1228,-0.105,-0.0752,0.0,0.0066,0.0067,0.0067,0.094,0.1876,0.2744,0.3613,0.4486,0.5428,0.5435,0.545,0.5596,0.5745,0.5891,0.6037,0.6193,0.6335,0.649,0.7403,0.8389,0.9448,1.0415,1.1391,1.2305,1.2305,1.2305,1.2305,-1.5459,-1.4229,-1.3378,0.0,-1.2735,-1.2032,0.0,0.0,0.0,0.0,-1.2728,-1.2916,-1.3066,-1.3166,-1.3213,-1.3213,-1.3213,0.0,0.0,0.0,0.0,-1.1866,-1.1617,-1.1089,-1.0225,-1.0133,0.0,-0.9669,0.0,0.0,-0.8161,-0.7403,-0.6945,-0.6721,0.0,0.0,-0.6338,-0.6338,-0.6338,-0.6338,-0.6338,-0.6338,-0.6338,0.0,-0.6338,-0.6338,-0.6338,-0.6338,-0.6338,-0.6338,-0.6234,-0.6203,-0.6203,-0.6095,-0.5973,-0.5973,-0.5864,-0.5745,-0.5745,-0.564,-0.5532,-0.5532,-0.5447,-0.5226,0.0,0.0,0.0,0.0,0.0,0.0,0.0,0.0,0.0,0.0,0.0,0.0,0.0,0.0,0.0,-0.2933,0.0,0.0,-0.2554,-0.197,-0.1502,-0.1145,-0.0586,-0.0198,0.0,0.0602,0.0939,0.0939,0.2477,0.3411,0.368,0.4553,0.516,0.5428,0.5477,0.5552,0.5599,0.5854,0.5993,0.6037,0.6193,0.7176,0.8466,0.8012,0.8836,1.0415,1.0708,1.1391,1.2305,1.2305,1.2305,1.2305,-1.4824,-1.3615,0.0,-1.2954,0.0,0.0,-1.2325,-1.2392,0.0,-1.2906,-1.306,0.0,-1.338,-1.3514,-1.3594,-1.3594,-1.3594,0.0,-1.3594,0.0,0.0,-1.1735,-1.0925,-1.0243,-0.9602,-0.9466,0.0,-0.8744,0.0,0.0,-0.7099,-0.6567,-0.6338,0.0,0.0,-0.6338,-0.6342,-0.6329,-0.6352,-0.6359,-0.6427,-0.6454,0.0,-0.638,-0.6352,-0.6346,-0.6285,-0.6338,-0.6338,-0.6338,-0.6338,-0.6338,-0.6338,-0.62,-0.6132,-0.6132,-0.602,-0.5901,-0.5901,-0.5793,-0.554,-0.5115,-0.4945,-0.4636,-0.368,-0.3444,-0.3145,0.0,-0.241,-0.2611,0.0,0.0,0.0,0.0,0.0,0.0,0.0,0.0,0.0,0.0,-0.1965,0.0,-0.1282,-0.1143,-0.0958,-0.0656,-0.0264,0.0199,0.0538,0.1006,0.1474,0.1876,0.3278,0.4015,0.4015,0.4954,0.5428,0.5428,0.5515,0.5623,0.5691,0.5925,0.6286,0.6806,0.6904,0.7859,0.9296,0.914,0.9809,1.0858,1.1316,1.1768,1.2305,1.2305,1.2305,1.2305,-1.4003,0.0,0.0,0.0,0.0,0.0,0.0,-1.2909,0.0,-1.3227,0.0,-1.3661,-1.3701,-1.3935,-1.4088,-1.4088,0.0,-1.3997,-1.3906,-1.2637,-1.1827,-1.1494,-1.0275,-0.9505,-0.9341,-0.9213,-0.8713,0.0,0.0,0.0,-0.6318,-0.6318,0.0,0.0,0.0,0.0,0.0,-0.6451,-0.6502,-0.6515,-0.6647,-0.6702,-0.6685,-0.6552,-0.6502,-0.6485,-0.6363,-0.6295,-0.6338,-0.6338,-0.6338,-0.6338,-0.6338,-0.6338,-0.6338,-0.6338,-0.6166,-0.6061,-0.6061,-0.5872,-0.5394,-0.445,-0.4148,-0.3718,-0.2735,-0.254,-0.2221,-0.1349,-0.1747,-0.1877,-0.0471,0.0,0.0,0.0,0.0,0.0,0.0,0.0,0.0,0.0,0.0,0.0,-0.0067,-0.0579,-0.0637,0.0134,0.0197,0.0524,0.1405,0.0,0.2009,0.2878,0.3747,0.4151,0.4151,0.5024,0.5439,0.5459,0.5545,0.5691,0.5837,0.6138,0.6802,0.7783,0.7936,0.8537,0.9593,1.0415,1.0864,1.1087,1.1996,1.2305,1.2305,1.2345,1.2365,1.2351,-1.4576,0.0,0.0,0.0,0.0,-1.3213,-1.3447,-1.328,-1.324,-1.3527,-1.3614,-1.3734,-1.3981,-1.4055,-1.4088,-1.4088,-1.4088,0.0,0.0,0.0,0.0,-0.9529,-0.9083,-0.8392,-0.7392,-0.7231,-0.7065,0.0,0.0,0.0,-0.6624,-0.6624,0.0,0.0,0.0,0.0,-0.6624,-0.6651,0.0,-0.6664,-0.6692,-0.6702,-0.6698,-0.6671,-0.6661,-0.6658,-0.663,-0.6468,-0.6338,-0.6338,-0.6338,-0.6338,-0.6338,-0.6338,-0.6338,-0.6338,-0.624,-0.622,-0.622,-0.5494,-0.471,-0.4487,-0.3672,-0.274,-0.1732,-0.1556,-0.1318,-0.0418,-0.0342,-0.0605,-0.1006,0.0,0.0,0.0,0.0,0.0,0.0,0.0,0.0,0.0,0.0,0.0604,0.0,-0.0134,0.0133,0.1006,0.1068,0.1467,0.2409,0.0,0.3613,0.0,0.4686,0.516,0.0,0.5296,0.5423,0.5552,0.5694,0.5844,0.5993,0.7048,0.76,0.7859,0.8694,0.9593,1.0559,1.0708,1.1316,1.2077,1.2224,1.2305,1.2331,1.2579,1.2741,1.2708,-1.3938,0.0,0.0,0.0,0.0,0.0,-1.3828,-1.3881,-1.3888,-1.3874,-1.4008,-1.4155,-1.4295,-1.4449,-1.4543,-1.4543,-1.4402,-1.4045,-1.3502,-1.2146,-1.095,-0.9836,-0.8537,-0.7639,-0.7037,-0.6895,-0.6817,-0.6817,0.0,0.0,0.0,0.0,0.0,0.0,0.0,-0.6702,0.0,0.0,-0.6817,-0.6824,-0.6898,-0.6929,-0.6919,-0.6848,-0.6817,-0.681,-0.6729,-0.6198,-0.5666,-0.6238,-0.6322,-0.6338,-0.6338,-0.6338,-0.6338,-0.6338,-0.6338,-0.618,-0.5628,-0.5035,-0.4375,-0.3302,-0.2565,-0.1853,-0.0891,-0.0655,-0.05,-0.0072,0.0,-0.0137,-0.0539,-0.1008,0.0,0.0,0.0,0.0,0.0,0.0,0.0,0.0,0.0,0.0,0.0,0.0,0.0,0.0,0.0,0.1876,0.3278,0.0,0.4215,0.0,0.0,0.0,0.5428,0.0,0.5515,0.5593,0.6309,0.6683,0.6841,0.7996,0.8841,0.9362,0.989,1.064,1.162,1.162,1.1848,1.2318,1.2472,1.2532,1.2565,1.2872,1.2986,1.2966,0.0,-1.3394,0.0,0.0,-1.3828,-1.3928,-1.4229,-1.4469,-1.4509,-1.4215,-1.4436,-1.4616,-1.4616,-1.4823,-1.4963,-1.4963,-1.475,-1.4346,-1.3894,-1.191,-1.0469,-0.9901,-0.8151,-0.7173,-0.7139,-0.7031,-0.6973,0.0,0.0,0.0,-0.6749,0.0,0.0,0.0,0.0,0.0,0.0,0.0,-0.6973,-0.6983,-0.7095,-0.7139,-0.7129,-0.7017,-0.68,-0.6525,-0.6496,-0.5588,-0.4713,-0.5533,-0.5885,-0.5989,-0.6227,-0.6285,-0.6261,-0.6025,-0.5944,-0.5709,-0.4686,-0.4217,-0.3673,-0.2036,-0.139,-0.1066,-0.0229,0.0,0.0,0.0,0.0,0.0,0.0,0.0,0.0,0.0,0.0,0.0,0.0,0.0,0.0,0.0,0.0,0.0,0.2744,0.2678,0.0,0.0,0.0,0.0,0.4217,0.0,0.0,0.0,0.5428,0.5509,0.574,0.0,0.6033,0.6379,0.736,0.7881,0.7925,0.906,1.004,1.0783,1.1013,1.1577,1.2398,1.2398,1.2432,1.2518,1.2752,1.2923,1.2879,1.3193,1.3307,1.3313,0.0,0.0,0.0,0.0,0.0,-1.4543,-1.4836,-1.4903,-1.4816,-1.4516,-1.4736,-1.4923,-1.4923,-1.4943,-1.4963,-1.4963,-1.4937,-1.4,-1.171,-1.1415,-1.0222,-0.7804,-0.7531,-0.7285,-0.7143,-0.7129,-0.7122,0.0,0.0,-0.7034,0.0,0.0,0.0,0.0,0.0,0.0,-0.7099,-0.7112,-0.7122,-0.7122,-0.7136,-0.7139,-0.7139,-0.7126,-0.641,-0.552,-0.551,-0.4649,-0.3452,-0.3617,-0.4182,-0.5002,-0.6131,-0.6366,-0.6103,-0.5157,-0.4844,-0.4608,-0.3513,-0.2581,-0.188,-0.1646,-0.0861,-0.0157,0.0,0.0,0.0,0.0,0.0,0.0,0.0,0.0,0.0,0.0,0.0,0.0,0.0,0.0,0.3613,0.2811,0.0,0.0,0.2744,0.2678,0.0,0.0,0.3747,0.0,0.0,0.0,0.0,0.5428,0.5428,0.5892,0.692,0.6941,0.7604,0.8752,0.8865,0.8995,0.919,1.0179,1.0708,1.0864,1.1768,1.2377,1.2782,1.2782,1.2872,1.3126,1.316,1.3166,1.3206,1.3494,1.3519,1.3641,-1.4589,-1.4616,-1.4649,-1.4763,-1.4783,-1.483,-1.4943,-1.511,-1.5177,-1.5064,-1.515,-1.5224,-1.5224,-1.5378,-1.5484,-1.5484,-1.4562,-1.362,-1.2592,-1.0979,-0.9587,-0.8602,-0.7781,-0.7343,-0.7282,-0.7187,-0.7139,0.0,0.0,0.0,0.0,0.0,-0.7139,-0.7139,-0.7139,-0.7139,-0.7139,-0.7139,-0.7139,-0.7051,-0.634,-0.6071,-0.598,-0.5262,-0.4727,-0.4285,-0.4285,-0.3464,-0.2473,-0.3265,-0.3599,-0.38,-0.4294,-0.4389,-0.4309,-0.383,-0.3712,-0.3515,-0.2503,-0.188,-0.1411,-0.0784,-0.0314,0.0,0.0,0.0,0.0,0.0,0.0,0.0,0.0,0.0506,0.0932,0.0932,0.0,0.0,0.0,0.0,0.0,0.4361,0.0,0.4688,0.0,0.435,0.0,0.0,0.0,0.0,0.0,0.0,0.0,0.5428,0.0,0.5999,0.7082,0.7236,0.7924,0.9108,0.9827,1.017,1.0265,1.1242,1.1783,1.203,1.2606,1.2913,1.3026,1.3026,1.31,1.3227,1.34,1.3467,1.3507,1.3801,1.3908,1.3928,-1.4963,-1.4963,-1.499,-1.5077,-1.509,-1.5117,-1.5204,-1.5391,-1.5524,-1.5524,-1.5524,-1.5524,-1.5524,-1.5321,-1.5242,-1.5242,-1.3809,-1.2842,-1.2463,-1.0617,-0.9296,-0.8871,-0.8016,0.0,-0.7441,-0.7288,-0.7207,-0.7207,-0.7163,0.0,0.0,-0.7078,-0.7099,-0.7139,-0.7139,-0.7139,-0.7051,-0.6782,-0.6605,-0.6517,-0.5356,-0.491,-0.4821,-0.3927,-0.3392,-0.3037,-0.3037,-0.2324,-0.1433,-0.2236,-0.2366,-0.2305,-0.2966,-0.3164,-0.3025,-0.2781,-0.2667,-0.247,-0.1428,-0.1109,-0.0949,-0.0157,0.0,0.0,0.0,0.0,0.0,0.0,0.0232,0.0456,0.0448,0.133,0.2058,0.2058,0.0,0.0,0.0,0.5084,0.0,0.0,0.5491,0.5491,0.5491,0.5491,0.0,0.0,0.0,0.0,0.0,0.0,0.0,0.0,0.0,0.0,0.8146,0.8298,0.8988,1.0087,1.0855,1.1236,1.1242,1.2087,1.2599,1.2899,1.3113,1.326,1.334,1.334,1.3387,1.3487,1.3694,1.3774,1.3801,1.4008,1.4088,1.4088,-1.4963,-1.4963,-1.5057,-1.5344,-1.5391,-1.5484,-1.5772,-1.5818,-1.5825,-1.5825,-1.5825,-1.5825,-1.5825,-1.4657,-1.3872,-1.3872,-1.2716,-1.1361,-1.0092,-0.9993,-0.9327,0.0,0.0,-0.774,-0.76,-0.7448,-0.7366,-0.7366,0.0,0.0,-0.6929,-0.6929,-0.7007,-0.7139,-0.7139,-0.7139,-0.7051,-0.5894,-0.5447,-0.5359,-0.4105,-0.3659,-0.3659,-0.357,-0.2858,-0.179,-0.179,-0.1076,0.0,0.0,0.0,-0.0447,-0.2705,-0.324,-0.2931,-0.1926,-0.1592,-0.1418,-0.0327,0.0,0.0,0.0,0.0,0.0,0.0,0.0,0.0,0.0,0.0863,0.1567,0.1566,0.2378,0.3093,0.3093,0.0,0.0,0.0,0.5215,0.0,0.5796,0.5796,0.5796,0.5796,0.5796,0.0,0.0,0.0,0.0,0.0,0.0,0.0,0.8353,0.8636,0.0,1.0551,1.0563,1.113,1.2224,1.2298,1.2298,1.2311,1.2605,1.2913,1.3206,1.3213,1.3373,1.3641,1.3641,1.3808,1.4075,1.4082,1.4082,1.4082,1.4088,1.4088,1.4088,-1.5558,-1.5558,-1.5585,-1.5671,-1.5691,-1.5718,-1.5812,-1.5832,-1.5832,-1.5832,-1.5832,-1.5439,-1.4561,-1.4166,-1.3878,-1.3878,-1.1843,-1.0391,-0.9998,-0.9118,-0.8407,-0.7967,-0.7868,-0.779,-0.7743,-0.76,-0.7529,-0.7529,-0.7478,-0.7377,-0.7227,-0.7122,-0.7095,-0.7051,-0.6251,-0.5983,-0.5891,-0.4641,-0.4194,-0.4105,-0.286,-0.2415,-0.2325,-0.1433,-0.0897,-0.0539,-0.0539,-0.0359,0.0,0.0,0.0,-0.009,-0.089,-0.105,-0.0945,-0.0602,-0.0511,-0.042,-0.0083,0.0,0.0,0.0,0.0,0.0,0.0,0.0549,0.1097,0.1097,0.1879,0.2657,0.2657,0.3494,0.4173,0.4173,0.5067,0.0,0.5522,0.0,0.5918,0.5813,0.58,0.58,0.58,0.58,0.0,0.0,0.0,0.0,0.0,0.0,0.0,0.0,0.8872,0.0,1.0563,1.0657,1.1236,1.2305,1.2512,1.2719,1.2933,1.3227,1.3414,1.352,1.3721,1.3861,1.3948,1.3948,1.4001,1.4088,1.4088,1.4088,1.4088,1.4088,1.4088,1.4088,-1.5832,-1.5832,-1.5832,-1.5832,-1.5832,-1.5832,-1.5832,-1.5832,-1.5832,-1.5832,-1.5343,-1.4752,-1.3974,-1.3006,-1.242,-1.242,-1.048,-0.9217,-0.9217,-0.8432,-0.8038,-0.8038,-0.7946,-0.7896,-0.7896,-0.7753,-0.7678,-0.7678,-0.7628,-0.755,-0.7455,-0.6803,-0.6575,-0.6485,-0.5297,-0.4751,-0.466,-0.3474,-0.2913,-0.2802,-0.1629,-0.1082,-0.1076,-0.0269,0.0,0.0,0.0,0.0,0.0,0.0,0.0,0.0,0.0,0.0,0.0,0.0,0.0,0.0,0.0,0.0,0.0,0.0,0.0,0.0082,0.048,0.1509,0.2294,0.2195,0.2969,0.3671,0.3671,0.4608,0.5315,0.5315,0.5867,0.6227,0.6129,0.0,0.6081,0.0,0.0,0.5976,0.5976,0.5976,0.5976,0.0,0.0,0.0,0.0,0.0,0.9243,0.9949,1.0202,1.0633,1.1222,1.131,1.1745,1.2472,1.2772,1.308,1.338,1.3561,1.3701,1.3821,1.4008,1.4088,1.4088,1.4088,1.4088,1.4088,1.4088,1.4088,1.4088,1.4088,1.4088,1.4088,-1.5832,-1.5832,-1.5832,-1.5832,-1.5832,-1.5832,-1.5832,-1.5832,-1.5832,-1.5832,-1.4657,-1.3872,-1.3776,-1.1551,-0.9998,-0.9899,-0.8726,-0.8038,-0.8038,-0.8038,-0.8038,-0.8038,-0.8038,-0.8038,-0.8038,-0.7899,-0.7828,-0.7828,-0.7685,-0.7614,-0.7614,-0.6261,-0.5591,-0.5497,-0.4078,-0.3512,-0.3417,-0.2188,-0.1695,-0.1573,-0.0463,0.0,0.0,0.0,0.0,0.0,0.0,0.0,0.0,0.0,0.0,0.0,0.0,0.0,0.0,0.0,0.0,0.0,0.0,0.0,0.0,0.0,0.0084,0.0418,0.139,0.26,0.3467,0.331,0.4075,0.4854,0.4854,0.5634,0.6338,0.6338,0.6338,0.6338,0.6338,0.6338,0.6338,0.6338,0.6338,0.6338,0.6338,0.6338,0.6338,0.0,0.0,0.0,0.0,0.0,1.0075,1.1897,1.2164,1.2305,1.2305,1.2325,1.2492,1.2889,1.3106,1.3394,1.3592,1.3592,1.3821,1.4088,1.4088,1.4088,1.4088,1.4088,1.4088,1.4088,1.4088,1.4088,1.4088,1.4088,1.4173,1.425,-1.5832,-1.5832,-1.5832,-1.5832,-1.5832,-1.5832,-1.5832,-1.5832,-1.5832,-1.5832,-1.4657,-1.3488,-1.2522,-1.097,-0.9608,-0.8528,-0.8134,-0.8038,-0.8038,-0.8038,-0.8038,-0.8038,-0.8038,-0.8038,-0.8038,-0.8004,-0.7984,-0.7984,-0.7834,-0.7763,-0.7756,-0.63,-0.5591,-0.5497,-0.3229,-0.2188,-0.2188,-0.0952,-0.038,-0.0379,-0.0095,0.0,0.0,0.0,0.0,0.0,0.0,0.0,0.0,0.0,0.0,0.0,0.0,0.0,0.0,0.0,0.0,0.0,0.0,0.0,0.0,0.0,0.0681,0.1425,0.1666,0.3238,0.4722,0.4613,0.5359,0.6096,0.6096,0.6172,0.6338,0.6338,0.6338,0.6338,0.6338,0.6338,0.6338,0.0,0.6338,0.6338,0.6338,0.6338,0.6644,0.0,0.0,0.8613,1.034,1.0427,1.0923,1.2198,1.2265,1.2305,1.2305,1.2525,1.2906,1.3434,1.3507,1.3694,1.3981,1.3981,1.4021,1.4088,1.4088,1.4088,1.4088,1.4088,1.4088,1.4088,1.4088,1.4088,1.4088,1.4088,1.4657,1.5296,-1.5832,-1.5832,-1.5832,-1.5832,-1.5343,-1.4949,-1.4949,-1.437,-1.398,-1.398,-1.2909,-1.1843,-1.1068,-0.9899,-0.8825,-0.8038,-0.8038,-0.8038,-0.8038,-0.8038,-0.8038,-0.8038,-0.8038,-0.8038,-0.8038,-0.8038,-0.8038,-0.8038,-0.7957,-0.7619,-0.6923,-0.5577,-0.4576,-0.3896,-0.1856,-0.0978,-0.0978,-0.0294,0.0,0.0,0.0,0.0,0.0,0.0,0.0,0.0,0.0,0.0,0.0,0.0,0.0,0.0,0.0,0.0,0.0,0.0,0.0,0.0,0.0,0.0,0.009,0.0708,0.1744,0.2753,0.3236,0.4671,0.593,0.5871,0.6217,0.6576,0.6576,0.6458,0.6359,0.6359,0.6302,0.6338,0.6338,0.6338,0.6338,0.6338,0.6338,0.649,0.6945,0.7022,0.7403,0.8389,0.8466,0.0,1.0889,1.0971,1.1377,1.2305,1.2438,1.2505,1.2505,1.2939,1.332,1.3559,1.3781,1.3928,1.4088,1.4088,1.4088,1.4088,1.4088,1.4088,1.4088,1.4088,1.4088,1.4088,1.4088,1.4088,1.4186,1.4888,1.5515,1.6103,-1.5832,-1.5832,-1.573,-1.554,-1.4657,-1.3872,-1.3584,-1.2619,-1.1945,-1.1945,-1.0779,-0.9998,-0.9998,-0.8825,-0.8038,-0.8038,-0.8038,-0.8038,-0.8038,-0.8038,-0.8038,-0.8038,-0.8038,-0.8038,-0.8038,-0.8038,-0.8038,-0.8038,-0.7839,-0.7135,-0.5929,-0.4418,-0.3115,-0.1913,-0.0605,0.0,0.0,0.0,0.0,0.0,0.0,0.0,0.0,0.0,0.0,0.0,0.0,0.0,0.0,0.0,0.0,0.0,0.0,0.0,0.0,0.0,0.0,0.0,0.0,0.009,0.0539,0.179,0.2949,0.4086,0.4971,0.6085,0.6922,0.6793,0.6749,0.6736,0.6736,0.661,0.6508,0.6508,0.6407,0.6329,0.6329,0.6329,0.6404,0.6634,0.6634,0.7021,0.8095,0.8172,0.8553,0.955,0.9627,1.0171,1.148,1.1486,1.1775,1.2445,1.2685,1.2916,1.2879,1.3387,1.3667,1.3714,1.3968,1.4088,1.4088,1.4088,1.4088,1.4088,1.4088,1.4088,1.4088,1.4135,1.4155,1.4155,1.445,1.4549,1.4661,1.6159,1.6761,1.7047,-1.5832,-1.5832,-1.5439,-1.4364,-1.407,-1.3488,-1.2425,-1.2042,-1.1945,-1.1945,-1.0779,-0.9998,-0.9998,-0.8825,-0.8038,-0.8038,-0.8038,-0.8038,-0.8038,-0.8038,-0.8038,-0.8038,-0.8038,-0.8038,-0.8038,-0.8038,-0.8038,-0.8038,-0.6833,-0.6229,-0.5929,-0.3518,-0.2213,-0.1913,-0.0605,0.0,0.0,0.0,0.0,0.0,0.0,0.0,0.0,0.0,0.0,0.0,0.0,0.0,0.0,0.0,0.0,0.0,0.0,0.0,0.0,0.0,0.0,0.0,0.0,0.0718,0.179,0.3037,0.4196,0.5176,0.5336,0.6219,0.7102,0.7078,0.6976,0.6895,0.6895,0.677,0.6664,0.6664,0.6647,0.663,0.663,0.663,0.7037,0.7996,0.8073,0.8559,0.9697,0.9857,1.0258,1.122,1.13,1.1799,1.2811,1.2897,1.2956,1.3073,1.3113,1.3253,1.35,1.3594,1.3768,1.4021,1.4068,1.4088,1.4088,1.4088,1.4088,1.4088,1.4088,1.4088,1.4108,1.4349,1.4449,1.4562,1.5915,1.6359,1.6533,1.7784,1.8829,1.96,-1.4949,-1.4752,-1.4364,-1.3011,-1.2231,-1.1551,-1.0974,-1.0288,-0.9801,-0.9801,-0.9312,-0.892,-0.892,-0.8333,-0.8038,-0.8038,-0.8038,-0.8038,-0.8038,-0.8038,-0.8038,-0.8038,-0.8038,-0.8038,-0.8038,-0.8038,-0.7637,-0.6933,-0.6331,-0.5225,-0.3819,-0.2615,-0.1611,-0.0907,-0.0303,0.0,0.0,0.0,0.0,0.0,0.0,0.0,0.0,0.0,0.0,0.0,0.0,0.0,0.0,0.0,0.0,0.0,0.0,0.0,0.0188,0.0837,0.1004,0.0986,0.0986,0.1879,0.3037,0.4285,0.4999,0.5536,0.616,0.6694,0.7139,0.7139,0.7088,0.7044,0.7044,0.6922,0.6824,0.6824,0.6756,0.6702,0.6702,0.6702,0.7105,0.8237,0.8401,0.9055,1.0847,1.1014,1.1416,1.2393,1.2479,1.2788,1.3353,1.3447,1.3514,1.3681,1.3527,1.3581,1.3881,1.3881,1.3948,1.4088,1.4088,1.4088,1.4088,1.4249,1.4322,1.4329,1.4489,1.4556,1.4569,1.4703,1.4763,1.4858,1.5506,1.5821,1.6102,1.8113,1.9141,1.9774,-1.4166,-1.3878,-1.3392,-1.175,-1.0681,-0.9903,-0.9608,-0.8627,-0.8038,-0.8038,-0.8038,-0.8038,-0.8038,-0.8038,-0.8038,-0.8038,-0.8038,-0.8038,-0.8038,-0.8038,-0.8038,-0.8038,-0.8038,-0.8038,-0.8038,-0.7736,-0.7033,-0.6029,-0.5427,-0.4021,-0.2013,-0.1711,-0.1008,0.0,0.0,0.0,0.0,0.0,0.0,0.0,0.0,0.0,0.0,0.0,0.0,0.0,0.0,0.0,0.0,0.0,0.0,0.0097,0.0384,0.048,0.0766,0.2095,0.2604,0.2716,0.269,0.3306,0.4285,0.5534,0.5802,0.5983,0.6871,0.7139,0.7139,0.7139,0.7139,0.7139,0.7139,0.7051,0.6976,0.6976,0.6878,0.6803,0.6803,0.6803,0.7297,0.8778,0.8944,0.9771,1.2008,1.2251,1.2588,1.3333,1.3414,1.3514,1.3734,1.3748,1.3848,1.4082,1.3868,1.3854,1.4082,1.4088,1.4088,1.4088,1.4155,1.4188,1.4202,1.4489,1.4623,1.4636,1.4863,1.4963,1.497,1.5037,1.5064,1.5161,1.5847,1.6048,1.6339,1.9074,2.006,2.0289,-1.4166,-1.3878,-1.3097,-1.0583,-1.0096,-0.9608,-0.8333,-0.8038,-0.8038,-0.8038,-0.8038,-0.8038,-0.8038,-0.8038,-0.8038,-0.8038,-0.8038,-0.8038,-0.8038,-0.8038,-0.8038,-0.8038,-0.8038,-0.8038,-0.8038,-0.683,-0.6129,-0.6029,-0.3519,-0.2213,-0.2012,-0.0706,-0.0101,0.0,0.0,0.0,0.0,0.0,0.0,0.0,0.0,0.0,0.0,0.0,0.0,0.0,0.0,0.0,0.0,0.0,0.0,0.0201,0.1474,0.1855,0.214,0.3437,0.4641,0.5432,0.5233,0.5179,0.5536,0.6694,0.6962,0.6962,0.7051,0.7139,0.7139,0.7139,0.7139,0.7139,0.7139,0.7132,0.7126,0.7126,0.7115,0.0,0.7109,0.7109,0.7888,1.0129,1.0474,1.1337,1.3678,1.3931,1.3937,1.4021,1.4021,1.4035,1.4055,1.4055,1.4062,1.4088,1.4068,1.4068,1.4088,1.4088,1.4088,1.4088,1.4362,1.4489,1.4496,1.4796,1.493,1.493,1.495,1.4963,1.4983,1.5251,1.5364,1.5661,1.8201,1.9141,1.9414,2.1896,2.2824,2.2824,-1.2915,-1.2037,-1.0872,-0.9114,-0.8726,-0.8627,-0.8038,-0.8038,-0.8038,-0.8038,-0.8038,-0.8038,-0.8038,-0.8038,-0.8038,-0.8038,-0.8038,-0.8038,-0.8038,-0.8038,-0.8038,-0.8038,-0.8038,-0.7637,-0.6731,-0.6229,-0.5225,-0.3519,-0.2515,-0.1611,-0.0706,-0.0202,0.0,0.0,0.0,0.0,0.0,0.0,0.0,0.0,0.0,0.0,0.0,0.0,0.0,0.0,0.0,0.0,0.0,0.0,0.0504,0.1308,0.1797,0.2587,0.3466,0.476,0.5987,0.7006,0.6827,0.6777,0.6869,0.7332,0.7424,0.74,0.7305,0.7285,0.7255,0.716,0.7139,0.7139,0.7139,0.7139,0.7139,0.7139,0.7139,0.7139,0.7139,0.7753,0.8798,1.0438,1.1209,1.2334,1.3913,1.4088,1.4088,1.4088,1.4088,1.4088,1.4088,1.4255,1.4355,1.4355,1.4536,1.4543,1.4355,1.4355,1.4449,1.4629,1.4743,1.4796,1.4803,1.5097,1.5231,1.5244,1.5424,1.5504,1.5604,1.6443,1.6865,1.6965,1.8808,1.9497,1.967,2.1391,2.1943,2.212,-1.1751,-1.0766,-0.9674,-0.8379,-0.818,-0.818,-0.818,-0.814,-0.8113,-0.8113,-0.8069,-0.8038,-0.8038,-0.8038,-0.8038,-0.8038,-0.8038,-0.8038,-0.8038,-0.7637,-0.7335,-0.7335,-0.7335,-0.6731,-0.5425,-0.4922,-0.3819,-0.2013,-0.1611,-0.0907,0.0,0.0,0.0,0.0,0.0,0.0,0.0,0.0,0.0,0.0,0.0,0.0,0.0,0.0,0.0,0.0,0.0,0.0,0.0101,0.0504,0.1209,0.2113,0.3017,0.4218,0.5406,0.623,0.7095,0.7862,0.7763,0.774,0.7716,0.7624,0.76,0.757,0.7465,0.7444,0.7414,0.7305,0.7285,0.7285,0.7285,0.7285,0.7285,0.7285,0.7635,0.7811,0.7811,0.8966,1.0121,1.1263,1.2139,1.3021,1.4269,1.4362,1.4362,1.4362,1.4362,1.4362,1.4362,1.4549,1.4663,1.4663,1.4856,1.491,1.4796,1.4703,1.4763,1.4963,1.5057,1.5104,1.511,1.5398,1.5531,1.5545,1.6108,1.6386,1.648,1.777,1.8234,1.8411,1.9579,2.0034,2.0215,2.1391,2.1845,2.1943,-1.0958,-1.0443,-1.0032,-0.8689,-0.8482,-0.8482,-0.8482,-0.8364,-0.8272,-0.8272,-0.814,-0.8041,-0.8041,-0.8041,-0.8041,-0.8041,-0.8038,-0.8038,-0.7939,-0.6734,-0.6029,-0.5929,-0.6029,-0.5322,-0.4016,-0.2715,-0.2013,-0.2013,-0.0605,0.0,0.0,0.0,0.0,0.0,0.0,0.0,0.0,0.0,0.0,0.0,0.0,0.0,0.0,0.0,0.0,0.0,0.0,0.0,0.0202,0.1511,0.2013,0.2515,0.5125,0.6933,0.8038,0.8038,0.8038,0.8038,0.8038,0.8038,0.797,0.7678,0.7604,0.7604,0.76,0.76,0.76,0.76,0.76,0.76,0.76,0.76,0.76,0.76,0.8699,0.952,0.952,1.0624,1.1919,1.303,1.3217,1.3676,1.4867,1.4963,1.4963,1.4963,1.4963,1.4963,1.4963,1.497,1.497,1.497,1.497,1.511,1.5398,1.511,1.497,1.4977,1.5264,1.5398,1.5411,1.5698,1.5832,1.5825,1.7131,1.7692,1.7777,1.8956,1.9488,1.9579,2.0845,2.1293,2.148,2.2677,2.3135,2.3135,-1.0543,-0.9723,-0.8999,-0.8584,-0.8482,-0.8482,-0.8482,-0.8445,-0.8418,-0.8418,-0.8381,-0.835,-0.835,-0.8262,-0.8201,-0.8201,-0.8102,-0.7637,-0.6631,-0.6229,-0.5125,-0.3317,-0.4117,-0.4017,-0.2614,-0.2213,-0.1511,-0.0605,-0.0202,0.0,0.0,0.0,0.0,0.0,0.0,0.0,0.0,0.0,0.0,0.0,0.0,0.0,0.0,0.0,0.0,0.0,0.0,0.0605,0.1511,0.1913,0.3218,0.5125,0.6833,0.7637,0.8038,0.8038,0.8038,0.8038,0.8038,0.8038,0.8018,0.7929,0.7909,0.7879,0.7773,0.7746,0.7719,0.7621,0.76,0.76,0.76,0.8333,0.8975,0.8975,1.0075,1.09,1.09,1.1919,1.2842,1.3121,1.3948,1.4591,1.4963,1.4963,1.4963,1.4963,1.4963,1.4963,1.4963,1.5157,1.5264,1.5264,1.5464,1.5611,1.5698,1.5411,1.5371,1.5571,1.5658,1.5698,1.5705,1.5792,1.5832,1.5825,1.6197,1.6386,1.648,1.7677,1.8772,1.9579,2.0845,2.1845,2.2589,2.296,2.3135,2.3135,-0.9926,-0.919,-0.8662,-0.8662,-0.8662,-0.8662,-0.8662,-0.8611,-0.857,-0.857,-0.852,-0.8482,-0.8482,-0.8408,-0.8353,-0.8353,-0.7699,-0.6679,-0.5325,-0.4722,-0.3718,-0.2113,-0.2314,-0.2013,-0.1209,-0.1209,-0.0807,0.0,0.0,0.0,0.0,0.0,0.0,0.0,0.0,0.0,0.0,0.0,0.0,0.0,0.0,0.0,0.0,0.0,0.0,0.0101,0.0605,0.131,0.2113,0.3217,0.5024,0.6933,0.7739,0.8038,0.8038,0.8038,0.8038,0.8038,0.8038,0.8038,0.8038,0.8038,0.8038,0.8014,0.7923,0.7899,0.7879,0.779,0.7773,0.7773,0.7773,0.881,0.9651,0.9651,1.1249,1.2472,1.2472,1.3513,1.4266,1.4266,1.4832,1.5304,1.5304,1.5304,1.5304,1.5304,1.5304,1.5304,1.5304,1.5471,1.5565,1.5565,1.5738,1.5832,1.5832,1.5658,1.5658,1.5832,1.5832,1.5832,1.5832,1.5832,1.5832,1.5832,1.6292,1.6574,1.6662,1.8403,1.9579,2.0305,2.1578,2.2492,2.3135,2.3135,2.3135,2.3135,-0.9154,-0.894,-0.894,-0.894,-0.894,-0.894,-0.894,-0.8821,-0.873,-0.873,-0.8611,-0.8523,-0.8523,-0.8509,-0.8503,-0.8289,-0.7001,-0.5437,-0.393,-0.2722,-0.1916,-0.1812,-0.0605,0.0,0.0,0.0,0.0,0.0,0.0,0.0,0.0,0.0,0.0,0.0,0.0,0.0,0.0,0.0,0.0,0.0,0.0,0.0,0.0,0.0,0.0101,0.0303,0.1611,0.2113,0.2715,0.5325,0.7033,0.8038,0.8038,0.8038,0.8038,0.8038,0.8038,0.8038,0.8038,0.8038,0.8038,0.8038,0.8038,0.8038,0.8038,0.8038,0.8038,0.8038,0.8038,0.8038,0.8038,0.9217,1.0194,1.0194,1.2328,1.407,1.407,1.5045,1.5832,1.5832,1.5832,1.5832,1.5832,1.5832,1.5832,1.5832,1.5832,1.5832,1.5832,1.5832,1.5832,1.5832,1.5832,1.5832,1.5832,1.5832,1.5832,1.5832,1.5832,1.5832,1.5832,1.5832,1.5832,1.5825,1.7131,1.7692,1.787,2.0215,2.1203,2.1382,2.2492,2.3047,2.3135,2.3135,2.3135,2.3135,-0.8937,-0.894,-0.894,-0.894,-0.894,-0.894,-0.894,-0.891,-0.8889,-0.8889,-0.8859,-0.8842,-0.8842,-0.8733,-0.8227,-0.7034,-0.543,-0.3873,-0.2572,-0.2159,-0.1534,-0.0505,-0.0202,0.0,0.0,0.0,0.0,0.0,0.0,0.0,0.0,0.0,0.0,0.0,0.0,0.0,0.0,0.0,0.0,0.0,0.0,0.0,0.0,0.0,0.0605,0.1611,0.1913,0.3317,0.5425,0.7033,0.7736,0.8038,0.8038,0.8038,0.8038,0.8038,0.8038,0.8038,0.8038,0.8038,0.8038,0.8038,0.8038,0.8038,0.8038,0.8038,0.8038,0.8038,0.8038,0.8038,0.8038,0.9899,1.1463,1.1463,1.3692,1.5439,1.5439,1.5635,1.5832,1.5832,1.5832,1.5832,1.5832,1.5832,1.5832,1.5832,1.5832,1.5832,1.5832,1.5832,1.5832,1.5832,1.5832,1.5832,1.5832,1.5832,1.5832,1.5832,1.5832,1.5832,1.5832,1.5832,1.5832,1.5825,1.7131,1.7692,1.7777,1.9314,2.0486,2.1293,2.1569,2.2306,2.3135,2.3135,2.3135,2.3135,-0.894,-0.894,-0.894,-0.894,-0.894,-0.894,-0.894,-0.894,-0.894,-0.894,-0.8266,-0.8152,-0.8826,-0.7535,-0.6041,-0.4579,-0.3674,-0.2563,-0.1156,-0.105,-0.073,0.0,0.0,0.0,0.0,0.0,0.0,0.0,0.0,0.0,0.0,0.0,0.0,0.0,0.0,0.0,0.0,0.0,0.0,0.0,0.0,0.0,0.0101,0.0706,0.141,0.2213,0.3417,0.5225,0.7033,0.7736,0.8038,0.8038,0.8038,0.8038,0.8038,0.8038,0.8038,0.8038,0.8038,0.8038,0.8038,0.8038,0.8038,0.8038,0.8038,0.8038,0.8038,0.8038,0.8038,0.8237,0.8825,1.0583,1.2139,1.2716,1.4465,1.5832,1.5832,1.5832,1.5832,1.5832,1.5832,1.5832,1.5832,1.5832,1.5832,1.5832,1.5832,1.5832,1.5832,1.5832,1.5832,1.5832,1.5832,1.5832,1.5832,1.5832,1.5832,1.5832,1.5832,1.5832,1.5825,1.6386,1.6669,1.6763,1.8041,1.8596,1.868,1.9852,2.0747,2.1382,2.1933,2.258,2.3135,2.3135,2.3135,2.3135,-0.894,-0.894,-0.894,-0.894,-0.894,-0.894,-0.894,-0.894,-0.894,-0.894,-0.7595,-0.7149,-0.838,-0.5917,-0.3557,-0.2304,-0.1974,-0.1307,-0.0107,0.0,0.0,0.0,0.0,0.0,0.0,0.0,0.0,0.0,0.0,0.0,0.0,0.0,0.0,0.0,0.0,0.0,0.0,0.0,0.0,0.0,0.0202,0.0303,0.0504,0.1812,0.2515,0.3017,0.5225,0.6833,0.8038,0.8038,0.8038,0.8038,0.8038,0.8038,0.8038,0.8038,0.8038,0.8038,0.8038,0.8038,0.8038,0.8038,0.8038,0.8038,0.8038,0.8038,0.8038,0.8336,0.8333,0.8726,1.0096,1.1361,1.2624,1.368,1.4949,1.5832,1.5832,1.5832,1.5832,1.5832,1.5832,1.5832,1.5832,1.5832,1.5832,1.5832,1.5832,1.5832,1.5832,1.5832,1.5832,1.5832,1.5832,1.5832,1.5832,1.5832,1.5832,1.5832,1.5832,1.592,1.6204,1.7225,1.7777,1.8048,1.9314,1.9761,1.9943,2.1123,2.1569,2.1756,2.2677,2.3135,2.3135,2.3135,2.3135,2.3135,-0.894,-0.894,-0.894,-0.894,-0.894,-0.894,-0.894,-0.894,-0.894,-0.894,-0.7595,-0.6813,-0.6924,-0.4355,-0.2457,-0.2229,-0.1004,-0.0222,0.0,0.0,0.0,0.0,0.0,0.0,0.0,0.0,0.0,0.0,0.0,0.0,0.0,0.0,0.0,0.0,0.0,0.0,0.0,0.0,0.0,0.0101,0.131,0.1712,0.1913,0.3215,0.442,0.5527,0.5829,0.6833,0.8038,0.8038,0.8038,0.8038,0.8038,0.8038,0.8038,0.8038,0.8038,0.8038,0.8038,0.8038,0.8038,0.8038,0.8038,0.8038,0.8038,0.8038,0.8333,0.9509,0.9706,1.0096,1.1365,1.2716,1.368,1.3878,1.4949,1.5832,1.5832,1.5832,1.5832,1.5832,1.5832,1.5832,1.5832,1.5832,1.5832,1.5832,1.5832,1.5832,1.5832,1.5832,1.5832,1.5832,1.5832,1.5832,1.5832,1.5832,1.5832,1.5832,1.5832,1.6386,1.7412,1.7591,1.8234,1.9314,2.0567,2.1025,2.1114,2.2403,2.2862,2.2862,2.3047,2.3135,2.3135,2.3135,2.3135,2.3135,-0.894,-0.894,-0.894,-0.894,-0.894,-0.894,-0.894,-0.8156,-0.7706,-0.7706,-0.5582,-0.4467,-0.5363,-0.3463,-0.1901,-0.1008,-0.0336,0.0,0.0,0.0,0.0,0.0,0.0,0.0,0.0,0.0,0.0,0.0,0.0,0.0,0.0,0.0,0.0,0.0,0.0,0.0,0.0,0.0807,0.1109,0.1209,0.2614,0.3115,0.3215,0.462,0.5525,0.6129,0.6833,0.7537,0.8038,0.8038,0.8038,0.8038,0.8038,0.8038,0.8038,0.8038,0.8038,0.8038,0.8038,0.8038,0.8038,0.8038,0.8038,0.8038,0.8038,0.8531,0.9316,0.9899,0.9998,1.0583,1.2619,1.3488,1.4166,1.4854,1.5439,1.5832,1.5832,1.5832,1.5832,1.5832,1.5832,1.5832,1.5832,1.5832,1.5832,1.5832,1.5832,1.5832,1.5832,1.5832,1.5832,1.5832,1.5832,1.5832,1.5832,1.5832,1.5832,1.5832,1.5832,1.6109,1.6669,1.7412,1.7956,1.8596,2.0486,2.1293,2.1382,2.2589,2.3135,2.3135,2.3135,2.3135,2.3135,2.3135,2.3135,2.3135]},{"header":{"parameterUnit":"m.s-1","parameterCategory":1,"la1":30.6,"la2":28.766,"lo1":-90.7593,"lo2":-88.6598,"dy":0.0162,"dx":0.0183,"nx":116,"ny":114,"refTime":"2023-11-02T18:00:00:Z","depth":0,"parameterNumber":3,"parameterNumberName":"V-component_of_WINDS"},"data":[0.0,0.0,0.0,0.0,0.0,0.0,0.0,0.0,0.0,0.0,0.0,0.0,0.0,0.0,0.0,0.0,0.0,0.0,0.0,0.0,0.0,0.0,0.0,0.0,0.0,0.0,0.0,0.0,0.0,0.0,0.0,0.0,0.0,0.0,0.0,0.0,0.0,0.0,0.0,0.0,0.0,0.0,0.0,0.0,0.0,0.0,0.0,0.0,0.0,0.0,0.0,0.0,0.0,0.0,0.0,0.0,0.0,0.0,0.0,0.0,0.0,0.0,0.0,0.0,0.0,0.0,0.0,0.0,0.0,0.0,0.0,0.0,0.0,0.0,0.0,0.0,0.0,0.0,0.0,0.0,0.0,0.0,0.0,0.0,0.0,0.0,0.0,0.0,0.0,0.0,0.0,0.0,0.0,0.0,0.0,0.0,0.0,0.0,0.0,0.0,0.0,0.0,0.0,0.0,0.0,0.0,0.0,0.0,0.0,0.0,0.0,0.0,0.0,0.0,0.0,0.0,0.0,0.0,0.0,0.0,0.0,0.0,0.0,0.0,0.0,0.0,0.0,0.0,0.0,0.0,0.0,0.0,0.0,0.0,0.0,0.0,0.0,0.0,0.0,0.0,0.0,0.0,0.0,0.0,0.0,0.0,0.0,0.0,0.0,0.0,0.0,0.0,0.0,0.0,0.0,0.0,0.0,0.0,0.0,0.0,0.0,0.0,0.0,0.0,0.0,0.0,0.0,0.0,0.0,0.0,0.0,0.0,0.0,0.0,0.0,0.0,0.0,0.0,0.0,0.0,0.0,0.0,0.0,0.0,0.0,0.0,0.0,0.0,0.0,0.0,0.0,0.0,0.0,0.0,0.0,0.0,0.0,0.0,0.0,0.0,0.0,0.0,0.0,0.0,0.0,0.0,0.0,0.0,0.0,0.0,0.0,0.0,0.0,0.0,0.0,0.0,0.0,0.0,0.0,0.0,0.0,0.0,0.0,0.0,0.0,0.0,0.0,0.0,0.0,0.0,0.0,0.0,0.0,0.0,0.0,0.0,0.0,0.0,0.0,0.0,0.0,0.0,0.0,0.0,0.0,0.0,0.0,0.0,0.0,0.0,0.0,0.0,0.0,0.0,0.0,0.0,0.0,0.0,0.0,0.0,0.0,0.0,0.0,0.0,0.0,0.0,0.0,0.0,0.0,0.0,0.0,0.0,0.0,0.0,0.0,0.0,0.0,0.0,0.0,0.0,0.0,0.0,0.0,0.0,0.0,0.0,0.0,0.0,0.0,0.0,0.0,0.0,0.0,0.0,0.0,0.0,0.0,0.0,0.0,0.0,0.0,0.0,0.0,0.0,0.0,0.0,0.0,0.0,0.0,0.0,0.0,0.0,0.0,0.0,0.0,0.0,0.0,0.0,0.0,0.0,0.0,0.0,0.0,0.0,0.0,0.0,0.0,0.0,0.0,0.0,0.0,0.0,0.0,0.0,0.0,0.0,0.0,0.0,0.0,0.0,0.0,0.0,0.0,0.0,0.0,0.0,0.0,0.0,0.0,0.0,0.0,0.0,0.0,0.0,0.0,0.0,0.0,0.0,0.0,0.0,0.0,0.0,0.0,0.0,0.0,0.0,0.0,0.0,0.0,0.0,0.0,0.0,0.0,0.0,0.0,0.0,0.0,0.0,0.0,0.0,0.0,0.0,0.0,0.0,0.0,0.0,0.0,0.0,0.0,0.0,0.0,0.0,0.0,0.0,0.0,0.0,0.0,0.0,0.0,0.0,0.0,0.0,0.0,0.0,0.0,0.0,0.0,0.0,0.0,0.0,0.0,0.0,0.0,0.0,0.0,0.0,0.0,0.0,0.0,0.0,0.0,0.0,0.0,0.0,0.0,0.0,0.0,0.0,0.0,0.0,0.0,0.0,0.0,0.0,0.0,0.0,0.0,0.0,0.0,0.0,0.0,0.0,0.0,0.0,0.0,0.0,0.0,0.0,0.0,0.0,0.0,0.0,0.0,0.0,0.0,0.0,0.0,0.0,0.0,0.0,0.0,0.0,0.0,0.0,0.0,0.0,0.0,0.0,0.0,0.0,0.0,0.0,0.0,0.0,0.0,0.0,0.0,0.0,0.0,0.0,0.0,0.0,0.0,0.0,0.0,0.0,0.0,0.0,0.0,0.0,0.0,0.0,0.0,0.0,0.0,0.0,0.0,0.0,0.0,0.0,0.0,0.0,0.0,0.0,0.0,0.0,0.0,0.0,0.0,0.0,0.0,0.0,0.0,0.0,0.0,0.0,0.0,0.0,0.0,0.0,0.0,0.0,0.0,0.0,0.0,0.0,0.0,0.0,0.0,0.0,0.0,0.0,0.0,0.0,0.0,0.0,0.0,0.0,0.0,0.0,0.0,0.0,0.0,0.0,0.0,0.0,0.0,0.0,0.0,0.0,0.0,0.0,0.0,0.0,0.0,0.0,0.0,0.0,0.0,0.0,0.0,0.0,0.0,0.0,0.0,0.0,0.0,0.0,0.0,0.0,0.0,0.0,0.0,0.0,0.0,0.0,0.0,0.0,0.0,0.0,0.0,0.0,0.0,0.0,0.0,0.0,0.0,0.0,0.0,0.0,0.0,0.0,0.0,0.0,0.0,0.0,0.0,0.0,0.0,0.0,0.0,0.0,0.0,0.0,0.0,0.0,0.0,0.0,0.0,0.0,0.0,0.0,0.0,0.0,0.0,0.0,0.0,0.0,0.0,0.0,0.0,0.0,0.0,0.0,0.0,0.0,0.0,0.0,0.0,0.0,0.0,0.0,0.0,0.0,0.0,0.0,0.0,0.0,0.0,0.0,0.0,0.0,0.0,0.0,0.0,0.0,0.0,0.0,0.0,0.0,0.0,0.0,0.0,0.0,0.0,0.0,0.0,0.0,0.0,0.0,0.0,0.0,0.0,0.0,0.0,0.0,0.0,0.0,0.0,0.0,0.0,0.0,0.0,0.0,0.0,0.0,0.0,0.0,0.0,0.0,0.0,0.0,0.0,0.0,0.0,0.0,0.0,0.0,0.0,0.0,0.0,0.0,0.0,0.0,0.0,0.0,0.0,0.0,0.0,0.0,0.0,0.0,0.0,0.0,0.0,0.0,0.0,0.0,0.0,0.0,0.0,0.0,0.0,0.0,0.0,0.0,0.0,0.0,0.0,0.0,0.0,0.0,0.0,0.0,0.0,0.0,0.0,0.0,0.0,0.0,0.0,0.0,0.0,0.0,0.0,0.0,0.0,0.0,0.0,0.0,0.0,0.0,0.0,0.0,0.0,0.0,0.0,0.0,0.0,0.0,0.0,0.0,0.0,0.0,0.0,0.0,0.0,0.0,0.0,0.0,0.0,0.0,0.0,0.0,0.0,0.0,0.0,0.0,0.0,0.0,0.0,0.0,0.0,0.0,0.0,0.0,0.0,0.0,0.0,0.0,0.0,0.0,0.0,0.0,0.0,0.0,0.0,0.0,0.0,0.0,0.0,0.0,0.0,0.0,0.0,0.0,0.0,0.0,0.0,0.0,0.0,0.0,0.0,0.0,0.0,0.0,0.0,0.0,0.0,0.0,0.0,0.0,0.0,0.0,0.0,0.0,0.0,0.0,0.0,0.0,0.0,0.0,0.0,0.0,0.0,0.0,0.0,0.0,0.0,0.0,0.0,0.0,0.0,0.0,0.0,0.0,0.0,0.0,0.0,0.0,0.0,0.0,0.0,0.0,0.0,0.0,0.0,0.0,0.0,0.0,0.0,0.0,0.0,0.0,0.0,0.0,0.0,0.0,0.0,0.0,0.0,0.0,0.0,0.0,0.0,0.0,0.0,0.0,0.0,0.0,0.0,0.0,0.0,0.0,0.0,0.0,0.0,0.0,0.0,0.0,0.0,0.0,0.0,0.0,0.0,0.0,0.0,0.0,0.0,0.0,0.0,0.0,0.0,0.0,0.0,0.0,0.0,0.0,0.0,0.0,0.0,0.0,0.0,0.0,0.0,0.0,0.0,0.0,0.0,0.0,0.0,0.0,0.0,0.0,0.0,0.0,0.0,0.0,0.0,0.0,0.0,0.0,0.0,0.0,0.0,0.0,0.0,0.0,0.0,0.0,0.0,0.0,0.0,0.0,0.0,0.0,0.0,0.0,0.0,0.0,0.0,0.0,0.0,0.0,0.0,0.0,0.0,0.0,0.0,0.0,0.0,0.0,0.0,0.0,0.0,0.0,0.0,0.0,0.0,0.0,0.0,0.0,0.0,0.0,0.0,0.0,0.0,0.0,0.0,0.0,0.0,0.0,0.0,0.0,0.0,0.0,0.0,0.0,0.0,0.0,0.0,0.0,0.0,0.0,0.0,0.0,0.0,0.0,0.0,0.0,0.0,0.0,0.0,0.0,0.0,0.0,0.0,0.0,0.0,0.0,0.0,0.0,0.0,0.0,0.0,0.0,0.0,0.0,0.0,0.0,0.0,0.0,0.0,0.0,0.0,0.0,0.0,0.0,0.0,0.0,0.0,0.0,0.0,0.0,0.0,0.0,0.0,0.0,0.0,0.0,0.0,0.0,0.0,0.0,0.0,0.0,0.0,0.0,0.0,0.0,0.0,0.0,0.0,0.0,0.0,0.0,0.0,0.0,0.0,0.0,0.0,0.0,0.0,0.0,0.0,0.0,0.0,0.0,0.0,0.0,0.0,0.0,0.0,0.0,0.0,0.0,0.0,0.0,0.0,0.0,0.0,0.0,0.0,0.0,0.0,0.0,0.0,0.0,0.0,0.0,0.0,0.0,0.0,0.0,0.0,0.0,0.0,0.0,0.0,0.0,0.0,0.0,0.0,0.0,0.0,0.0,0.0,0.0,0.0,0.0,0.0,0.0,0.0,0.0,0.0,0.0,0.0,0.0,0.0,0.0,0.0,0.0,0.0,0.0,0.0,0.0,0.0,0.0,0.0,0.0,0.0,0.0,0.0,0.0,0.0,0.0,0.0,0.0,0.0,0.0,0.0,0.0,0.0,0.0,0.0,0.0,0.0,0.0,0.0,0.0,0.0,0.0,0.0,0.0,0.0,0.0,0.0,0.0,0.0,0.0,0.0,0.0,0.0,0.0,0.0,0.0,0.0,0.0,0.0,0.0,0.0,0.0,0.0,0.0,0.0,0.0,0.0,0.0,0.0,0.0,0.0,0.0,0.0,0.0,0.0,0.0,0.0,0.0,0.0,0.0,0.0,0.0,0.0,0.0,0.0,0.0,0.0,0.0,0.0,0.0,0.0,0.0,0.0,0.0,0.0,0.0,0.0,0.0,0.0,0.0,0.0,0.0,0.0,0.0,0.0,0.0,0.0,0.0,0.0,0.0,0.0,0.0,0.0,0.0,0.0,0.0,0.0,0.0,0.0,0.0,0.0,0.0,0.0,0.0,0.0,0.0,0.0,0.0,0.0,0.0,0.0,0.0,0.0,0.0,0.0,0.0,0.0,0.0,0.0,0.0,0.0,0.0,0.0,0.0,0.0,0.0,0.0,0.0,0.0,0.0,0.0,0.0,0.0,0.0,0.0,0.0,0.0,0.0,0.0,0.0,0.0,0.0,0.0,0.0,0.0,0.0,0.0,0.0,0.0,0.0,0.0,0.0,0.0,0.0,0.0,0.0,0.0,0.0,0.0,0.0,0.0,0.0,0.0,0.0,0.0,0.0,0.0,0.0,0.0,0.0,0.0,0.0,0.0,0.0,0.0,0.0,0.0,0.0,0.0,0.0,0.0,0.0,0.0,0.0,0.0,0.0,0.0,0.0,0.0,0.0,0.0,0.0,0.0,0.0,0.0,0.0,0.0,0.0,0.0,0.0,0.0,0.0,0.0,0.0,0.0,0.0,0.0,0.0,0.0,0.0,0.0,0.0,0.0,0.0,0.0,0.0,0.0,0.0,0.0,0.0,0.0,0.0,0.0,0.0,0.0,0.0,0.0,0.0,0.0,0.0,0.0,0.0,0.0,0.0,0.0,0.0,0.0,0.0,0.0,0.0,0.0,0.0,0.0,0.0,0.0,0.0,0.0,0.0,0.0,0.0,0.0,0.0,0.0,0.0,0.0,0.0,0.0,0.0,0.0,0.0,-1.8374,0.0,0.0,0.0,0.0,0.0,0.0,0.0,0.0,0.0,0.0,0.0,0.0,0.0,0.0,0.0,0.0,0.0,0.0,0.0,0.0,0.0,0.0,0.0,0.0,0.0,0.0,0.0,0.0,0.0,0.0,0.0,0.0,0.0,0.0,0.0,0.0,0.0,0.0,0.0,0.8804,0.8646,0.8262,0.8262,0.848,0.8804,0.0,0.0,0.0,0.0,0.0,0.0,0.0,0.0,0.0,0.0,0.0,0.0,0.0,0.0,0.0,0.0,0.0,0.0,0.0,0.0,0.0,0.0,0.0,0.0,0.0,0.0,0.0,0.0,0.0,0.0,0.0,0.0,0.0,0.0,0.0,0.0,0.0,0.0,0.0,0.0,0.0,0.0,0.0,0.0,0.0,0.0,0.0,0.0,0.0,0.0,0.0,0.0,0.0,0.0,0.0,0.0,0.0,0.0,0.0,0.0,0.0,0.0,0.0,0.0,0.0,0.0,0.0,0.0,0.0,0.0,0.0,-1.9253,0.0,0.0,0.0,0.0,0.0,0.0,0.0,0.0,0.0,0.0,0.0,0.0,0.0,0.0,0.0,0.0,0.0,0.0,0.0,0.0,0.0,0.0,0.0,0.0,0.8804,0.8804,0.8804,0.8804,0.0,0.0,0.0,0.0,0.0,0.0,0.0,0.0,0.0,0.8593,0.8532,0.817,0.7572,0.7563,0.7889,0.8491,0.8718,0.0,0.0,0.0,0.0,0.0,0.0,0.0,0.0,0.0,0.0,0.0,0.0,0.0,0.0,0.0,0.0,0.0,0.0,0.0,0.0,0.0,0.0,0.0,0.0,0.0,0.0,0.0,0.0,0.0,0.0,0.0,0.0,0.0,0.0,0.0,0.0,0.0,0.0,0.0,0.0,0.0,0.0,0.0,0.0,0.0,0.0,0.0,0.0,0.0,0.0,0.0,0.0,0.0,0.0,0.0,0.0,0.0,0.0,0.0,0.0,0.0,0.0,0.0,-1.7844,-1.7944,-1.8044,-1.8388,-1.8982,-1.9687,-2.004,-1.9984,-1.9717,-2.0441,0.0,0.0,0.0,0.0,0.0,0.0,0.0,0.0,0.0,0.0,0.0,0.0,0.0,0.0,0.0,0.0,0.0,0.0,0.0,0.0,0.0,0.7996,0.8804,0.8804,0.8804,0.8804,0.0,0.0,0.0,0.0,0.0,0.0,0.0,0.8804,0.848,0.783,0.7384,0.7089,0.6982,0.7123,0.7165,0.7191,0.8315,0.8804,0.8804,0.0,0.0,0.0,0.0,0.0,0.0,0.0,0.0,0.0,0.0,0.0,0.0,0.0,0.0,0.0,0.0,0.0,0.0,0.0,0.0,0.0,0.0,0.0,0.0,0.0,0.0,0.0,0.0,0.0,0.0,0.0,0.0,0.0,0.0,0.0,0.0,0.0,0.0,0.0,0.0,0.0,-0.6465,-0.6548,0.0,0.0,0.0,0.0,0.0,0.0,0.0,0.0,0.0,0.0,0.0,0.0,0.0,-1.5286,-1.6376,-1.6376,-1.6954,-1.8051,-1.8521,-1.8965,-1.9366,-1.9832,-2.0297,-2.0799,-2.0861,0.0,-2.0471,-2.1591,0.0,0.0,0.0,0.0,0.0,0.0,0.0,0.0,0.0,0.0,0.0,0.0,0.0,0.0,0.0,0.0,0.0,0.0,0.0,0.0,0.0,0.6907,0.7563,0.7563,0.7563,0.7563,0.7563,0.7937,0.0,0.0,0.0,0.8804,0.8804,0.8374,0.7901,0.7262,0.7156,0.7143,0.7148,0.7667,0.7656,0.7143,0.8136,0.8214,0.7616,0.7996,0.0,0.0,0.0,0.0,0.0,0.0,0.0,0.0,0.0,0.0,0.0,0.0,0.0,0.0,0.0,0.0,0.0,0.0,0.0,0.0,0.0,0.0,0.0,0.0,0.0,0.0,0.0,0.0,0.0,0.0,0.0,0.0,0.0,0.0,0.0,0.0,0.0,0.0,0.0,-0.6421,-0.6912,-0.7723,-0.8103,-0.8315,0.0,0.0,0.0,0.0,0.0,0.0,0.0,0.0,0.0,-1.4283,-1.4869,-1.5752,-1.687,-1.6912,-1.7327,-1.8106,-1.8341,-1.8559,-1.876,-1.9259,-1.9636,-1.9849,-2.0366,-2.0541,-2.0464,-2.1497,-2.1699,-2.149,0.0,0.0,0.0,0.0,-2.3082,-2.3325,0.0,0.0,0.0,0.0,0.0,0.0,0.0,0.0,0.0,0.0,0.0,0.0,0.5487,0.6145,0.6588,0.6588,0.6588,0.6588,0.6588,0.7128,0.0,0.0,0.0,0.8625,0.8918,0.8056,0.748,0.7128,0.723,0.7363,0.7675,0.8354,0.8287,0.767,0.7915,0.757,0.6754,0.7296,0.7486,0.7486,0.0,0.0,0.0,0.0,0.0,0.0,0.0,0.0,0.0,0.0,0.0,0.0,0.0,0.0,0.0,0.0,0.0,0.0,0.0,0.0,0.0,0.0,0.0,0.0,0.0,0.0,0.0,0.0,0.0,0.0,0.0,0.0,0.0,0.0,0.0,0.0,0.0,-0.675,-0.7343,-0.8646,-0.8804,-0.8804,0.0,0.0,0.0,0.0,0.0,0.0,-1.2618,-1.3351,-1.4003,-1.4468,-1.505,-1.5796,-1.6617,-1.6617,-1.6899,-1.7464,-1.7599,-1.7773,-1.7907,-1.8458,-1.8765,-1.893,-1.9636,-2.0039,-2.0227,-2.107,-2.143,-2.1491,-2.1928,-2.2106,-2.2163,-2.2483,-2.2634,-2.2772,0.0,0.0,0.0,0.0,0.0,0.0,0.0,0.0,0.0,0.0,0.0,0.5487,0.5487,0.6145,0.6588,0.6588,0.6588,0.6588,0.6588,0.6642,0.6966,0.767,0.7723,0.8219,0.9157,0.8082,0.7578,0.7644,0.7311,0.7576,0.8523,0.8732,0.8717,0.8518,0.7576,0.7113,0.7077,0.6979,0.6946,0.693,0.6723,0.0,0.0,0.0,0.0,0.0,0.0,0.0,0.0,0.0,0.0,0.0,0.0,0.0,0.0,0.0,0.0,0.0,0.0,0.0,0.0,0.0,0.0,0.0,0.0,0.0,0.0,0.0,0.0,0.0,0.0,0.0,0.0,0.0,0.0,0.0,0.0,0.0,0.0,-0.8699,-0.8804,0.0,0.0,0.0,0.0,-0.9814,-1.0517,-1.1166,-1.1814,-1.3082,-1.3815,-1.3815,-1.4422,-1.4789,-1.4835,-1.4835,-1.5141,-1.5708,-1.6262,-1.6773,-1.7353,-1.7907,-1.8419,-1.8893,-1.8968,-1.9244,-1.9782,-2.0665,-2.1023,-2.1055,-2.146,-2.1658,-2.1688,-2.2163,-2.2473,-2.2695,0.0,0.0,0.0,0.0,0.0,0.0,0.0,0.0,0.4519,0.4519,0.4736,0.4882,0.4989,0.5227,0.5388,0.5502,0.551,0.551,0.551,0.5972,0.6316,0.6606,0.7067,0.7285,0.726,0.693,0.662,0.6348,0.6974,0.7794,0.8943,0.9601,0.9946,0.9862,0.9504,0.8928,0.8113,0.692,0.6693,0.7017,0.688,0.6709,0.0,0.0,0.0,0.0,0.0,0.0,0.0,0.0,0.0,0.0,0.0,0.0,0.0,0.0,0.0,0.0,0.0,0.0,0.0,0.0,0.0,0.0,0.0,0.0,0.0,0.0,0.0,0.0,0.0,0.0,0.0,0.0,0.0,0.0,0.0,0.0,0.0,-0.7937,-0.8103,0.0,-0.8752,-0.9211,-0.9562,-0.9762,-1.0415,-1.1116,-1.1765,-1.2248,-1.289,-1.3768,-1.4003,-1.4329,-1.4698,-1.4698,-1.4789,-1.5005,-1.562,-1.6015,-1.6232,-1.7162,-1.7867,-1.838,-1.838,-1.8688,-1.9207,-1.9528,-2.0008,-2.0583,-2.1039,-2.1213,-2.1291,-2.1705,-2.1924,-2.2074,0.0,0.0,0.0,0.0,0.0,0.0,0.0,0.0,0.4519,0.4519,0.4519,0.4577,0.4674,0.4691,0.4752,0.4904,0.4918,0.4918,0.4918,0.5634,0.6078,0.6075,0.6936,0.707,0.6371,0.6671,0.6682,0.6312,0.7222,0.8147,0.9296,0.998,1.0509,1.0881,1.0501,1.0234,0.9882,0.8093,0.7393,0.7472,0.7272,0.7011,0.6809,0.0,0.0,0.0,0.0,0.0,0.0,0.0,0.0,0.0,0.0,0.0,0.0,0.0,0.0,0.0,0.0,0.0,0.0,0.0,0.0,0.0,0.0,0.0,0.0,0.0,0.0,0.0,0.0,0.0,0.0,0.0,0.0,0.0,0.0,0.0,-0.5977,-0.7182,-0.7637,-0.8075,-0.8568,-0.9295,-0.9882,-1.0097,-1.0508,-1.1072,-1.1748,-1.2015,-1.2577,-1.3492,-1.3749,-1.4094,-1.4473,-1.4483,-1.4628,-1.4821,-1.5238,-1.5475,-1.552,-1.6272,-1.694,-1.7518,-1.7518,-1.7959,-1.8612,-1.8612,-1.8999,-1.9641,-2.0434,-2.0748,-2.0829,-2.1244,-2.1491,-2.1702,0.0,0.0,0.0,0.0,0.0,0.0,0.0,0.4519,0.4519,0.4519,0.4519,0.4577,0.468,0.4697,0.4762,0.4918,0.4938,0.4942,0.4942,0.5718,0.6218,0.6207,0.7281,0.7568,0.67,0.7286,0.7633,0.7799,0.7998,0.866,0.9634,0.9644,1.0293,1.1416,1.0433,1.0813,1.2177,1.0368,0.9087,0.8296,0.785,0.7435,0.7162,0.0,0.0,0.0,0.0,0.0,0.0,0.0,0.0,0.0,0.0,0.0,0.0,0.0,0.0,0.0,0.0,0.0,0.0,0.0,0.0,0.0,0.0,0.0,0.0,0.0,0.0,0.0,0.0,0.0,0.0,0.0,0.0,0.0,-0.5101,-0.5437,-0.5769,-0.6485,-0.7516,-0.8179,-0.8179,-0.9106,-0.9962,-1.0629,-1.0686,-1.0956,-1.1615,-1.241,-1.2868,-1.2922,-1.3638,-1.4077,-1.4077,-1.4077,-1.445,-1.5081,-1.5091,-1.5188,-1.5304,-1.5341,-1.5707,-1.6403,-1.6416,-1.7037,-1.8066,-1.8066,-1.8066,-1.821,-1.9692,-2.028,-2.0314,-2.0797,-2.1244,-2.1685,0.0,0.0,0.0,0.0,0.0,0.0,0.0,0.4519,0.4519,0.4519,0.4519,0.4562,0.4826,0.4857,0.4958,0.522,0.5342,0.5406,0.5406,0.5702,0.5913,0.5887,0.6297,0.654,0.6446,0.668,0.686,0.6979,0.7184,0.7866,0.895,0.9096,0.9672,1.0605,1.1095,1.1497,1.1751,1.2076,1.1828,1.0941,0.8215,0.7259,0.7481,0.0,0.0,0.0,0.0,0.0,0.0,0.0,0.0,0.0,0.0,0.0,0.0,0.0,0.0,0.0,0.0,0.0,0.0,0.0,0.0,0.0,0.0,0.0,0.0,0.0,0.0,0.0,0.0,0.0,0.0,0.0,0.0,-0.1778,-0.2959,-0.4147,-0.519,-0.5923,-0.6383,-0.7091,-0.8259,-0.8615,-0.9072,-0.9904,-0.9962,-1.0301,-1.0956,-1.1182,-1.1799,-1.2868,-1.3086,-1.3521,-1.4077,-1.4077,-1.4184,-1.4397,-1.4872,-1.5122,-1.519,-1.6162,-1.6468,-1.62,-1.6839,-1.7035,-1.6886,-1.7327,-1.7504,-1.7626,-1.8826,-1.9273,-1.9383,-2.0196,-2.0959,-2.1612,0.0,0.0,0.0,0.0,0.0,0.0,0.0,0.4519,0.4519,0.4519,0.4519,0.4579,0.4887,0.4918,0.5036,0.5401,0.5501,0.5589,0.5589,0.5844,0.6138,0.6574,0.6423,0.6352,0.6444,0.6647,0.6797,0.6885,0.7105,0.756,0.8259,0.829,0.8769,0.978,1.0879,1.1466,1.1729,1.2891,1.312,1.2447,0.9729,0.8337,0.794,0.7163,0.6773,0.6506,0.6,0.5701,0.5485,0.4757,0.0,0.0,0.0,0.0,0.0,0.0,0.0,0.0,0.0,0.0,0.0,0.0,0.0,0.0,0.0,0.0,0.0,0.0,0.0,0.0,0.0,0.0,0.0,0.0,-0.087,-0.1407,-0.2213,-0.3426,-0.4539,-0.531,-0.5876,-0.6707,-0.7974,-0.8497,-0.912,-0.9987,-1.0053,-1.0227,-1.0632,-1.0975,-1.1549,-1.2423,-1.3121,-1.3698,-1.4157,-1.4501,-1.4668,-1.4668,-1.5054,-1.5117,-1.4999,-1.5805,-1.5974,-1.5733,-1.6226,-1.6539,-1.6708,-1.6823,-1.7041,0.0,0.0,0.0,0.0,0.0,-2.0601,-2.1102,0.0,0.0,0.0,0.0,0.0,0.0,0.0,0.4519,0.4519,0.4519,0.4519,0.4572,0.486,0.4908,0.5033,0.5311,0.5491,0.5603,0.5637,0.6044,0.6666,0.7423,0.6983,0.6749,0.6749,0.7041,0.719,0.719,0.7465,0.76,0.7597,0.7461,0.7935,0.8997,0.9957,1.0963,1.1862,1.294,1.3358,1.3134,1.1821,1.0243,0.8643,0.8103,0.7278,0.6362,0.5897,0.5748,0.569,0.4811,0.0,0.0,0.0,0.0,0.0,0.0,0.0,0.0,0.0,0.0,0.0,0.0,0.0,0.0,0.0,0.0,0.0,0.0,0.0,0.0,0.0,0.0,0.0,0.0,-0.0534,-0.1318,-0.2216,-0.2911,-0.3717,-0.4822,-0.5751,-0.6602,-0.7529,-0.8419,-0.9396,-1.0364,-1.0434,-1.0498,-1.0561,0.0,0.0,0.0,0.0,-1.3965,-1.4085,-1.4746,-1.5167,-1.5235,-1.5235,-1.5157,-1.4853,-1.4966,-1.5004,-1.5059,-1.5206,-1.5877,-1.6828,-1.6539,-1.6795,-1.7536,-1.7853,-1.838,-1.9006,-1.9849,-2.0212,-2.0416,0.0,0.0,0.0,0.0,0.0,0.0,0.0,0.4519,0.4519,0.4519,0.4519,0.4587,0.4714,0.4847,0.4989,0.5162,0.543,0.5691,0.5928,0.6251,0.651,0.6745,0.6915,0.7054,0.7054,0.7353,0.7512,0.7512,0.757,0.76,0.76,0.757,0.7646,0.7916,0.8919,0.9967,1.1066,1.2089,1.2964,1.3466,1.3185,1.206,1.0277,0.8112,0.7432,0.7412,0.5794,0.5487,0.5711,0.4941,0.4565,0.4519,0.4519,0.0,0.0,0.0,0.0,0.0,0.0,0.0,0.0,0.0,0.0,0.0,0.0,0.0,0.0,0.0,0.0,0.0,0.0,0.0,0.0,0.0,-0.0125,-0.0508,-0.1403,-0.1626,-0.2546,-0.4782,-0.5352,-0.5963,-0.6794,-0.7089,-0.7827,-0.946,-0.953,-0.9849,-1.0561,-1.0744,-1.1108,-1.1772,-1.2074,-1.2565,-1.3252,-1.3373,-1.3795,-1.4451,0.0,0.0,-1.5283,-1.5914,-1.567,-1.4934,-1.5978,-1.6079,-1.5577,-1.6512,-1.7375,-1.8033,-1.7607,-1.8066,-1.893,-1.9103,-1.9636,-2.0314,0.0,0.0,0.0,0.0,0.0,0.0,0.0,0.4519,0.4519,0.4519,0.4519,0.4577,0.4674,0.4826,0.4975,0.5118,0.5477,0.5789,0.6017,0.638,0.6586,0.6586,0.7017,0.7255,0.7255,0.7553,0.7706,0.7706,0.7784,0.7821,0.7818,0.774,0.7706,0.7699,0.8737,0.9786,1.085,1.197,1.2991,1.3841,1.354,1.2916,1.1821,0.9301,0.8023,0.7436,0.5847,0.5545,0.578,0.4947,0.4809,0.4948,0.4625,0.4519,0.4519,0.0,0.0,0.0,0.0,0.0,0.0,0.0,0.0,0.0,0.0,0.0,0.0,0.0,0.0,0.1954,0.0,0.0,0.0,0.0,0.0,-0.0324,-0.1181,-0.1329,-0.2131,-0.4265,-0.4644,-0.5213,-0.6588,-0.6719,-0.7242,-0.8549,-0.9075,-0.9466,-0.9919,-1.0364,-1.0807,-1.117,-1.1586,-1.202,-1.2389,-1.2818,-1.3191,-1.3606,-1.3606,-1.3795,-1.4204,-1.461,-1.4683,-1.4562,-1.5209,-1.5603,-1.5846,-1.6636,-1.6997,-1.7121,-1.718,-1.7939,-1.899,-1.9238,-1.9455,-1.9677,0.0,0.0,0.0,0.0,0.0,0.0,0.0,0.4519,0.4519,0.4519,0.4519,0.4567,0.4633,0.4782,0.4945,0.5114,0.5488,0.5793,0.5973,0.6407,0.6668,0.6698,0.7132,0.7387,0.7414,0.7675,0.7824,0.7855,0.798,0.8038,0.8035,0.7913,0.7855,0.7848,0.8883,0.9902,1.0915,1.207,1.3151,1.4041,1.3507,1.326,1.2982,1.0614,0.8861,0.7443,0.6131,0.5736,0.5671,0.5126,0.5118,0.5218,0.4842,0.4625,0.4519,0.4519,0.4519,0.0,0.0,0.0,0.0,0.0,0.0,0.0,0.0,0.0,0.4507,0.4337,0.3352,0.2429,0.2087,0.1039,0.0189,0.0,0.0,-0.0262,-0.0937,-0.1074,-0.1676,-0.3278,-0.3816,-0.4677,-0.6264,-0.6461,-0.6789,-0.7697,-0.842,-0.8941,-0.9274,-0.9983,-1.0428,-1.0561,-1.1226,-1.1593,-1.1593,-1.2212,-1.2642,-1.2765,-1.2765,-1.2818,-1.3009,-1.3009,-1.3425,-1.4213,-1.4392,-1.5206,-1.6507,-1.6667,-1.6541,-1.6343,-1.6954,-1.7898,-1.8999,-1.9463,-1.941,-1.9169,0.0,0.0,0.0,0.0,0.0,0.0,0.0,0.0,0.4519,0.4519,0.4519,0.4525,0.4539,0.4623,0.4826,0.5104,0.5301,0.5528,0.581,0.6247,0.6559,0.6695,0.7132,0.7434,0.757,0.7729,0.7879,0.8014,0.8031,0.8038,0.8038,0.8021,0.8014,0.8001,0.8938,0.9974,1.1116,1.1953,1.3058,1.4055,1.3728,1.344,1.2982,1.1298,0.9807,0.8419,0.7052,0.5923,0.5097,0.5671,0.5274,0.468,0.5218,0.5003,0.4519,0.4519,0.0,0.4519,0.4519,0.4519,0.0,0.4519,0.4519,0.4519,0.0,0.0,0.449,0.3845,0.3649,0.3145,0.1649,0.1279,0.0907,0.0134,0.0,-0.0067,-0.0135,-0.0135,-0.0538,-0.1474,-0.3011,-0.4417,-0.5422,-0.5557,-0.5881,-0.6785,-0.6915,-0.7697,-0.9204,-0.9402,-0.9786,-1.0561,-1.0688,-1.0744,-1.0744,-1.0807,-1.1233,-1.195,-1.195,-1.2328,-1.3009,-1.3009,-1.3425,-1.4273,-1.4932,-1.5748,-1.6482,-1.6543,-1.686,-1.741,-1.7519,-1.8058,-1.8742,-1.9016,-1.9342,-1.9716,0.0,0.0,0.0,0.0,0.0,0.0,0.0,0.0,0.0,0.4519,0.4519,0.4519,0.4519,0.4599,0.4775,0.4989,0.5226,0.548,0.5538,0.6051,0.6376,0.6441,0.6953,0.7265,0.7333,0.7567,0.7719,0.7784,0.7784,0.7784,0.7784,0.7784,0.8161,0.8814,0.9137,1.0292,1.1969,1.2294,1.2997,1.3801,1.3514,1.3106,1.2536,1.1571,1.0303,0.8881,0.7302,0.6168,0.0,0.5285,0.5433,0.5609,0.5113,0.5003,0.5003,0.4625,0.4519,0.0,0.4519,0.4519,0.0,0.0,0.4596,0.4619,0.4707,0.4775,0.4703,0.4401,0.4072,0.3602,0.2881,0.1953,0.1192,0.0,0.0337,0.0,0.0,0.0,-0.0337,-0.1207,-0.1942,-0.3011,-0.442,-0.4553,-0.4951,-0.5877,-0.6396,-0.7046,-0.7767,-0.8291,-0.8941,-0.9786,-0.9849,-1.011,-1.0624,-1.0624,-1.0744,-1.1108,-1.1108,-1.1296,-1.16,-1.16,-1.2027,-1.287,-1.3666,-1.4204,-1.4483,-1.4483,-1.4641,-1.5032,-1.5887,-1.6444,-1.6894,-1.8283,-1.9029,-1.9407,0.0,0.0,0.0,0.0,0.0,0.0,0.0,0.0,0.0,0.0,0.4519,0.4519,0.4519,0.4562,0.4691,0.4843,0.5053,0.5294,0.5418,0.581,0.6132,0.6254,0.6709,0.6997,0.7082,0.7302,0.7455,0.7536,0.7902,0.8016,0.8059,0.843,0.8955,0.9631,0.994,1.088,1.2337,1.2617,1.3052,1.3494,1.3113,1.2692,1.2225,1.147,1.039,0.9134,0.7757,0.6839,0.6189,0.576,0.6043,0.648,0.566,0.5601,0.5706,0.5226,0.4952,0.4798,0.4842,0.4692,0.0,0.4714,0.4755,0.4782,0.4894,0.4948,0.4975,0.4975,0.458,0.4151,0.3893,0.2838,0.1942,0.1742,0.094,0.0336,0.0336,0.0135,-0.0202,-0.0873,-0.094,-0.1542,-0.3078,-0.368,-0.4284,-0.4957,-0.5807,-0.6461,-0.6719,-0.7307,-0.8027,-0.8941,-0.8941,-0.9262,-0.9907,-0.9907,-0.9977,-1.0238,-1.0238,-1.0364,-1.0624,-1.0807,-1.1226,-1.1826,-1.2634,-1.3009,-1.3009,-1.3009,-1.3009,-1.3122,-1.4455,-1.5139,-1.5533,-1.7423,-1.8331,-1.8653,0.0,0.0,0.0,0.0,0.0,0.0,0.0,0.0,0.0,0.0,0.0,0.0,0.0,0.4522,0.4587,0.4684,0.4707,0.4894,0.5401,0.5518,0.5806,0.624,0.641,0.663,0.6929,0.6946,0.7088,0.738,0.854,0.9076,0.9254,1.0445,1.0879,1.0578,1.1598,1.1878,1.1798,1.2792,1.316,1.3173,1.2572,1.2318,1.2178,1.1022,1.006,0.9238,0.89,0.7941,0.6971,0.7582,0.7257,0.6696,0.7396,0.7128,0.0,0.6534,0.6036,0.5525,0.5714,0.5254,0.4721,0.4874,0.4911,0.4914,0.4918,0.5023,0.5125,0.5125,0.5247,0.5084,0.4146,0.3946,0.3613,0.2811,0.1876,0.1274,0.1274,0.0538,0.0,-0.0067,-0.0067,-0.0404,0.0,-0.2945,-0.4015,-0.4015,-0.4888,-0.5815,-0.6654,-0.6719,-0.7111,-0.8027,-0.8027,-0.8027,-0.8091,-0.8091,-0.8484,-0.9338,-0.9338,-0.9786,-1.0624,-1.1413,-1.1772,-1.1826,-1.2634,-1.3009,-1.3009,-1.3009,-1.3009,-1.307,-1.3906,-1.4641,-1.5418,-1.6234,-1.7024,-1.7665,0.0,0.0,0.0,0.0,0.0,0.0,0.0,0.0,0.0,0.0,0.0,0.0,0.0,0.0,0.0,0.0,0.4633,0.4755,0.4908,0.5243,0.5504,0.5727,0.5993,0.6274,0.6481,0.6576,0.6722,0.6926,0.8021,0.8556,0.8618,0.963,1.0521,1.1194,1.1529,1.2011,1.2472,1.2784,1.2679,1.2285,1.1884,1.149,1.1082,1.0488,0.984,0.9201,0.0,0.8132,0.6941,0.702,0.7193,0.7289,0.702,0.7128,0.7235,0.675,0.6188,0.5688,0.5755,0.5346,0.4877,0.5023,0.506,0.5087,0.5189,0.525,0.5284,0.5284,0.5325,0.5292,0.4957,0.4417,0.3882,0.3613,0.2811,0.2009,0.1407,0.1074,0.0672,0.0067,0.0,0.0,0.0,0.0,0.0,-0.3078,-0.3949,-0.4616,-0.4872,-0.5477,-0.6268,-0.7111,-0.7111,-0.7437,-0.8027,-0.8027,-0.8156,-0.842,-0.842,-0.8877,-0.9722,-1.0028,-1.0471,-1.1045,-1.1296,-1.1421,-1.1421,-1.1421,-1.1421,-1.1483,-1.2266,-1.2732,-1.3072,-1.3879,-1.4355,-1.4857,0.0,0.0,0.0,0.0,0.0,0.0,0.0,0.0,0.0,0.0,0.0,0.0,0.0,0.0,0.0,0.0,0.0,0.4912,0.4687,0.5204,0.5485,0.5274,0.5606,0.5864,0.6017,0.646,0.6769,0.6929,0.8339,0.9006,0.9077,1.0105,1.1002,1.1621,1.1621,1.186,1.2265,1.2164,1.1904,1.1523,1.1116,1.0735,1.0354,0.9953,0.9508,0.0,0.9064,0.841,0.7549,0.7453,0.7723,0.7996,0.7557,0.7723,0.7955,0.728,0.6631,0.6143,0.5986,0.5457,0.503,0.5176,0.5213,0.524,0.5338,0.5318,0.5281,0.5281,0.5281,0.5281,0.5281,0.4857,0.4483,0.4483,0.3747,0.2945,0.2342,0.2009,0.1475,0.0538,0.0471,0.0337,0.0,0.0,0.0,-0.2143,-0.3011,-0.3547,-0.3547,-0.4417,-0.515,-0.5731,-0.6067,-0.6531,-0.7055,-0.7055,-0.7246,-0.7567,-0.7827,-0.8285,-0.8877,-0.9139,-0.9594,-1.0174,-1.0428,-1.0624,-1.0624,-1.0624,-1.0624,-1.0618,-1.1142,-1.1315,-1.1377,-1.1912,-1.2281,-1.2838,0.0,0.0,0.0,0.0,0.0,0.0,0.0,0.0,0.0,0.0,0.0,0.0,0.0,0.0,0.0,0.0,0.0,0.0,0.484,0.5485,0.5632,0.522,0.5383,0.5543,0.57,0.6604,0.7195,0.7298,0.9325,1.0399,1.0564,1.1691,1.2064,1.1804,1.1804,1.1637,1.1343,1.1062,1.0942,1.0875,1.0301,1.0074,1.0013,0.9382,0.9163,0.913,0.8905,0.8804,0.8804,0.8804,0.8804,0.8804,0.8804,0.8818,0.8718,0.8078,0.7486,0.6856,0.6339,0.5698,0.524,0.5391,0.5428,0.5425,0.5418,0.5237,0.5131,0.5131,0.5191,0.5195,0.0,0.0,0.5425,0.5428,0.4686,0.4082,0.4015,0.3278,0.241,0.0,0.0,0.0,0.0,0.0,0.0,-0.114,0.0,-0.2611,-0.2611,-0.348,-0.3949,-0.3949,-0.4821,-0.5292,-0.5362,-0.5362,-0.5815,-0.6654,-0.7437,-0.7897,-0.7962,-0.8812,-0.921,-0.9268,-1.011,-1.0498,-1.0498,-1.0498,-1.0498,-1.0485,-1.0382,-1.0362,-1.0355,-1.0302,-1.0864,-1.1697,0.0,0.0,0.0,0.0,0.0,0.0,0.0,0.0,0.0,0.0,0.0,0.0,0.0,0.0,0.0,0.0,0.0,0.0,0.6064,0.6426,0.6554,0.6429,0.6569,0.671,0.6848,0.7095,0.7339,0.7467,0.8737,0.9374,0.9438,1.0526,1.1028,1.096,1.096,1.0728,1.0441,1.0374,1.0214,0.9987,0.9613,0.9409,0.9369,0.9058,0.8918,0.8911,0.8831,0.0,0.0,0.0,0.0,0.0,0.0,0.8958,0.8919,0.8126,0.8068,0.8023,0.6595,0.6225,0.6144,0.5547,0.5428,0.5332,0.5216,0.5159,0.5255,0.5947,0.6073,0.6109,0.0,0.0,0.0,0.5491,0.5226,0.0,0.4082,0.3813,0.0,0.2477,0.0,0.2009,0.1074,0.0939,0.0,0.0,-0.1141,-0.1675,-0.1675,-0.2544,-0.3011,-0.3011,-0.328,-0.3682,-0.435,-0.5024,-0.5491,-0.5752,-0.5951,-0.6404,-0.7046,-0.7242,-0.7702,-0.8355,-0.8544,-0.8672,-0.8672,-0.8672,-0.8672,-0.8672,-0.8661,-0.8656,-0.8656,-0.8645,-0.9163,-0.9945,0.0,0.0,0.0,0.0,0.0,0.0,0.0,0.0,0.0,0.0,0.0,0.0,0.0,0.0,0.0,0.0,0.0,0.0,0.0,0.7028,0.7096,0.6769,0.6917,0.7037,0.7101,0.7557,0.7787,0.7913,0.8854,0.9291,0.9291,0.9923,1.0241,1.0241,1.0241,1.0087,0.992,0.9786,0.9639,0.0,0.0,0.9051,0.9031,0.8871,0.8804,0.8804,0.0,0.0,0.0,0.0,0.0,0.8804,0.8804,0.9005,0.9036,0.8342,0.0,0.8505,0.7297,0.7154,0.7177,0.6662,0.6408,0.6342,0.6382,0.6186,0.6216,0.6857,0.7001,0.0,0.7144,0.0,0.0,0.0,0.0,0.0,0.4686,0.4619,0.4284,0.0,0.3316,0.0,0.2115,0.2069,0.1739,0.0,-0.0204,-0.0739,-0.0739,-0.1609,-0.2075,-0.2075,-0.2477,-0.2945,-0.3411,-0.3949,-0.4217,-0.4217,-0.4619,-0.5014,-0.5533,-0.6322,-0.6981,-0.7437,-0.7832,-0.8027,-0.8027,-0.8027,-0.8027,-0.7962,-0.7567,-0.7437,-0.7372,-0.6985,-0.7442,-0.8156,0.0,0.0,0.0,0.0,0.0,0.0,0.0,0.0,0.0,0.0,0.0,0.0,0.0,0.0,0.0,0.0,0.0,0.0,0.0,0.0,0.0,0.6912,0.7041,0.7145,0.7145,0.8029,0.8433,0.8433,0.9208,0.9566,0.9566,0.9566,0.9566,0.9566,0.9566,0.9566,0.9552,0.9292,0.9178,0.9268,0.8905,0.8857,0.891,0.0,0.0,0.0,0.0,0.0,0.0,0.0,0.8804,0.8804,0.8804,0.9031,0.9177,0.8591,0.8681,0.89,0.8163,0.8091,0.8156,0.8027,0.7731,0.7544,0.7835,0.7547,0.7369,0.7711,0.0,0.784,0.7902,0.7437,0.6981,0.6719,0.0,0.5557,0.5425,0.5428,0.509,0.4284,0.4308,0.4025,0.3122,0.3201,0.2818,0.188,0.0903,0.0271,0.0,-0.074,-0.114,-0.114,-0.2009,-0.2544,-0.2544,-0.2611,-0.2678,-0.2678,-0.348,-0.3882,-0.4082,-0.5599,-0.6392,-0.6588,-0.7312,-0.7637,-0.7637,-0.7637,-0.7637,-0.7572,-0.685,-0.6523,-0.6461,-0.5686,-0.5943,-0.6719,0.0,0.0,0.0,0.0,0.0,0.0,0.0,0.0,0.0,0.0,0.0,0.0,0.0,0.0,0.0,0.0,0.0,0.0,0.0,0.0,0.0,0.0,0.8472,0.8498,0.8498,0.865,0.8736,0.8736,0.8904,0.8958,0.8958,0.8958,0.8958,0.8958,0.8958,0.8958,0.8958,0.8905,0.9189,0.9642,0.9029,0.9106,0.9562,0.0,0.0,0.0,0.0,0.0,0.0,0.0,0.8804,0.8804,0.8804,0.9178,0.944,0.8645,0.9308,0.9971,0.8404,0.8549,0.8877,0.8156,0.7731,0.7464,0.7441,0.7203,0.0,0.0,0.8433,0.8566,0.8926,0.8913,0.8355,0.6915,0.0,0.0,0.0,0.0,0.5359,0.0,0.0,0.0,0.0,0.0,0.0,0.0,0.2509,0.1666,0.007,-0.0136,-0.0202,-0.0202,-0.1074,-0.1541,-0.1541,-0.2344,-0.2678,-0.2678,-0.2878,-0.3278,-0.4015,-0.4345,-0.4878,-0.562,-0.5818,0.0,-0.5818,-0.5818,-0.5818,-0.5818,-0.5686,-0.562,-0.5624,-0.5425,-0.5943,-0.6719,0.0,0.0,0.0,0.0,0.0,0.0,0.0,0.0,0.0,0.0,0.8262,0.8262,0.0,0.0,0.0,0.0,0.0,0.0,0.0,0.0,0.0,0.0,0.0,0.0,0.0,0.8804,0.8804,0.8804,0.0,0.8804,0.8804,0.8804,0.8804,0.8804,0.8804,0.8804,0.8804,0.9159,0.9517,0.9762,0.9465,0.971,0.0,0.0,0.0,0.0,0.0,0.0,0.0,0.0,0.9113,0.8804,0.8804,0.9212,0.9621,0.9201,0.9784,1.0428,0.9582,0.9652,0.9812,0.9217,0.8863,0.8639,0.8569,0.0,0.0,0.0,0.9263,0.944,0.9649,0.0,0.0,0.0,0.0,0.0,0.0,0.0,0.0,0.0,0.0,0.0,0.0,0.0,0.0,0.3632,0.3587,0.2792,0.0911,0.0274,0.0,0.0,-0.0404,-0.0605,-0.0605,-0.1074,-0.1276,-0.1276,-0.1743,-0.2159,-0.2599,-0.3076,-0.3584,-0.3983,-0.3983,-0.3983,-0.3983,-0.3983,-0.4018,-0.3966,-0.3966,-0.3999,-0.4015,-0.4015,-0.4276,-0.4599,0.0,0.0,0.0,0.0,0.0,0.0,0.0,0.8804,0.8804,0.8804,0.8804,0.8804,0.8804,0.8804,0.0,0.0,0.0,0.0,0.0,0.0,0.0,0.0,0.0,0.0,0.0,0.0,0.0,0.8804,0.8804,0.0,0.0,0.0,0.0,0.0,0.9211,0.9211,0.9263,0.9814,1.0115,0.0,0.0,1.0415,0.0,0.0,0.0,0.0,0.0,0.0,0.0,0.0,0.9562,0.9061,0.9159,0.9378,0.9599,0.9666,1.0053,1.0481,1.0604,1.0577,1.0408,1.0174,0.9853,0.9586,0.9586,0.9359,0.0,0.0,0.9773,0.9947,1.0013,0.0,0.9376,0.0,0.0,0.0,0.0,0.0,0.0,0.0,0.0,0.0,0.0,0.0,0.0,0.4888,0.4448,0.3481,0.1939,0.0816,0.0269,0.0269,0.0067,0.0,0.0,0.0202,0.0269,0.0269,-0.0201,-0.0543,-0.0697,-0.1463,-0.1908,-0.2027,-0.2027,-0.2027,-0.2027,-0.2027,-0.2002,-0.2034,-0.2092,-0.206,-0.2087,-0.2142,-0.2136,-0.2136,0.0,0.0,0.0,0.0,0.0,0.0,0.0,0.8804,0.8804,0.8804,0.8804,0.8804,0.8804,0.8804,0.0,0.0,0.0,0.0,0.0,0.0,0.0,0.0,0.0,0.0,0.0,0.0,0.0,0.8804,0.8804,0.0,0.0,0.0,0.0,0.0,0.0,1.0618,1.0618,1.0661,0.0,0.0,0.0,0.0,0.0,0.0,0.0,0.0,0.0,0.0,0.0,0.0,0.0,0.9814,1.0415,1.0007,0.9332,0.9606,0.0,0.0,1.0551,1.0367,1.0147,1.0127,0.9699,0.9223,0.9223,0.0,0.0,0.9163,0.9243,0.9399,0.9673,0.99,0.9781,0.0,0.0,0.8484,0.0,0.0,0.0,0.0,0.0,0.0,0.0,0.0,0.0,0.6688,0.5158,0.3728,0.2624,0.1677,0.1207,0.1207,0.0404,0.0,0.0,0.0806,0.1207,0.1207,0.1941,0.1966,0.132,0.125,0.0773,0.0144,0.0144,0.0144,0.0,0.0144,0.0143,0.0071,0.0,-0.0069,-0.0069,-0.0201,-0.0266,-0.0266,0.0,0.0,0.0,0.0,0.0,0.0,0.0,0.8804,0.8804,0.8804,0.8804,0.8804,0.8804,0.8804,0.8804,0.0,0.0,0.0,0.0,0.0,0.0,0.0,0.0,0.0,0.0,0.0,1.0012,1.0012,1.0012,0.0,0.0,0.0,0.0,0.0,0.0,1.0813,1.0813,1.1216,0.0,0.0,0.0,0.0,0.0,0.0,0.0,0.0,0.0,0.0,0.0,0.0,0.0,0.0,1.0712,1.051,0.0,0.0,0.9957,0.988,1.0,0.9947,0.9813,0.9633,0.9356,0.9247,0.9482,0.0,0.9546,1.0083,1.0318,1.0508,1.0637,1.0543,1.0411,1.022,0.95,0.0,0.0,0.0,0.0,0.0,0.0,0.0,0.0,0.0,0.0,0.7565,0.6427,0.5529,0.513,0.3205,0.2143,0.2143,0.181,0.161,0.161,0.1944,0.2143,0.2143,0.2544,0.2602,0.2355,0.2355,0.2258,0.204,0.204,0.204,0.0,0.204,0.2023,0.1995,0.1977,0.1931,0.1873,0.2326,0.2158,0.1797,0.0,0.0,0.0,0.0,0.0,0.0,0.8804,0.8804,0.8804,0.8804,0.8804,0.8804,0.8804,0.8804,0.8804,0.8804,0.0,0.0,0.0,0.0,0.0,0.0,0.0,0.0,0.0,0.0,1.0813,1.0813,1.0813,1.0914,0.0,0.0,1.1216,1.1434,0.0,0.0,0.0,0.0,0.0,0.0,0.0,0.0,0.0,0.0,0.0,0.0,0.0,0.0,0.0,0.0,0.0,0.0,0.0,0.0,0.0,0.0,1.0099,0.9852,0.9717,0.9619,0.9499,0.9236,0.9282,0.9477,0.0,0.0,1.0218,1.0712,1.0968,1.1149,1.1149,1.102,1.0887,1.0834,1.0005,0.9321,0.9172,0.0,0.0,0.0,0.0,0.0,0.0,0.0,0.8355,0.8355,0.7567,0.7111,0.7111,0.5321,0.3936,0.3078,0.2811,0.2809,0.3072,0.3338,0.3602,0.3862,0.413,0.417,0.4082,0.4113,0.4225,0.4394,0.4121,0.4213,0.0,0.4137,0.4024,0.4038,0.4302,0.4342,0.4336,0.5155,0.4993,0.4573,0.0,0.0,0.0,0.0,0.0,0.0,0.0,0.8804,0.8804,0.8804,0.8804,0.8804,0.8804,0.8804,0.8804,0.8804,0.0,0.0,0.0,0.0,0.0,0.0,0.0,0.0,0.0,0.0,0.0,1.0813,1.0813,1.1166,1.1765,1.1765,1.2187,1.2881,0.0,0.0,0.0,0.0,0.0,0.0,0.0,0.0,0.0,0.0,0.0,0.0,0.0,0.0,0.0,0.0,0.0,0.0,0.0,0.0,1.0734,0.0,1.0314,1.0225,0.9829,0.9472,0.919,0.9183,0.9489,0.9814,0.0,0.0,1.0813,1.0813,1.0821,1.0821,1.0821,1.1066,1.1054,1.0431,1.0535,0.0,0.9004,0.0,0.0,0.0,0.0,0.0,0.0,0.0,0.9274,0.9274,0.8484,0.0,0.7962,0.7962,0.6711,0.4079,0.3145,0.3139,0.399,0.4857,0.5709,0.6542,0.7483,0.7546,0.6877,0.6995,0.7178,0.7434,0.6645,0.6791,0.0,0.6641,0.6261,0.6318,0.7123,0.7417,0.7513,0.8107,0.8353,0.8317,0.0,0.0,0.0,0.0,0.0,0.0,0.0,0.8804,0.8804,0.8804,0.8804,0.8804,0.8804,0.8804,0.9008,0.9465,0.0,0.0,0.0,0.0,0.0,0.0,0.0,0.0,0.0,0.0,1.2255,1.2255,1.2255,1.2353,1.2559,1.2559,1.2666,1.2881,1.2881,1.2881,0.0,0.0,0.0,0.0,0.0,0.0,0.0,0.0,0.0,0.0,0.0,0.0,0.0,0.0,0.0,0.0,0.0,0.0,0.0,1.1523,1.0986,1.0605,1.0506,1.0354,1.0269,1.0269,1.0399,1.0618,1.1065,0.0,1.1625,1.2147,1.2255,1.2255,1.2255,1.1881,1.1644,1.1659,1.1358,1.0894,0.0,0.0,0.0,0.0,0.0,0.0,0.0,0.0,1.0174,1.0174,0.9396,0.8877,0.8877,0.8355,0.7632,0.6776,0.6441,0.6437,0.6763,0.7033,0.7298,0.7553,0.7887,0.7946,0.7831,0.8041,0.8246,0.8373,0.8374,0.8542,0.8765,0.8466,0.8313,0.8385,0.8618,0.8649,0.8704,0.9858,0.9811,0.9412,0.0,0.0,0.0,0.0,0.0,0.0,0.0,0.8804,0.8804,0.8804,0.8804,0.891,0.9166,0.9159,0.9465,1.0115,0.0,0.0,0.0,0.0,0.0,0.0,0.0,0.0,0.0,1.2881,1.2881,1.2881,1.2881,1.2881,1.2881,1.2881,1.2881,1.2881,1.2881,1.2881,0.0,0.0,0.0,0.0,0.0,0.0,1.3563,0.0,0.0,0.0,0.0,0.0,0.0,0.0,0.0,0.0,0.0,0.0,0.0,0.0,1.2619,1.2083,0.0,1.0813,1.0813,1.0813,1.1015,0.0,0.0,0.0,1.2344,1.2822,1.2881,1.2881,1.2881,1.251,1.2172,1.2115,1.1782,0.0,0.0,0.0,0.0,0.0,0.0,0.0,0.0,1.1045,1.117,1.1476,1.1031,1.0584,1.0275,0.9748,0.9302,0.9,0.835,0.8156,0.8484,0.8484,0.8678,0.9,0.9,0.882,0.865,0.914,0.9575,0.9882,1.0053,1.0433,0.0,1.0513,1.0364,1.0364,1.0742,1.0863,1.0893,1.1916,1.2011,1.1862,0.0,0.0,0.0,0.0,0.0,0.0,0.0,0.0,0.0,0.0,0.8962,0.9159,0.9814,0.9865,1.0167,0.0,0.0,0.0,0.0,0.0,0.0,0.0,0.0,0.0,0.0,1.2881,1.2881,1.2881,1.2881,1.2881,1.2881,1.2881,1.2881,1.2881,1.2929,0.0,0.0,0.0,0.0,0.0,0.0,0.0,0.0,0.0,0.0,0.0,0.0,0.0,0.0,0.0,0.0,0.0,0.0,0.0,0.0,0.0,0.0,0.0,0.0,1.1057,0.0,0.0,0.0,0.0,0.0,0.0,0.0,1.2881,1.2881,1.2881,1.2881,1.2881,1.2666,1.1972,1.1864,0.0,0.0,0.0,0.0,0.0,0.0,0.0,1.1888,1.1888,1.2205,1.2948,1.3009,1.2696,1.1958,1.1888,1.1531,1.0807,0.918,0.8731,0.946,0.9524,0.997,1.0744,1.0744,1.0358,0.9594,1.0484,1.1201,0.0,1.1771,1.248,1.3652,1.282,1.2446,1.2618,1.3524,1.3897,1.3962,1.4238,1.4815,1.5296,0.0,0.0,0.0,0.0,0.0,0.0,0.0,0.0,0.0,0.0,0.0,1.0364,1.0568,1.0568,0.0,0.0,0.0,0.0,0.0,0.0,0.0,0.0,0.0,0.0,0.0,1.2881,1.2881,1.2881,1.2881,1.2881,1.2881,1.2881,1.2881,1.2929,1.3372,0.0,0.0,0.0,0.0,0.0,0.0,0.0,0.0,0.0,0.0,0.0,1.4698,1.4698,0.0,0.0,0.0,0.0,0.0,0.0,0.0,0.0,1.4698,1.456,1.3971,0.0,1.3082,1.3082,1.2871,0.0,0.0,0.0,0.0,0.0,0.0,0.0,0.0,0.0,0.0,0.0,0.0,0.0,0.0,0.0,0.0,0.0,0.0,1.2704,1.2704,1.2704,1.2818,1.3009,1.3009,1.2948,1.2757,1.2704,1.2634,1.2458,1.2066,1.1626,1.1205,1.1826,1.2205,1.2458,1.2458,1.2328,1.2151,1.2538,1.2868,1.3018,1.3819,1.4621,1.5307,1.5641,1.5986,1.6383,1.6615,1.677,1.6745,1.6836,1.6927,1.7104,0.0,0.0,0.0,0.0,0.0,0.0,0.0,0.0,0.0,0.0,0.0,0.0,0.0,0.0,0.0,0.0,0.0,0.0,0.0,0.0,0.0,0.0,0.0,0.0,0.0,1.2881,1.2881,1.2881,1.2881,1.3065,1.3334,1.3334,1.3467,1.3752,1.4061,0.0,0.0,0.0,0.0,0.0,1.5421,0.0,0.0,0.0,0.0,0.0,1.5522,1.5522,0.0,1.5522,1.5522,1.5522,0.0,0.0,0.0,0.0,1.5522,1.5522,1.5522,1.4869,1.419,1.419,1.3978,1.3752,0.0,0.0,0.0,0.0,0.0,0.0,0.0,0.0,0.0,0.0,0.0,0.0,0.0,0.0,0.0,0.0,0.0,1.3545,0.0,1.3545,1.3726,1.4085,1.4085,1.3965,1.3545,1.3545,1.3364,1.3009,1.37,1.3511,1.2389,1.2757,1.3174,1.3502,1.3502,1.3665,1.4004,1.4529,1.4911,1.5167,1.6111,1.6753,1.7296,1.7922,1.833,1.8643,1.8916,1.9,1.9026,1.8851,1.9156,1.9596,0.0,0.0,0.0,0.0,0.0,0.0,0.0,0.0,0.0,0.0,0.0,0.0,0.0,0.0,0.0,0.0,0.0,0.0,0.0,0.0,0.0,0.0,0.0,1.2881,1.2881,1.2881,1.2881,1.2881,1.2968,1.3286,1.3815,1.3909,1.4283,1.4835,1.4835,0.0,0.0,0.0,0.0,0.0,1.6281,0.0,0.0,0.0,0.0,0.0,0.0,0.0,0.0,1.6522,1.6522,1.6522,1.6522,0.0,0.0,0.0,0.0,0.0,1.6522,1.5744,1.4926,1.488,1.4744,1.4698,0.0,0.0,0.0,0.0,0.0,0.0,0.0,0.0,0.0,0.0,0.0,0.0,0.0,0.0,0.0,0.0,0.0,0.0,1.4728,1.4728,1.5021,1.569,1.5748,1.5449,1.4787,1.4728,1.4423,1.3708,1.4964,1.5022,1.3708,1.3708,1.4031,1.4634,1.4634,1.4955,1.5605,1.629,1.6825,1.7207,1.8113,0.0,1.9081,1.9806,2.0167,2.0343,2.0945,2.1204,2.1304,2.0882,2.1399,2.2193,0.0,0.0,0.0,0.0,0.0,0.0,0.0,0.0,0.0,0.0,0.0,0.0,0.0,0.0,0.0,0.0,0.0,0.0,0.0,0.0,0.0,0.0,1.2881,1.2881,1.2881,1.2881,1.2881,1.2881,1.342,1.3732,1.3815,1.4329,1.4869,1.5454,1.5454,1.5732,0.0,0.0,0.0,0.0,1.6466,0.0,0.0,0.0,0.0,0.0,0.0,0.0,0.0,1.6522,1.6522,1.6522,1.6522,0.0,0.0,0.0,0.0,0.0,1.6522,1.638,1.6107,1.5588,1.5062,1.4698,0.0,0.0,0.0,0.0,0.0,0.0,0.0,0.0,0.0,0.0,0.0,0.0,0.0,0.0,0.0,1.6415,0.0,1.7058,1.7058,1.7058,1.7124,1.7235,1.7246,1.718,1.7058,1.7058,1.7002,1.688,1.7102,1.7113,1.688,1.688,1.6935,1.7036,1.7036,1.7092,1.7258,1.7335,1.7435,1.7612,0.0,1.9485,1.9622,2.1305,2.2313,2.2902,2.3496,2.4124,2.4579,2.3903,2.3772,2.3934,0.0,0.0,0.0,0.0,0.0,0.0,0.0,0.0,0.0,0.0,0.0,0.0,0.0,0.0,0.0,0.0,0.0,0.0,0.0,0.0,0.0,0.0,1.319,1.3372,1.3372,1.3372,1.3563,1.3884,1.4154,1.4457,1.4767,1.5377,1.5832,1.6095,1.6095,1.6238,1.6522,0.0,0.0,0.0,0.0,0.0,0.0,0.0,0.0,0.0,0.0,0.0,0.0,0.0,1.6522,1.6522,1.6522,0.0,0.0,0.0,0.0,0.0,1.6522,1.6522,1.6423,1.6151,1.5876,1.5656,0.0,0.0,0.0,0.0,0.0,0.0,0.0,0.0,0.0,0.0,0.0,0.0,0.0,1.628,1.6468,0.0,0.0,1.7578,1.7578,1.7578,1.7578,1.7578,1.7578,1.7578,1.7578,1.7578,1.7578,1.7578,1.8015,1.8167,1.8167,1.8608,1.8608,1.8167,1.8167,1.8394,1.8768,1.8768,1.8967,1.9374,0.0,2.0436,2.081,2.2043,2.292,2.3581,2.4108,2.4763,2.5437,2.5497,2.55,2.552,0.0,0.0,0.0,0.0,0.0,0.0,0.0,0.0,0.0,0.0,0.0,0.0,0.0,0.0,0.0,0.0,0.0,0.0,0.0,0.0,1.3152,1.3344,1.3779,1.3956,1.3815,1.3956,1.4236,1.4698,1.4835,1.5231,1.582,1.6281,1.6522,1.6522,1.6522,1.6522,1.6522,1.6522,0.0,0.0,0.0,0.0,0.0,0.0,0.0,0.0,0.0,0.0,0.0,0.0,0.0,0.0,0.0,0.0,0.0,1.6522,1.6522,1.6522,1.6522,1.6522,1.6522,1.6522,0.0,0.0,0.0,0.0,0.0,0.0,0.0,0.0,0.0,0.0,0.0,0.0,0.0,1.5637,1.7135,1.7079,1.7185,1.8009,1.8124,1.8124,1.8124,1.8124,1.8124,1.8124,1.8124,1.8124,1.8124,1.8124,1.8167,1.8317,1.8915,1.9282,1.9414,1.9953,1.9914,1.9178,1.9178,1.9542,2.0232,2.0232,2.0534,2.1028,2.1293,2.1602,2.1946,2.2814,2.3595,2.4284,2.483,2.55,2.6226,2.6859,2.6958,2.6865,0.0,0.0,0.0,0.0,0.0,0.0,0.0,0.0,0.0,0.0,0.0,0.0,0.0,0.0,0.0,0.0,0.0,0.0,0.0,0.0,1.4003,1.4571,1.4606,1.4376,1.3815,1.4329,1.4663,1.4698,1.5276,1.582,1.6423,1.6466,1.6522,1.6522,1.6522,1.6522,1.6522,1.6522,1.6522,0.0,0.0,0.0,0.0,0.0,0.0,0.0,0.0,0.0,0.0,0.0,0.0,0.0,0.0,0.0,1.6522,1.6522,1.6522,1.6522,1.6522,1.6522,1.6522,1.6522,0.0,0.0,0.0,0.0,0.0,0.0,0.0,0.0,0.0,0.0,0.0,0.0,0.0,1.6714,1.7962,0.0,1.9021,1.9569,1.9643,1.9643,1.9643,1.9643,1.9643,1.9643,1.9643,1.9643,1.9643,1.9643,1.994,2.0534,2.0633,2.0917,2.1506,2.1554,2.1245,2.0646,2.0646,2.0966,2.1554,2.1554,2.1602,2.1697,2.2818,2.2966,2.2595,2.4235,2.54,2.6149,2.6765,2.7572,2.8377,2.8427,2.8168,2.7833,0.0,0.0,0.0,0.0,0.0,0.0,0.0,0.0,0.0,0.0,0.0,0.0,0.0,0.0,0.0,0.0,0.0,0.0,0.0,0.0,1.4468,1.4709,1.505,1.5141,1.4903,1.5141,1.5466,1.5832,1.6051,1.6281,1.6522,1.6522,1.6522,1.6522,1.6522,1.668,1.6993,1.6993,1.7188,1.7504,1.7504,0.0,0.0,0.0,0.0,0.0,0.0,0.0,0.0,0.0,1.7666,1.7504,1.7504,1.7271,1.6993,1.6993,1.6752,1.6522,1.6522,1.6522,1.6595,1.6909,0.0,0.0,0.0,0.0,0.0,0.0,1.6993,0.0,0.0,0.0,0.0,0.0,1.665,1.7309,1.8081,1.8681,1.9221,1.9748,1.9798,1.9952,2.0396,2.0055,2.0131,2.0939,2.062,2.0584,2.0939,2.0988,2.1086,2.1342,2.1702,2.1955,2.2218,2.2538,2.279,2.2893,2.2218,2.2002,2.2218,2.2523,2.2878,2.3299,2.3755,2.402,2.424,2.5155,2.6276,2.7486,2.887,2.9221,2.9059,2.9314,2.903,2.8524,0.0,0.0,0.0,0.0,0.0,0.0,0.0,0.0,0.0,0.0,0.0,0.0,0.0,0.0,0.0,0.0,0.0,0.0,0.0,1.4971,1.5062,1.5254,1.5644,1.5864,1.5864,1.6071,1.6256,1.6522,1.668,1.6752,1.6752,1.6909,1.6993,1.6993,1.6993,1.7188,1.7544,1.7544,1.7747,1.8106,1.8106,1.8224,0.0,0.0,0.0,0.0,0.0,0.0,0.0,0.0,1.8263,1.8106,1.8106,1.7867,1.7544,1.7544,1.7312,1.6993,1.6993,1.6879,1.6879,0.0,0.0,0.0,0.0,0.0,0.0,0.0,1.7435,0.0,0.0,0.0,0.0,0.0,1.7683,1.8319,1.8708,1.9396,2.0018,2.0382,2.0421,2.057,2.1015,2.067,2.0756,2.1649,2.1293,2.1245,2.1697,2.1697,2.1805,2.1993,2.252,2.2922,2.3098,2.361,2.4122,2.4507,2.3891,2.3541,2.3385,2.3736,2.4122,2.4547,2.4798,2.5191,2.566,2.6503,2.7724,2.9217,3.0702,3.0872,3.0274,3.0267,2.9948,2.9495,0.0,0.0,0.0,0.0,0.0,0.0,0.0,0.0,0.0,0.0,0.0,0.0,0.0,0.0,0.0,0.0,0.0,0.0,0.0,1.5632,1.5864,1.6466,1.6522,1.6522,1.6522,1.7034,1.7034,1.6522,1.7034,1.7312,1.7312,1.7867,1.8106,1.8106,1.8106,1.8106,1.8106,1.8106,1.8106,1.8145,1.8145,1.8419,1.8893,0.0,0.0,0.0,0.0,0.0,0.0,0.0,1.8535,1.8145,1.8145,1.8106,1.8106,1.8106,1.8106,1.8106,1.8106,1.7706,1.7422,0.0,0.0,0.0,0.0,0.0,0.0,0.0,0.0,1.7463,1.7987,0.0,0.0,1.8027,1.9114,1.9901,1.9901,2.0937,2.1697,2.1697,2.1697,2.1697,2.1697,2.1697,2.1697,2.1697,2.1697,2.1697,2.1744,2.1744,2.2039,2.2694,2.326,2.3803,2.4389,2.495,2.5221,2.5221,2.5762,2.5726,2.5221,2.5221,2.5205,2.5281,2.6147,2.6505,2.6656,2.839,3.0011,3.1483,3.2249,3.2469,3.2302,3.1444,3.1054,3.0899,0.0,0.0,0.0,0.0,0.0,0.0,0.0,0.0,0.0,0.0,0.0,0.0,0.0,0.0,0.0,0.0,0.0,0.0,0.0,1.6238,1.6484,1.7034,1.7076,1.7229,1.7626,1.7787,1.7787,1.7626,1.7787,1.7867,1.7867,1.8027,1.8106,1.8106,0.0,1.8302,1.865,1.865,1.8893,1.9244,1.9244,1.9332,1.9442,0.0,0.0,0.0,0.0,0.0,0.0,0.0,0.0,0.0,1.9244,1.8968,1.865,1.865,1.8419,1.8106,1.8106,1.7987,0.0,0.0,0.0,0.0,0.0,0.0,0.0,0.0,0.0,1.7907,1.8066,0.0,0.0,1.8066,1.9114,1.9901,1.9901,2.0937,2.1697,2.1697,2.1697,2.1899,2.2346,2.1993,2.2072,2.298,2.262,2.2727,2.3533,2.3576,2.3872,2.444,2.498,2.5341,2.5524,2.6016,2.6386,2.669,2.6855,2.6623,2.6147,2.6506,2.6836,2.7106,2.737,2.7477,2.7642,2.9576,3.1119,3.2338,3.334,3.3345,3.2743,3.2107,3.16,3.108,0.0,0.0,0.0,0.0,0.0,0.0,0.0,0.0,0.0,0.0,1.5644,0.0,0.0,0.0,0.0,0.0,0.0,0.0,0.0,0.0,1.7271,1.7585,1.7626,1.7867,1.8419,1.8419,1.8535,1.8727,1.8535,1.8419,1.8419,1.865,1.8727,1.8727,0.0,1.893,1.9207,1.9207,1.9406,1.969,1.969,1.969,1.969,0.0,0.0,0.0,0.0,0.0,0.0,0.0,0.0,0.0,1.969,1.9479,1.9207,1.9207,1.9006,1.8727,1.8727,1.8574,0.0,0.0,0.0,0.0,0.0,0.0,0.0,0.0,0.0,1.9284,1.9498,1.9364,0.0,1.9498,2.0368,2.1026,2.1026,2.2033,2.2773,2.2773,2.2966,2.3068,2.2962,2.26,2.2585,2.3039,2.276,2.3043,2.421,2.4265,2.4547,2.5166,2.5726,2.6013,2.6013,2.6624,2.7051,2.7303,2.7439,2.7447,2.727,2.7465,2.7648,2.7897,2.8047,2.8541,2.9395,3.0706,3.2059,3.3303,3.4101,3.4167,3.371,3.2693,3.2162,3.1766,0.0,0.0,0.0,0.0,0.0,0.0,0.0,0.0,0.0,0.0,1.6552,1.6552,0.0,0.0,0.0,0.0,0.0,0.0,0.0,0.0,1.8145,1.8185,1.8224,1.8458,1.8968,1.8968,1.9207,1.969,1.9207,1.8968,1.8968,0.0,1.969,1.969,0.0,1.969,1.969,1.969,1.969,1.969,1.969,1.969,1.969,1.969,0.0,0.0,0.0,0.0,0.0,0.0,0.0,0.0,1.969,1.969,1.969,1.969,1.969,1.969,1.969,0.0,0.0,0.0,0.0,0.0,0.0,0.0,0.0,2.0797,0.0,2.1126,2.1615,2.1304,2.1126,2.1615,2.2248,2.2724,2.2724,2.3677,2.4389,2.4389,2.4808,2.4678,2.3585,2.3398,2.308,2.2399,2.2353,2.2842,2.3978,2.4147,2.4542,2.5282,2.5839,2.6139,2.6158,2.692,2.7317,2.7409,2.7765,2.8129,2.8478,2.8102,2.7982,2.8047,2.8376,2.9655,3.1489,3.1734,3.2776,3.4297,3.4615,3.4906,3.4923,3.328,3.2799,3.2702,0.0,0.0,0.0,0.0,0.0,0.0,0.0,0.0,0.0,0.0,0.0,0.0,0.0,0.0,0.0,0.0,0.0,0.0,0.0,0.0,1.8302,1.8688,1.9132,1.9406,1.953,1.953,1.9566,1.969,1.9566,1.953,0.0,0.0,0.0,1.969,0.0,1.969,1.969,1.969,1.969,1.969,1.969,1.969,1.969,1.969,1.969,0.0,0.0,0.0,0.0,0.0,0.0,0.0,1.969,1.969,1.969,1.969,1.969,1.969,0.0,1.9603,0.0,0.0,0.0,0.0,0.0,0.0,0.0,2.1485,2.1511,2.156,2.1695,2.1615,2.156,2.1695,2.2248,2.2724,2.2724,2.3677,2.4389,2.4389,2.4358,2.4244,2.3973,2.3407,2.3006,2.2848,2.2848,2.3131,2.3731,2.4647,2.5394,2.5968,2.6661,2.7175,2.7482,2.7378,2.7572,2.8166,2.8246,2.8621,2.9148,2.8572,2.8578,2.9104,2.9321,3.0413,3.2029,3.2089,3.3129,3.4697,3.4974,3.5161,3.5168,3.4351,3.3666,3.2982,0.0,0.0,0.0,0.0,0.0,0.0,0.0,0.0,0.0,0.0,0.0,0.0,0.0,0.0,0.0,0.0,0.0,0.0,0.0,0.0,0.0,0.0,1.9844,2.0104,2.0311,2.0311,2.0208,2.0,0.0,0.0,0.0,0.0,0.0,1.9726,0.0,2.0,2.0,2.0,2.0,1.9965,1.9782,1.969,1.9711,1.9909,2.0,2.0035,2.0243,0.0,0.0,0.0,0.0,0.0,0.0,0.0,2.0311,2.0311,2.0174,2.0,0.0,0.0,0.0,0.0,0.0,0.0,0.0,0.0,0.0,2.2473,2.2607,2.269,2.2945,2.2985,2.3065,2.3328,2.3462,2.3626,2.3853,2.4413,2.4744,2.4627,2.4733,2.4456,2.3513,2.3074,2.27,2.2361,2.2345,2.2769,2.3728,2.4373,2.5217,2.6394,2.6825,2.7297,2.788,2.7833,2.8029,2.8402,2.8742,2.9107,2.9533,2.9198,2.9219,2.9533,2.9643,3.0657,3.2204,3.2374,3.3448,3.5028,3.533,3.5456,3.5402,3.4743,3.3959,3.3083,0.0,0.0,0.0,0.0,0.0,0.0,0.0,0.0,0.0,0.0,0.0,0.0,0.0,0.0,0.0,0.0,0.0,0.0,0.0,0.0,0.0,0.0,2.0416,2.0583,2.0991,2.0991,2.0829,0.0,0.0,0.0,0.0,0.0,0.0,1.9818,0.0,2.0416,2.0416,2.0416,2.0416,2.0382,2.007,1.9909,1.9945,2.028,0.0,2.0483,2.0862,2.0991,2.0926,2.055,0.0,0.0,0.0,0.0,2.0991,2.0991,2.0731,2.0416,0.0,0.0,0.0,0.0,0.0,0.0,0.0,0.0,2.2097,2.3288,2.3563,2.3752,2.4307,2.4389,2.4592,2.5105,2.4831,2.4712,2.5144,2.5147,2.5045,2.4818,2.5046,2.4587,2.2972,2.2708,2.2394,2.1768,2.1718,2.2308,2.3611,2.3892,2.4795,2.6552,2.673,2.7201,2.8075,2.829,2.8471,2.8578,2.9214,2.9589,2.9746,2.9799,2.9799,2.9765,2.9962,3.094,3.2397,3.2833,3.3917,3.5361,3.5628,3.5735,3.5669,3.4993,3.4213,3.3341,0.0,0.0,0.0,0.0,0.0,0.0,0.0,0.0,0.0,0.0,1.8496,0.0,0.0,0.0,0.0,0.0,0.0,0.0,0.0,0.0,0.0,0.0,2.0894,2.0926,2.0991,2.0991,2.0959,0.0,0.0,0.0,0.0,0.0,0.0,2.0246,0.0,0.0,2.0894,2.0894,2.0894,2.0894,2.0829,2.0829,2.0829,0.0,0.0,0.0,2.0959,2.0991,2.0991,2.0926,2.0959,0.0,0.0,0.0,2.0991,2.0991,2.0975,2.0894,0.0,0.0,0.0,0.0,0.0,0.0,0.0,0.0,2.2205,0.0,2.3485,2.3752,2.4307,2.4389,2.4592,2.5105,2.5144,2.5144,2.5182,2.4989,2.4851,2.4788,2.4143,2.3583,2.3334,2.2714,2.231,2.2209,2.2209,2.2405,2.2825,2.3804,2.4906,2.6135,2.6795,2.7676,2.8839,2.854,2.8676,2.9272,2.9712,2.9939,2.9969,3.0196,3.0182,3.0022,3.1072,3.2086,3.3044,3.3907,3.4866,3.5812,3.5869,3.5916,3.5955,3.5838,3.5252,3.4374,0.0,0.0,0.0,0.0,0.0,0.0,0.0,0.0,0.0,0.0,0.0,1.9671,0.0,0.0,0.0,0.0,0.0,0.0,0.0,0.0,0.0,0.0,0.0,2.1446,2.1721,2.1721,2.1615,0.0,0.0,0.0,0.0,2.1007,2.091,0.0,0.0,0.0,0.0,0.0,2.1337,2.1306,2.1086,2.0991,0.0,0.0,0.0,0.0,0.0,0.0,0.0,2.1399,2.1507,2.1675,2.1415,0.0,0.0,0.0,2.1538,0.0,2.1055,0.0,0.0,0.0,0.0,0.0,0.0,0.0,2.2232,2.2975,2.3188,2.3585,2.465,2.5105,2.5449,2.598,2.5835,2.5595,2.5436,2.5055,2.4595,2.4062,2.3644,2.3241,2.2835,2.2496,2.231,2.231,2.2453,2.2652,2.2972,2.362,2.473,2.6326,2.669,2.7561,2.8975,2.8966,2.9217,2.9748,2.9924,3.0075,3.0222,3.0389,3.0378,3.0273,3.1352,3.2279,3.3188,3.4158,3.5088,3.5903,3.5945,3.5974,3.5996,3.5996,3.5427,3.4519,0.0,0.0,0.0,0.0,0.0,0.0,0.0,0.0,0.0,0.0,0.0,0.0,0.0,0.0,0.0,0.0,0.0,0.0,0.0,0.0,0.0,0.0,0.0,0.0,2.2282,2.231,0.0,0.0,0.0,0.0,2.1323,2.1645,2.1598,0.0,2.1628,0.0,0.0,0.0,0.0,0.0,0.0,0.0,0.0,0.0,0.0,0.0,0.0,0.0,0.0,0.0,0.0,2.2237,2.1899,2.2032,0.0,0.0,0.0,0.0,0.0,0.0,0.0,0.0,0.0,0.0,0.0,0.0,2.2215,0.0,2.3001,2.3425,2.46,2.5281,2.5808,2.6084,2.6,2.5763,2.5358,2.4828,2.4197,2.3482,2.3294,2.3011,2.2466,2.2398,2.2426,2.2535,2.2625,2.288,2.3282,2.3566,2.4605,2.6624,2.668,2.7495,2.9144,2.9435,2.9713,2.9999,3.0079,3.0234,3.0428,3.049,3.049,3.053,3.1673,3.2543,3.323,3.4452,3.5335,3.5921,3.5975,3.5996,3.5996,3.5975,3.5535,3.4765,0.0,0.0,0.0,0.0,0.0,0.0,0.0,0.0,0.0,0.0,0.0,0.0,0.0,0.0,0.0,2.0991,0.0,0.0,0.0,0.0,0.0,0.0,0.0,0.0,0.0,0.0,0.0,0.0,0.0,0.0,2.2237,2.2237,2.2237,2.2237,2.2237,2.2254,2.2254,0.0,0.0,0.0,0.0,0.0,0.0,0.0,0.0,0.0,0.0,0.0,0.0,0.0,0.0,0.0,0.0,0.0,0.0,0.0,0.0,0.0,0.0,0.0,0.0,0.0,0.0,0.0,0.0,0.0,0.0,2.2569,2.3048,2.3483,2.3737,2.4361,2.4829,2.4633,2.5186,2.5357,2.4644,2.3934,2.3448,2.341,2.3007,2.2721,2.2669,2.2669,2.2822,2.3117,2.2873,2.2996,2.3649,2.3692,2.4673,2.6805,2.6879,2.7773,2.9642,2.9877,2.9984,3.0013,3.0323,3.0481,3.0498,3.0561,3.0594,3.0691,3.2467,3.3249,3.3428,3.5192,3.5957,3.5996,3.5996,3.5996,3.5996,3.5938,3.5864,3.5576,0.0,0.0,0.0,0.0,0.0,0.0,0.0,0.0,0.0,0.0,0.0,0.0,0.0,2.1645,2.184,2.184,2.184,0.0,0.0,0.0,0.0,0.0,0.0,0.0,0.0,0.0,0.0,0.0,0.0,2.231,2.231,2.231,2.231,2.231,2.231,2.231,2.231,2.231,0.0,0.0,0.0,0.0,0.0,0.0,0.0,0.0,0.0,0.0,0.0,0.0,0.0,0.0,0.0,0.0,0.0,0.0,0.0,0.0,0.0,0.0,0.0,0.0,0.0,0.0,0.0,2.231,2.2321,2.2413,2.2567,2.2709,2.2798,2.379,2.4574,2.4526,2.4712,2.4628,2.3883,2.3562,2.3277,2.3,2.279,2.2797,2.2996,2.3021,2.3069,2.3189,2.33,2.3455,2.3692,2.404,2.5042,2.6842,2.7022,2.7997,2.9874,2.9969,3.0106,3.0323,3.0443,3.0521,3.0561,3.0624,3.065,3.0771,3.2586,3.333,3.3434,3.5252,3.5996,3.5996,3.5948,3.5942,3.5918,3.5812,3.5736,3.5535,0.0,0.0,0.0,0.0,0.0,0.0,0.0,0.0,0.0,0.0,0.0,0.0,0.0,0.0,2.231,2.231,2.231,2.231,2.231,2.231,0.0,0.0,0.0,0.0,0.0,0.0,0.0,0.0,0.0,0.0,0.0,2.231,2.231,2.2327,2.2564,2.2547,0.0,0.0,0.0,2.2699,0.0,0.0,2.3067,0.0,0.0,0.0,0.0,0.0,0.0,0.0,0.0,0.0,0.0,0.0,0.0,0.0,0.0,0.0,0.0,0.0,0.0,0.0,0.0,2.231,2.231,0.0,2.231,2.231,2.231,2.231,2.231,2.3105,2.3748,2.3748,2.3951,2.3866,2.3139,2.3038,2.296,2.2738,2.2797,2.2996,2.3346,2.3369,2.3414,2.3522,2.3649,2.3777,2.3961,2.432,2.5307,2.7086,2.7881,2.8879,3.0117,3.0164,3.0279,3.0498,3.0552,3.0594,3.0643,3.0735,3.0769,3.0868,3.2635,3.3377,3.3467,3.5253,3.5995,3.5951,3.5913,3.5873,3.5831,3.5709,3.5648,3.5465,0.0,0.0,0.0,0.0,0.0,0.0,0.0,0.0,0.0,0.0,0.0,0.0,0.0,0.0,0.0,2.231,2.231,2.231,2.231,2.231,0.0,0.0,0.0,0.0,0.0,0.0,0.0,0.0,0.0,0.0,0.0,0.0,2.2344,2.2389,2.3117,2.3067,2.244,0.0,2.3456,2.3553,0.0,2.489,2.4598,0.0,0.0,0.0,2.4977,2.4622,0.0,2.4335,0.0,0.0,0.0,0.0,0.0,0.0,0.0,0.0,0.0,0.0,0.0,0.0,0.0,0.0,2.231,0.0,2.231,2.231,2.231,2.231,2.231,2.231,2.231,2.2321,2.2902,2.3122,2.2412,2.231,2.2398,2.2669,2.3021,2.3346,2.3692,2.3714,2.3837,2.417,2.3917,2.3961,2.4478,2.4549,2.5524,2.7542,2.9416,3.0398,3.0398,3.0472,3.0498,3.0507,3.0648,3.0696,3.0718,3.0837,3.0898,3.0996,3.2676,3.3398,3.3535,3.5273,3.5951,3.5903,3.59,3.5807,3.5689,3.5611,3.56,3.5463,0.0,0.0,0.0,0.0,0.0,0.0,0.0,0.0,0.0,0.0,0.0,0.0,0.0,0.0,2.231,2.231,2.231,2.231,2.231,2.231,2.231,2.231,2.231,2.231,0.0,0.0,0.0,0.0,0.0,0.0,0.0,0.0,0.0,0.0,2.4375,2.4639,2.4673,2.4646,0.0,0.0,2.5243,2.5394,0.0,0.0,0.0,0.0,0.0,2.5529,2.5181,0.0,2.4939,2.395,0.0,0.0,0.0,0.0,0.0,0.0,2.2958,0.0,0.0,0.0,0.0,0.0,2.2349,2.231,2.231,2.231,2.231,2.2377,2.2563,2.2599,2.2678,2.2908,2.2743,2.2547,2.2344,2.2463,2.273,2.3021,2.3369,2.3692,2.4016,2.4074,2.4094,0.0,2.4248,2.4355,2.4495,2.5921,2.7083,2.7796,2.9502,3.0398,3.0398,3.0472,3.0521,3.0568,3.0665,3.0747,3.0857,3.0879,3.0898,3.0996,3.2625,3.3339,3.3456,3.5215,3.5913,3.5896,3.5728,3.5657,3.5631,3.5558,3.5534,3.5496,0.0,0.0,0.0,0.0,0.0,0.0,0.0,0.0,0.0,0.0,0.0,0.0,0.0,0.0,0.0,2.231,2.231,2.231,2.231,2.231,2.2349,2.2463,2.2377,2.2432,2.266,2.2686,2.2928,2.3395,2.3594,2.3868,2.4229,2.4479,2.4716,0.0,0.0,0.0,0.0,0.0,0.0,0.0,2.6507,0.0,0.0,2.671,2.6684,0.0,0.0,0.0,2.6312,2.668,2.6044,0.0,0.0,0.0,0.0,0.0,0.0,0.0,0.0,0.0,0.0,0.0,0.0,0.0,2.2695,2.2686,2.2686,2.2686,2.2686,2.2721,2.2873,2.2923,2.2972,2.3165,2.2908,2.2686,2.2686,2.2815,2.3045,2.3369,2.3566,2.3837,2.417,2.419,2.4228,2.4321,2.4426,2.4559,2.4708,2.6644,2.7773,2.789,2.9525,3.0414,3.0441,3.0516,3.0575,3.0633,3.0738,3.0817,3.0898,3.0898,3.0878,3.0912,3.2572,3.3271,3.3385,3.5073,3.5762,3.5749,3.565,3.5568,3.5538,3.5495,3.5493,3.5493,0.0,0.0,0.0,0.0,0.0,0.0,0.0,0.0,0.0,0.0,0.0,0.0,0.0,0.0,0.0,0.0,2.2643,2.2671,2.2671,2.2671,0.0,2.2989,2.2784,2.2919,2.3454,2.3217,2.3551,2.4597,2.4622,2.5002,2.5729,2.575,2.5804,2.589,0.0,0.0,0.0,0.0,0.0,2.713,2.8098,2.829,0.0,0.0,2.829,2.8065,2.8368,2.8019,2.7453,2.7698,2.7137,0.0,0.0,0.0,0.0,0.0,2.3448,0.0,0.0,0.0,0.0,0.0,0.0,0.0,2.3212,2.3189,2.3189,2.3189,2.3189,2.3212,2.3236,2.3277,2.3259,2.3282,2.3323,2.33,2.3212,2.3212,2.3369,2.3671,2.3735,2.3876,2.417,2.4209,2.4303,2.4495,2.4526,2.4693,2.501,2.6864,2.789,2.789,2.9536,3.0441,3.0498,3.0575,3.0648,3.0696,3.0837,3.0898,3.0898,3.0879,3.0816,3.0791,3.251,3.3234,3.3303,3.4923,3.559,3.5611,3.559,3.5558,3.5493,3.5493,3.5493,3.5493,0.0,0.0,0.0,0.0,0.0,0.0,0.0,0.0,0.0,0.0,0.0,0.0,0.0,0.0,0.0,0.0,2.4812,2.4962,2.4962,2.4962,2.4988,2.5022,2.4988,2.5014,2.5141,2.5314,2.5542,2.5775,2.6041,2.6261,2.6403,2.6754,2.7067,2.7392,0.0,0.0,0.0,0.0,0.0,2.8573,2.8808,0.0,2.8791,2.8863,2.8839,2.8791,2.8863,2.8795,2.8557,2.7985,2.7655,2.7336,0.0,0.0,0.0,0.0,0.0,0.0,0.0,0.0,0.0,0.0,0.0,0.0,2.3259,2.3189,2.3189,2.3189,2.3189,2.3277,2.3544,2.3588,2.3692,2.3976,2.3996,2.3816,2.3277,2.3414,2.3628,2.3692,2.3937,2.4132,2.419,2.4358,2.4461,2.4495,2.4747,2.4998,2.5224,2.6937,2.789,2.789,2.9583,3.0491,3.0498,3.0608,3.0687,3.0696,3.0837,3.0898,3.0898,3.0792,3.0721,3.0788,3.2363,3.3052,3.3161,3.482,3.5558,3.56,3.5553,3.5515,3.5493,3.5493,3.5493,3.5479,0.0,0.0,0.0,0.0,0.0,0.0,0.0,0.0,0.0,0.0,0.0,0.0,0.0,0.0,0.0,0.0,0.0,0.0,0.0,0.0,2.5661,2.5828,2.5704,2.5754,2.608,2.6103,2.639,2.6945,2.7116,2.7402,2.7783,2.8012,2.8195,2.8411,0.0,0.0,0.0,0.0,2.8994,2.8994,2.8994,0.0,2.8994,2.8994,2.8994,2.8994,2.8994,2.8994,2.892,2.8539,2.8411,0.0,0.0,2.72,2.7034,0.0,2.5988,2.5915,0.0,0.0,0.0,2.5181,0.0,0.0,0.0,2.4003,2.3692,2.3692,2.3692,2.3753,2.3917,2.3937,2.3996,2.417,2.419,2.4074,2.3753,2.3837,2.3937,2.3937,2.4094,2.419,2.419,2.4375,2.4575,2.4737,2.5005,2.5184,2.5284,2.6948,2.7932,2.7961,2.9601,3.0537,3.0606,3.0673,3.0723,3.0793,3.08,3.0793,3.0793,3.07,3.0872,3.132,3.249,3.3227,3.3701,3.4976,3.5522,3.5546,3.5515,3.5493,3.5493,3.5493,3.5493,3.5493,2.2242,0.0,0.0,0.0,0.0,0.0,0.0,0.0,0.0,0.0,0.0,0.0,0.0,0.0,0.0,0.0,0.0,0.0,0.0,0.0,0.0,2.6644,2.6393,2.6507,2.705,2.6795,2.7105,2.8026,2.8026,2.8356,2.8994,2.8994,2.8994,0.0,0.0,0.0,0.0,0.0,0.0,2.9329,0.0,2.9412,2.9255,2.9402,2.9475,2.9457,2.9338,2.9306,2.9269,2.9122,2.9067,2.8956,2.825,2.8026,0.0,0.0,0.0,0.0,0.0,0.0,0.0,0.0,0.0,2.5642,0.0,0.0,0.0,2.4667,2.4667,0.0,0.0,0.0,0.0,0.0,0.0,0.0,0.0,2.4284,0.0,2.4247,2.4284,2.4321,2.4321,2.4495,2.4723,2.5022,2.5214,2.5313,2.5322,2.6969,2.7961,2.8012,2.9664,3.0594,3.0693,3.0721,3.0793,3.0898,3.0769,3.0696,3.0693,3.0623,3.1025,3.1835,3.2648,3.3442,3.4257,3.5141,3.5493,3.5493,3.5493,3.5493,3.5493,3.5493,3.5479,3.5417,2.24,2.231,0.0,0.0,0.0,0.0,0.0,0.0,0.0,0.0,0.0,0.0,0.0,0.0,0.0,0.0,0.0,0.0,2.8612,0.0,0.0,0.0,2.8631,2.8654,2.8718,2.8677,2.8732,2.8847,2.8847,2.8902,2.8994,2.8994,2.8994,0.0,2.9246,0.0,0.0,0.0,3.0413,0.0,3.1179,3.0913,0.0,3.0852,3.1127,3.1084,3.0583,3.0411,3.0299,0.0,2.9351,2.9291,0.0,2.8847,2.8723,2.7897,0.0,0.0,0.0,0.0,0.0,0.0,2.6539,0.0,0.0,0.0,2.6337,2.6337,0.0,0.0,0.0,0.0,0.0,0.0,0.0,0.0,2.4461,2.4623,2.467,2.4495,2.4623,2.4731,2.4731,2.4864,2.5022,2.5253,2.5303,2.5331,2.5395,2.7036,2.802,2.8098,2.978,3.0684,3.0696,3.0816,3.0879,3.0898,3.0769,3.0696,3.0693,3.0568,3.0972,3.1845,3.259,3.3404,3.4257,3.5141,3.5493,3.5493,3.5493,3.5493,3.5493,3.5493,3.5354,3.5105,2.3088,2.3274,0.0,0.0,0.0,0.0,0.0,0.0,0.0,0.0,0.0,0.0,0.0,0.0,0.0,0.0,0.0,3.0393,0.0,0.0,0.0,0.0,0.0,0.0,2.8994,2.8994,2.8994,2.8994,2.8994,2.8994,2.8994,2.8994,2.9255,0.0,2.9996,0.0,3.0658,0.0,3.1297,0.0,0.0,0.0,0.0,3.1859,3.1867,3.1832,3.1597,3.1242,3.0772,0.0,2.9906,0.0,0.0,0.0,0.0,0.0,0.0,0.0,0.0,0.0,0.0,0.0,0.0,0.0,2.7316,0.0,2.6612,0.0,0.0,0.0,0.0,0.0,0.0,0.0,2.5757,0.0,0.0,0.0,2.485,0.0,0.0,0.0,2.4917,2.4962,2.5102,2.5337,2.5354,2.5391,2.5459,2.7116,2.8085,2.815,2.9809,3.0743,3.0816,3.0799,3.0772,3.0772,3.0643,3.0587,3.0581,3.0491,3.1174,3.2466,3.2762,3.368,3.4988,3.5353,3.5493,3.5493,3.532,3.5369,3.5493,3.5339,3.5207,3.507,0.0,0.0,0.0,0.0,0.0,0.0,0.0,0.0,0.0,0.0,0.0,0.0,3.0522,3.1035,0.0,0.0,3.1384,3.1384,0.0,0.0,3.1127,0.0,0.0,0.0,0.0,2.9659,2.9659,2.9659,2.9659,2.9659,2.9659,2.9659,3.0018,3.0651,0.0,3.1347,3.1929,0.0,3.235,3.2425,3.325,3.3609,3.3634,3.3091,3.2883,3.2864,3.2693,3.2256,3.1726,3.1517,3.0751,0.0,3.0036,0.0,0.0,0.0,0.0,0.0,2.9185,0.0,0.0,0.0,0.0,0.0,0.0,0.0,0.0,0.0,0.0,0.0,0.0,0.0,0.0,0.0,0.0,2.6441,0.0,2.5869,0.0,0.0,0.0,0.0,0.0,2.5088,2.5166,2.5391,2.5619,2.5796,2.5886,2.7541,2.8505,2.8582,3.0005,3.0776,3.0838,3.0745,3.069,3.0677,3.0567,3.0498,3.0518,3.0689,3.1545,3.291,3.3141,3.4103,3.5493,3.5493,3.5446,3.5369,3.519,3.5155,3.5273,3.507,3.4925,3.4813,2.5541,2.4966,0.0,0.0,0.0,0.0,0.0,0.0,0.0,0.0,0.0,0.0,0.0,0.0,0.0,0.0,0.0,3.1384,3.1384,0.0,3.1384,0.0,0.0,3.1347,0.0,0.0,3.1311,3.1311,3.1311,3.1311,3.1311,3.1311,3.1486,3.1766,3.2032,3.2166,3.226,3.3289,3.3751,3.3805,3.4668,3.5184,3.536,0.0,3.4619,3.4545,3.3971,0.0,0.0,3.2813,3.1958,0.0,0.0,0.0,0.0,0.0,0.0,0.0,0.0,0.0,0.0,2.9678,0.0,0.0,0.0,0.0,2.9603,0.0,0.0,0.0,0.0,0.0,0.0,0.0,0.0,0.0,0.0,0.0,0.0,0.0,0.0,0.0,0.0,2.5284,2.5321,2.5386,2.6168,2.6714,2.6847,2.8513,2.9482,2.9551,3.043,3.0837,3.0716,3.0696,3.0673,3.0606,3.0537,3.0498,3.0537,3.1306,3.2102,3.2949,3.3795,3.4661,3.5493,3.5493,3.5354,3.5105,3.5105,3.4944,3.4714,3.4733,3.4508,3.4223,0.0,0.0,0.0,0.0,0.0,0.0,0.0,3.0025,0.0,0.0,3.1602,0.0,0.0,3.2669,3.2981,0.0,0.0,3.2981,3.2981,3.2981,0.0,0.0,0.0,3.1935,0.0,0.0,0.0,0.0,3.1589,3.1644,3.1685,3.1846,3.2253,3.288,0.0,3.3591,0.0,0.0,0.0,0.0,0.0,3.5273,3.5493,0.0,3.5223,3.52,3.4994,3.4544,0.0,3.3752,3.2991,3.2161,3.224,3.148,3.0579,3.0712,3.0267,2.9696,0.0,0.0,2.9861,2.9729,0.0,0.0,0.0,0.0,0.0,0.0,0.0,0.0,0.0,0.0,0.0,0.0,0.0,0.0,0.0,0.0,0.0,0.0,0.0,0.0,0.0,0.0,2.6246,2.6312,2.7182,2.7735,2.7829,2.8923,2.9589,2.9609,3.0366,3.0745,3.0696,3.0603,3.0547,3.0537,3.0472,3.0419,3.0458,3.1318,3.2141,3.2949,3.3814,3.4592,3.5239,3.5432,3.5354,3.5088,3.4908,3.4774,3.4674,3.4445,3.4311,3.4152,2.7691,0.0,0.0,0.0,0.0,0.0,0.0,0.0,0.0,0.0,3.2779,0.0,3.3431,0.0,3.4688,0.0,3.4688,3.4688,3.4688,3.4394,0.0,3.3468,3.3183,0.0,0.0,0.0,0.0,0.0,0.0,3.2702,3.2849,3.3014,3.3412,3.4017,0.0,3.4636,3.5239,3.5239,3.5239,0.0,0.0,3.5354,0.0,0.0,3.5493,3.5493,0.0,3.5141,3.4661,3.4661,3.3997,3.3197,3.3327,3.2589,3.1702,3.1824,3.1172,3.0399,3.0399,3.028,0.0,2.9992,3.0052,0.0,2.9992,0.0,2.9958,0.0,0.0,0.0,0.0,0.0,0.0,0.0,0.0,0.0,0.0,2.864,0.0,0.0,0.0,0.0,0.0,2.606,2.6521,2.7238,2.7855,2.8367,2.873,2.959,3.0059,3.0059,3.0476,3.0687,3.065,3.0567,3.05,3.0472,3.0417,3.0552,3.0891,3.1737,3.2583,3.341,3.4276,3.488,3.5258,3.5339,3.5207,3.4926,3.4634,3.4464,3.4353,3.4141,3.4068,3.4018,2.9539,0.0,0.0,0.0,2.9971,0.0,0.0,0.0,3.2687,0.0,3.4037,3.5009,3.5045,3.5807,3.6303,3.6303,3.6303,3.6303,3.6303,3.5532,0.0,0.0,3.4311,3.3889,3.3897,0.0,0.0,0.0,0.0,0.0,3.4714,3.4734,3.4889,3.5122,3.5122,0.0,3.5493,3.5493,3.5493,3.5493,3.5493,3.5493,3.5493,3.5493,3.5493,3.5493,3.5493,3.5493,3.5493,3.5493,3.4949,3.4257,3.4257,3.366,3.2968,3.2968,3.2391,3.1756,3.1756,3.1141,3.0456,3.0456,3.0417,0.0,0.0,0.0,3.0417,0.0,0.0,0.0,0.0,0.0,0.0,0.0,0.0,0.0,0.0,0.0,0.0,0.0,0.0,0.0,0.0,2.6067,2.6337,2.8137,2.8301,2.8721,0.0,3.0449,3.0898,3.0898,3.0767,3.0665,3.06,3.0529,3.0472,3.0398,3.0436,3.091,3.1737,3.2583,3.341,3.4237,3.5122,3.5474,3.5446,3.5207,3.4944,3.4653,3.4334,3.4043,3.3807,3.3807,3.3807,3.3807,2.9539,3.069,3.1516,0.0,3.1719,3.218,0.0,0.0,0.0,0.0,3.4734,3.5247,3.5899,3.6174,3.6303,3.6303,3.6303,0.0,0.0,0.0,0.0,3.6252,3.5491,3.5168,3.5368,3.4764,0.0,3.4572,0.0,0.0,3.4999,3.5207,3.532,3.5403,0.0,0.0,3.5493,3.5493,3.5493,3.5493,3.5493,3.5493,3.5493,0.0,3.5493,3.5493,3.5493,3.5493,3.5493,3.5493,3.5353,3.518,3.518,3.4564,3.3872,3.3872,3.3256,3.2583,3.2583,3.1987,3.1371,3.1371,3.0891,3.0414,0.0,0.0,0.0,0.0,0.0,0.0,0.0,0.0,0.0,0.0,0.0,0.0,0.0,0.0,0.0,2.913,0.0,0.0,2.7793,2.8173,2.8652,2.9138,2.9818,3.0312,3.0547,3.0678,3.0747,3.0747,3.0623,3.0533,3.0521,3.0462,3.0425,3.0398,3.1064,3.1487,3.1756,3.3199,3.3987,3.4237,3.5122,3.5273,3.4926,3.5053,3.4794,3.4334,3.4223,3.4043,3.3807,3.3807,3.3807,3.3807,3.1079,3.2074,0.0,3.3312,0.0,0.0,3.3633,3.4045,0.0,3.5459,3.5881,0.0,3.6762,3.7129,3.7349,3.7349,3.7349,0.0,3.7349,0.0,0.0,3.7217,3.6587,3.6318,3.6472,3.5639,0.0,3.5401,0.0,0.0,3.5289,3.5432,3.5493,0.0,0.0,3.5493,3.5512,3.5892,3.6026,3.6065,3.6449,3.6603,0.0,3.618,3.6026,3.5988,3.5641,3.5493,3.5493,3.5493,3.5493,3.5493,3.5493,3.5161,3.4776,3.4776,3.4141,3.3468,3.3468,3.2852,3.2242,3.2293,3.1667,3.1023,3.1092,3.0824,3.0561,0.0,3.0628,3.0611,0.0,0.0,0.0,0.0,0.0,0.0,0.0,0.0,0.0,0.0,2.9975,0.0,2.9366,2.9099,2.9262,3.0051,3.0253,3.0468,3.0796,3.0745,3.0687,3.0665,3.0547,3.0498,3.0498,3.0419,3.0398,3.0398,3.1275,3.1891,3.2275,3.3603,3.4332,3.4611,3.5109,3.5088,3.4694,3.4715,3.4492,3.4176,3.4068,3.3935,3.3807,3.3807,3.3807,3.3807,3.3394,0.0,0.0,0.0,0.0,0.0,0.0,3.5229,0.0,3.634,0.0,3.7533,3.7643,3.8285,3.8707,3.8707,0.0,3.8719,3.8732,3.8322,3.8089,3.8191,3.7687,3.7425,3.7466,3.6612,3.6293,0.0,0.0,0.0,3.5834,3.5834,0.0,0.0,0.0,0.0,0.0,3.6584,3.6873,3.6949,3.77,3.8007,3.7911,3.7161,3.6873,3.6776,3.6084,3.5699,3.5493,3.5493,3.5493,3.5493,3.5493,3.5493,3.5493,3.5493,3.4968,3.4372,3.4372,3.3731,3.3118,3.3239,3.2608,3.2011,3.2071,3.1401,3.0799,3.0888,3.0771,3.0685,3.0836,0.0,0.0,0.0,0.0,0.0,0.0,0.0,0.0,0.0,0.0,0.0,3.0898,2.9486,2.9192,3.0761,3.0175,3.0015,3.0651,0.0,3.0657,3.0587,3.0513,3.05,3.05,3.0428,3.0456,3.0571,3.1448,3.2275,3.3103,3.3942,3.4591,3.5105,3.507,3.4889,3.4593,3.4334,3.4195,3.4123,3.3876,3.3807,3.3807,3.3917,3.3972,3.3935,3.4975,0.0,0.0,0.0,0.0,3.6303,3.6945,3.6486,3.6376,3.7165,3.7404,3.7734,3.8414,3.8615,3.8707,3.8707,3.8707,0.0,0.0,0.0,0.0,3.9692,3.8955,3.865,3.8933,3.8089,3.7663,0.0,0.0,0.0,3.7565,3.7565,0.0,0.0,0.0,0.0,3.7565,3.7719,0.0,3.7796,3.795,3.8007,3.7988,3.7834,3.7777,3.7757,3.7603,3.668,3.5493,3.5493,3.5493,3.5493,3.5493,3.5493,3.5493,3.5493,3.5391,3.5276,3.5276,3.4685,3.4051,3.4081,3.353,3.2972,3.3041,3.2384,3.1789,3.1911,3.1365,3.0814,3.0745,0.0,0.0,0.0,0.0,0.0,0.0,0.0,0.0,0.0,0.0,3.0756,0.0,3.0605,3.0507,3.0726,3.0587,3.0531,3.0608,0.0,3.0529,0.0,3.0442,3.0425,0.0,3.0421,3.0756,3.1487,3.2295,3.3141,3.3987,3.4642,3.5005,3.5088,3.487,3.4593,3.4269,3.4223,3.4068,3.3868,3.3815,3.3807,3.388,3.4559,3.477,3.4679,3.5842,0.0,0.0,0.0,0.0,0.0,3.7991,3.8138,3.8157,3.812,3.8487,3.8891,3.9276,3.9698,3.9955,3.9955,3.957,3.9387,3.9494,3.9421,3.9486,3.9819,3.9738,3.9761,3.9912,3.9104,3.8661,3.8661,0.0,0.0,0.0,0.0,0.0,0.0,0.0,3.8007,0.0,0.0,3.8661,3.87,3.9123,3.9296,3.9238,3.8834,3.8661,3.8623,3.8161,3.7539,3.6813,3.6304,3.5853,3.5493,3.5493,3.5493,3.5493,3.5493,3.5493,3.5501,3.5534,3.5267,3.5001,3.5099,3.4514,3.3934,3.4012,3.3353,3.273,3.2812,3.2168,3.1425,3.0894,3.0784,0.0,0.0,0.0,0.0,0.0,0.0,0.0,0.0,0.0,0.0,0.0,0.0,0.0,0.0,0.0,3.0665,3.0547,0.0,3.0472,0.0,0.0,0.0,3.0398,0.0,3.1275,3.1718,3.2837,3.3599,3.4006,3.4636,3.4813,3.4636,3.4489,3.4265,3.3986,3.3986,3.3928,3.3844,3.4266,3.4431,3.4523,3.5367,3.5679,3.5624,0.0,3.6798,0.0,0.0,3.7991,3.8267,3.9093,3.9753,3.9863,3.9056,3.9662,4.0157,4.0157,4.0726,4.1111,4.1111,4.0524,4.0233,4.0351,4.0207,4.0121,4.0084,4.0516,4.0681,4.0489,3.9873,3.9546,0.0,0.0,0.0,3.8277,0.0,0.0,0.0,0.0,0.0,0.0,0.0,3.9546,3.9604,4.0239,4.0489,4.0431,3.9796,3.9576,3.9523,3.8816,3.8542,3.8384,3.7583,3.664,3.5791,3.5771,3.5641,3.5507,3.5528,3.5522,3.554,3.5591,3.563,3.569,3.586,3.5383,3.4906,3.496,3.4297,3.3672,3.3672,3.3027,3.2246,3.1562,3.1289,0.0,0.0,0.0,0.0,0.0,0.0,0.0,0.0,0.0,0.0,3.06,3.0606,0.0,0.0,0.0,0.0,3.0491,0.0,0.0,0.0,3.0398,3.0463,3.0599,0.0,3.1776,3.2067,3.3198,3.38,3.3991,3.4413,3.4445,3.42,3.4147,3.4104,3.4064,3.4064,3.4156,3.4394,3.5037,3.5265,3.5385,3.6248,3.656,3.6578,0.0,0.0,0.0,0.0,0.0,3.9955,4.0763,4.0946,4.0708,3.9882,4.0487,4.1001,4.1001,4.1056,4.1111,4.1111,4.1038,4.1243,4.187,4.187,4.1775,4.1598,4.1649,4.1316,4.0508,4.0431,4.0392,0.0,0.0,3.9892,0.0,0.0,0.0,0.0,0.0,0.0,4.0258,4.0335,4.0392,4.0392,4.0469,4.0489,4.0489,4.0412,4.0472,4.0563,4.0486,4.0024,3.9459,3.9365,3.819,3.6751,3.6639,3.6103,3.5515,3.5566,3.559,3.5601,3.5667,3.5786,3.5869,3.59,3.5888,3.5878,3.5879,3.5195,3.457,3.457,3.3887,3.3262,3.3184,3.2578,3.207,0.0,0.0,0.0,0.0,0.0,3.0529,3.0594,0.0,0.0,3.06,3.0606,0.0,0.0,3.0513,0.0,0.0,0.0,0.0,3.0398,3.0398,3.067,3.1215,3.131,3.1979,3.3242,3.3374,3.3865,3.4601,3.4364,3.4223,3.4195,3.3935,3.4238,3.488,3.488,3.5367,3.6064,3.6156,3.6174,3.6285,3.7074,3.7397,3.7477,4.0084,4.0157,4.0249,4.0561,4.0616,4.0744,4.1056,4.1515,4.1699,4.1387,4.1625,4.1827,4.1827,4.2249,4.2543,4.2543,4.229,4.2233,4.251,4.2451,4.2366,4.2278,4.198,4.1643,4.1296,4.0758,4.0489,0.0,0.0,0.0,0.0,0.0,4.0489,4.0489,4.0489,4.0489,4.0489,4.0489,4.0489,4.0504,4.0602,4.0623,4.0617,4.0657,4.0703,4.0771,4.0771,4.0614,4.0432,4.0356,3.9171,3.7739,3.7686,3.7085,3.6406,3.644,3.6079,3.5687,3.5791,3.5869,3.591,3.5948,3.5975,3.5996,3.5996,3.5723,3.5488,3.5488,3.4785,3.4023,3.3496,3.3102,3.2858,3.2858,0.0,0.0,0.0,0.0,0.0,3.055,0.0,3.0462,0.0,3.0472,0.0,0.0,0.0,0.0,0.0,0.0,0.0,3.0398,0.0,3.1226,3.1299,3.2305,3.3007,3.3409,3.3714,3.4061,3.4379,3.4093,3.422,3.4692,3.511,3.5477,3.5789,3.5789,3.5991,3.634,3.6817,3.7,3.711,3.7918,3.8212,3.8267,4.1111,4.1111,4.1185,4.1423,4.146,4.1534,4.1772,4.2286,4.2653,4.2653,4.2653,4.2653,4.2653,4.3266,4.3646,4.3646,4.3465,4.3353,4.3463,4.3388,4.327,4.312,4.2731,0.0,4.22,4.1335,4.0873,4.0873,4.0623,0.0,0.0,4.0142,4.0258,4.0489,4.0489,4.0489,4.0504,4.053,4.0559,4.0574,4.0684,4.0721,4.0731,4.0788,4.0816,4.0864,4.0864,4.093,4.103,4.0955,4.0126,3.9092,3.8773,3.8072,3.7397,3.7416,3.6974,3.6459,3.6339,3.6311,3.6257,3.6054,3.5996,3.5996,3.5996,3.5996,3.5996,3.5996,3.5487,3.486,3.4255,3.3861,3.3648,3.3648,0.0,0.0,0.0,3.21,0.0,0.0,3.1141,3.1141,3.1141,3.1141,0.0,0.0,0.0,0.0,0.0,0.0,0.0,0.0,0.0,0.0,3.1785,3.2976,3.3543,3.3515,3.391,3.4074,3.4093,3.4134,3.4614,3.544,3.6028,3.6431,3.6652,3.6652,3.678,3.7055,3.7624,3.7845,3.7918,3.8487,3.8707,3.8707,4.1111,4.1111,4.1368,4.2158,4.2286,4.2543,4.3332,4.3461,4.3479,4.3479,4.3479,4.3479,4.3479,4.3804,4.3998,4.3998,4.4346,4.4732,4.5055,4.5077,4.4841,0.0,0.0,4.3893,4.3104,4.2239,4.1777,4.1777,0.0,0.0,3.9296,3.9296,3.9738,4.0489,4.0489,4.0489,4.0504,4.0649,4.0692,4.0703,4.077,4.0793,4.0793,4.0801,4.0877,4.0996,4.0996,4.108,4.1191,4.1191,4.1172,4.0974,3.9928,3.8987,3.8306,3.835,3.8385,3.8216,3.7479,3.7285,3.707,3.6211,3.5996,3.5996,3.5996,3.5996,3.5996,3.5996,3.5947,3.5884,3.5864,3.5115,3.449,3.449,0.0,0.0,0.0,3.2929,0.0,3.2872,3.2872,3.2872,3.2872,3.2872,0.0,0.0,0.0,0.0,0.0,0.0,0.0,3.0903,3.1676,0.0,3.2962,3.2999,3.3265,3.3815,3.3788,3.3788,3.3825,3.4633,3.5477,3.6285,3.6303,3.6743,3.7477,3.7477,3.7936,3.867,3.8689,3.8689,3.8689,3.8707,3.8707,3.8707,4.2745,4.2745,4.2818,4.3057,4.3112,4.3185,4.3442,4.3497,4.3497,4.3497,4.3497,4.3597,4.3836,4.3924,4.4016,4.4016,4.4587,4.5007,4.5096,4.5322,4.536,4.5182,4.4624,4.4182,4.3912,4.3104,4.2701,4.2701,4.2412,4.1835,4.0989,4.0392,4.0239,4.0504,4.0615,4.0636,4.063,4.0732,4.0761,4.077,4.0896,4.0944,4.095,4.1049,4.1103,4.1149,4.1149,4.1151,4.1191,4.1191,4.1191,4.1133,4.0791,4.0084,3.9383,3.9429,3.9,3.8494,3.8242,3.8184,3.7988,3.7109,3.6894,3.6738,3.6133,3.5953,3.5921,3.5921,3.5849,3.5761,3.5761,3.5473,3.5262,3.5262,3.4947,0.0,3.3909,0.0,3.3564,3.2968,3.2891,3.2891,3.2891,3.2891,0.0,0.0,0.0,0.0,0.0,0.0,0.0,0.0,3.2543,0.0,3.2999,3.3543,3.3827,3.3807,3.4376,3.4945,3.5532,3.634,3.6853,3.7147,3.7698,3.8083,3.8322,3.8322,3.8469,3.8707,3.8707,3.8707,3.8707,3.8707,3.8707,3.8707,4.3497,4.3497,4.3497,4.3497,4.3497,4.3497,4.3497,4.3497,4.3497,4.3497,4.3631,4.3772,4.3986,4.4261,4.4409,4.4409,4.4947,4.5302,4.5302,4.5495,4.5586,4.5586,4.5066,4.4778,4.4778,4.397,4.3547,4.3547,4.3258,4.2816,4.2277,4.1774,4.1514,4.1528,4.1637,4.1703,4.1713,4.1809,4.1656,4.137,4.1472,4.1333,4.108,4.1171,4.1191,4.1191,4.1191,4.1191,4.1191,4.1191,4.1191,4.1191,4.1191,4.082,4.0391,4.0391,4.0,3.9512,3.918,3.9082,3.8887,3.8008,3.7793,3.7558,3.6657,3.6375,3.6216,3.589,3.5736,3.5671,3.5671,3.5601,3.5562,3.5562,3.5534,3.5315,3.4757,0.0,3.4487,0.0,0.0,3.3891,3.3891,3.3891,3.3891,0.0,0.0,0.0,0.0,0.0,3.25,3.2291,3.3112,3.3469,3.3297,3.3802,3.4109,3.4266,3.5092,3.5936,3.6762,3.7257,3.7643,3.7973,3.8487,3.8707,3.8707,3.8707,3.8707,3.8707,3.8707,3.8707,3.8707,3.8707,3.8707,3.8707,4.3497,4.3497,4.3497,4.3497,4.3497,4.3497,4.3497,4.3497,4.3497,4.3497,4.3804,4.3998,4.4028,4.4663,4.5096,4.5118,4.5419,4.5586,4.5586,4.5586,4.5586,4.5586,4.5586,4.5586,4.5586,4.4797,4.4393,4.4393,4.3585,4.3181,4.3181,4.3181,4.3194,4.3206,4.3344,4.3413,4.342,4.3558,4.3131,4.2393,4.2478,4.2031,4.1367,4.1367,4.1348,4.1289,4.1289,4.125,4.1191,4.1191,4.1191,4.1191,4.1191,4.1191,4.1191,4.1191,4.1191,4.1016,4.0215,3.998,3.9785,3.8906,3.8633,3.8357,3.7474,3.7175,3.6849,3.602,3.5765,3.5667,3.5667,3.5572,3.5493,3.5493,3.5493,3.5493,3.5493,3.5493,3.5493,3.5493,3.5493,3.5493,3.5493,3.5493,3.5493,0.0,0.0,0.0,0.0,0.0,3.3212,3.2687,3.3421,3.3807,3.3807,3.3862,3.4321,3.5174,3.6009,3.6798,3.7599,3.7599,3.7973,3.8707,3.8707,3.8707,3.8707,3.8707,3.8707,3.8707,3.8707,3.8707,3.8707,3.8707,3.8676,3.8627,4.3497,4.3497,4.3497,4.3497,4.3497,4.3497,4.3497,4.3497,4.3497,4.3497,4.3804,4.4117,4.4401,4.483,4.5201,4.5457,4.5549,4.5586,4.5586,4.5586,4.5586,4.5586,4.5586,4.5586,4.5586,4.5393,4.5278,4.5278,4.4432,4.4028,4.3989,4.3452,4.3194,4.3206,4.3454,4.3558,4.3558,4.3642,4.3553,4.3377,4.3398,4.3281,4.3105,4.3105,4.2695,4.2129,4.2129,4.1719,4.1191,4.1191,4.1191,4.1191,4.1191,4.1191,4.1191,4.1191,4.1191,4.1152,4.0957,4.0898,4.0684,3.9805,3.9017,3.8391,3.8167,3.7968,3.7772,3.7569,3.6957,3.6427,3.6427,3.5919,3.5493,3.5493,3.5493,3.5493,3.5493,3.5493,3.5493,0.0,3.5493,3.5493,3.5493,3.5493,3.5417,0.0,0.0,3.487,3.4357,3.4106,3.3868,3.3513,3.3697,3.3807,3.3807,3.4412,3.5459,3.6909,3.711,3.7624,3.8414,3.8414,3.8524,3.8707,3.8707,3.8707,3.8707,3.8707,3.8707,3.8707,3.8707,3.8707,3.8707,3.8707,3.8433,3.8099,4.3497,4.3497,4.3497,4.3497,4.3631,4.3726,4.3726,4.3899,4.4004,4.4004,4.429,4.4587,4.4806,4.5118,4.54,4.5586,4.5586,4.5586,4.5586,4.5586,4.5586,4.5586,4.5586,4.5586,4.5586,4.5586,4.5586,4.5586,4.5124,4.4925,4.4978,4.4614,4.4472,4.4537,4.4747,4.4833,4.4833,4.4862,4.4668,4.4297,4.4297,4.4062,4.3691,4.3691,4.3418,4.2988,4.2988,4.2461,4.1758,4.1758,4.1504,4.1191,4.1191,4.1191,4.1191,4.1191,4.1191,4.1191,4.1191,4.1191,4.1074,4.0541,3.9942,3.9376,3.8948,3.8743,3.8531,3.8144,3.7654,3.7296,3.7296,3.6622,3.6065,3.6065,3.5738,3.5493,3.5493,3.5493,3.5493,3.5493,3.5493,3.5446,3.532,3.5304,3.5207,3.4944,3.4926,0.0,3.4801,3.4796,3.4501,3.3807,3.4174,3.4357,3.4357,3.555,3.6597,3.7507,3.7863,3.8267,3.8707,3.8707,3.8707,3.8707,3.8707,3.8707,3.8707,3.8707,3.8707,3.8707,3.8707,3.8707,3.8713,3.8784,3.8642,3.8401,4.3497,4.3497,4.3513,4.3582,4.3804,4.3998,4.4087,4.4373,4.458,4.458,4.4896,4.5096,4.5096,4.54,4.5586,4.5586,4.5586,4.5586,4.5586,4.5586,4.5586,4.5586,4.5586,4.5586,4.5586,4.5586,4.5586,4.5586,4.562,4.5696,4.5809,4.5881,4.5988,4.6113,4.6246,4.6308,4.6308,4.6308,4.5879,4.5195,4.5195,4.4746,4.4082,4.4082,4.4004,4.3906,4.3906,4.334,4.2598,4.2598,4.2148,4.1543,4.1426,4.1387,4.1367,4.123,4.1191,4.1191,4.1191,4.1191,4.1149,4.0996,4.089,4.0576,3.9769,3.9534,3.9258,3.8527,3.8277,3.82,3.82,3.7488,3.6911,3.6911,3.6334,3.5892,3.5892,3.5892,3.5858,3.5797,3.5797,3.5703,3.5415,3.5397,3.5287,3.503,3.5009,3.518,3.5597,3.5615,3.5192,3.4192,3.4853,3.5247,3.5385,3.678,3.7551,3.7679,3.8377,3.8707,3.8707,3.8707,3.8707,3.8707,3.8707,3.8707,3.8707,3.8836,3.8891,3.8891,3.8907,3.8912,3.8953,3.9012,3.9013,3.8974,4.3497,4.3497,4.3597,4.3881,4.3955,4.4117,4.4428,4.4553,4.458,4.458,4.4896,4.5096,4.5096,4.54,4.5586,4.5586,4.5586,4.5586,4.5586,4.5586,4.5586,4.5586,4.5586,4.5586,4.5586,4.5586,4.5586,4.5586,4.5723,4.5769,4.5809,4.5979,4.608,4.6113,4.6246,4.6308,4.6308,4.6308,4.6211,4.6094,4.6094,4.6016,4.5898,4.5898,4.5449,4.4805,4.4805,4.4238,4.3496,4.3496,4.3418,4.3183,4.2441,4.2207,4.207,4.1406,4.1191,4.1191,4.1191,4.1126,4.0996,4.0864,4.0781,4.0688,4.0529,4.0403,4.0277,4.0142,3.9565,3.9104,3.9104,3.8392,3.7796,3.7796,3.77,3.7603,3.7603,3.7603,3.751,3.7217,3.7181,3.7072,3.6831,3.6788,3.6678,3.6416,3.6391,3.6315,3.6177,3.6168,3.6084,3.5917,3.6028,3.6413,3.7092,3.7349,3.7826,3.8524,3.8652,3.8707,3.8707,3.8707,3.8707,3.8707,3.8707,3.8707,3.8762,3.9423,3.9698,3.974,3.9892,3.9986,3.9914,3.948,3.9036,3.8676,4.3726,4.3772,4.3881,4.428,4.4482,4.4663,4.4849,4.5011,4.514,4.514,4.5263,4.5362,4.5362,4.5513,4.5586,4.5586,4.5586,4.5586,4.5586,4.5586,4.5586,4.5586,4.5586,4.5586,4.5586,4.5586,4.5635,4.5708,4.5775,4.5856,4.5955,4.6059,4.6144,4.6202,4.6268,4.6308,4.6308,4.6308,4.6308,4.6308,4.6308,4.6308,4.6308,4.6308,4.6055,4.5703,4.5703,4.5137,4.4394,4.4394,4.4082,4.3633,4.3223,4.3105,4.3027,4.2609,4.1824,4.1082,4.1082,4.0992,4.0864,4.0771,4.071,4.068,4.061,4.0545,4.0489,4.0489,4.02,3.995,3.995,3.9258,3.87,3.87,3.8315,3.8007,3.8007,3.8007,3.7874,3.7544,3.7508,3.7356,3.6916,3.6887,3.6764,3.6509,3.65,3.662,3.6938,3.6945,3.7129,3.7588,3.7165,3.7312,3.8138,3.8138,3.8322,3.8707,3.8707,3.8707,3.8707,3.9148,3.935,3.9368,3.9808,3.9992,4.0029,4.0396,4.0561,4.0547,4.0659,4.0684,4.0616,4.021,3.9905,3.966,4.3924,4.4016,4.4146,4.4631,4.4919,4.5137,4.5201,4.5438,4.5586,4.5586,4.5586,4.5586,4.5586,4.5586,4.5586,4.5586,4.5586,4.5586,4.5586,4.5586,4.5586,4.5586,4.5586,4.5586,4.5586,4.5618,4.5692,4.5796,4.5852,4.5957,4.6108,4.612,4.62,4.6308,4.6308,4.6308,4.6308,4.6308,4.6308,4.6308,4.6308,4.6308,4.6308,4.6308,4.6308,4.6308,4.6308,4.5879,4.5293,4.5293,4.4863,4.4258,4.4022,4.3962,4.3899,4.3621,4.2577,4.1434,4.1045,4.0863,4.0771,4.066,4.0642,4.0636,4.0515,4.0489,4.0489,4.0489,4.0489,4.0489,4.0489,3.9988,3.9565,3.9565,3.9008,3.8584,3.8584,3.8584,3.8434,3.8023,3.7985,3.778,3.7233,3.7153,3.7082,3.6883,3.6853,3.7129,3.7734,3.7771,3.8046,3.8689,3.8102,3.8065,3.8689,3.8707,3.8707,3.8707,3.8891,3.8982,3.9019,3.9808,4.0175,4.0212,4.0836,4.1111,4.113,4.1313,4.1387,4.1372,4.1282,4.1267,4.1215,4.0671,4.0456,4.0472,4.3924,4.4016,4.4214,4.4943,4.5074,4.5201,4.5513,4.5586,4.5586,4.5586,4.5586,4.5586,4.5586,4.5586,4.5586,4.5586,4.5586,4.5586,4.5586,4.5586,4.5586,4.5586,4.5586,4.5586,4.5586,4.5703,4.5783,4.5796,4.5998,4.608,4.6089,4.6225,4.6289,4.6308,4.6308,4.6308,4.6308,4.6308,4.6308,4.6308,4.6308,4.6308,4.6308,4.6308,4.6308,4.6308,4.6308,4.6269,4.6191,4.6191,4.6152,4.5956,4.5015,4.4727,4.4558,4.3673,4.3248,4.2703,4.1133,4.0707,4.068,4.0545,4.0519,4.0519,4.0504,4.0489,4.0489,4.0489,4.0489,4.0489,4.0489,4.045,4.0412,4.0412,4.0354,0.0,4.0315,4.0315,4.0111,3.9523,3.9433,3.9214,3.8626,3.8536,3.8554,3.8524,3.8524,3.856,3.8615,3.8615,3.8634,3.8707,3.8652,3.8652,3.8707,3.8707,3.8707,3.8707,3.946,3.9808,3.9827,4.0653,4.102,4.102,4.1075,4.1111,4.1167,4.1901,4.2213,4.2166,4.1859,4.176,4.1633,4.0539,4.0136,4.0136,4.4308,4.4535,4.4853,4.5303,4.5419,4.5438,4.5586,4.5586,4.5586,4.5586,4.5586,4.5586,4.5586,4.5586,4.5586,4.5586,4.5586,4.5586,4.5586,4.5586,4.5586,4.5586,4.5586,4.5635,4.5718,4.5769,4.5856,4.5998,4.6064,4.6144,4.6225,4.6289,4.6308,4.6308,4.6308,4.6308,4.6308,4.6308,4.6308,4.6308,4.6308,4.6308,4.6308,4.6308,4.6308,4.6308,4.6308,4.6308,4.6308,4.6308,4.6247,4.6114,4.5726,4.5552,4.5297,4.4355,4.3989,4.362,4.2502,4.2193,4.2179,4.212,4.2104,4.197,4.1431,4.1316,4.1143,4.0604,4.0489,4.0489,4.0489,4.0489,4.0489,4.0489,4.0489,4.0489,4.0489,4.0356,4.0101,3.9645,3.9414,3.9117,3.875,3.8707,3.8707,3.8707,3.8707,3.8707,3.8707,3.9166,3.9441,3.9441,3.9937,3.9955,3.9441,3.9441,3.9698,4.0194,4.0506,4.0653,4.0671,4.1479,4.1846,4.1882,4.2378,4.2598,4.2582,4.2559,4.2541,4.2522,4.1996,4.181,4.1707,4.0874,4.0625,4.0528,4.5439,4.5722,4.6006,4.6338,4.6394,4.6394,4.6394,4.6163,4.6009,4.6009,4.5759,4.5586,4.5586,4.5586,4.5586,4.5586,4.5586,4.5586,4.5586,4.5635,4.5665,4.5665,4.5665,4.5718,4.5832,4.5869,4.5955,4.6108,4.6144,4.6202,4.6308,4.6308,4.6308,4.6308,4.6308,4.6308,4.6308,4.6308,4.6308,4.6308,4.6308,4.6308,4.6308,4.6308,4.6308,4.6308,4.6308,4.6308,4.6289,4.6247,4.6175,4.6084,4.6034,4.59,4.5677,4.504,4.4793,4.4586,4.4028,4.3893,4.3758,4.3239,4.3104,4.2931,4.2335,4.222,4.2047,4.1431,4.1316,4.1316,4.1316,4.1316,4.1316,4.1316,4.1193,4.114,4.114,4.0864,4.0593,4.0271,4.0016,3.9779,3.9473,3.946,3.946,3.946,3.946,3.946,3.946,3.9974,4.0286,4.0286,4.0818,4.0965,4.0653,4.0396,4.0561,4.1111,4.1368,4.1497,4.1515,4.2304,4.2671,4.2708,4.3083,4.325,4.3214,4.2637,4.244,4.2342,4.175,4.1534,4.1446,4.0874,4.0655,4.0625,4.7462,4.7598,4.7707,4.8049,4.8105,4.8105,4.8105,4.7432,4.6913,4.6913,4.6163,4.5605,4.5605,4.5605,4.5605,4.5605,4.5586,4.5586,4.5603,4.5737,4.5796,4.5809,4.5796,4.5825,4.5899,4.6033,4.6108,4.6108,4.6226,4.6308,4.6308,4.6308,4.6308,4.6308,4.6308,4.6308,4.6308,4.6308,4.6308,4.6308,4.6308,4.6308,4.6308,4.6308,4.6308,4.6308,4.6308,4.6308,4.6289,4.6147,4.6108,4.6064,4.5867,4.5708,4.5586,4.5586,4.5586,4.5586,4.5586,4.5586,4.5201,4.3547,4.3124,4.3124,4.3104,4.3104,4.3104,4.3104,4.3104,4.3104,4.3104,4.3104,4.3104,4.3104,4.2757,4.2502,4.2502,4.2219,4.1912,4.1642,4.1603,4.1475,4.1126,4.1111,4.1111,4.1111,4.1111,4.1111,4.1111,4.113,4.113,4.113,4.113,4.1515,4.2304,4.1515,4.113,4.1148,4.1937,4.2304,4.2341,4.313,4.3497,4.3479,4.2939,4.2711,4.2655,4.208,4.1793,4.175,4.1133,4.0903,4.0827,4.0286,4.007,4.007,4.7556,4.779,4.7972,4.8068,4.8105,4.8105,4.8105,4.7894,4.774,4.774,4.7528,4.7355,4.7355,4.6855,4.6509,4.6509,4.5951,4.5635,4.5733,4.5769,4.5867,4.5994,4.5909,4.5918,4.6039,4.608,4.6147,4.6246,4.6289,4.6308,4.6308,4.6308,4.6308,4.6308,4.6308,4.6308,4.6308,4.6308,4.6308,4.6308,4.6308,4.6308,4.6308,4.6308,4.6308,4.6308,4.6308,4.6246,4.6147,4.6113,4.602,4.5867,4.5723,4.5635,4.5586,4.5586,4.5586,4.5586,4.5586,4.5586,4.547,4.497,4.4855,4.4682,4.4085,4.3932,4.3778,4.322,4.3104,4.3104,4.3104,4.2869,4.268,4.268,4.2373,4.2148,4.2148,4.1912,4.168,4.1613,4.1385,4.1204,4.1111,4.1111,4.1111,4.1111,4.1111,4.1111,4.1111,4.1644,4.1937,4.1937,4.2488,4.2892,4.313,4.2341,4.2231,4.2782,4.302,4.313,4.3149,4.3387,4.3497,4.3479,4.3321,4.325,4.3214,4.2675,4.2162,4.175,4.1133,4.0655,4.0336,4.0171,4.007,4.007,4.8786,4.8989,4.9125,4.9125,4.9125,4.9125,4.9125,4.8836,4.8606,4.8606,4.8317,4.8105,4.8105,4.7682,4.7375,4.7375,4.6634,4.6061,4.5844,4.589,4.5963,4.6084,4.6075,4.6108,4.6175,4.6175,4.6223,4.6308,4.6308,4.6308,4.6308,4.6308,4.6308,4.6308,4.6308,4.6308,4.6308,4.6308,4.6308,4.6308,4.6308,4.6308,4.6308,4.6308,4.6308,4.6289,4.6246,4.6173,4.6084,4.6001,4.5878,4.5708,4.5637,4.5586,4.5586,4.5586,4.5586,4.5586,4.5586,4.5586,4.5586,4.5586,4.5586,4.5451,4.4932,4.4797,4.4682,4.4182,4.4085,4.4085,4.4085,4.379,4.3533,4.3533,4.3107,4.279,4.279,4.2534,4.2329,4.2329,4.2175,4.2047,4.2047,4.2047,4.2047,4.2047,4.2047,4.2047,4.2047,4.2506,4.2763,4.2763,4.324,4.3497,4.3497,4.302,4.302,4.3497,4.3497,4.3497,4.3497,4.3497,4.3497,4.3497,4.3286,4.3178,4.3124,4.2324,4.175,4.1402,4.0797,4.0368,4.007,4.007,4.007,4.007,5.0624,5.0702,5.0702,5.0702,5.0702,5.0702,5.0702,5.0029,4.951,4.951,4.8836,4.8336,4.8336,4.8259,4.8221,4.8238,4.7554,4.6814,4.6083,4.615,4.6191,4.6117,4.6226,4.6308,4.6308,4.6308,4.6308,4.6308,4.6308,4.6308,4.6308,4.6308,4.6308,4.6308,4.6308,4.6308,4.6308,4.6308,4.6308,4.6308,4.6308,4.6308,4.6308,4.6308,4.6289,4.6268,4.6144,4.6084,4.6033,4.5844,4.5692,4.5586,4.5586,4.5586,4.5586,4.5586,4.5586,4.5586,4.5586,4.5586,4.5586,4.5586,4.5586,4.5586,4.5586,4.5586,4.5586,4.5586,4.5586,4.5586,4.5586,4.5302,4.5052,4.5052,4.4455,4.3955,4.3955,4.3693,4.3497,4.3497,4.3497,4.3497,4.3497,4.3497,4.3497,4.3497,4.3497,4.3497,4.3497,4.3497,4.3497,4.3497,4.3497,4.3497,4.3497,4.3497,4.3497,4.3497,4.3497,4.3497,4.3497,4.3497,4.3497,4.3479,4.2939,4.2711,4.2616,4.1446,4.0949,4.0856,4.0368,4.0121,4.007,4.007,4.007,4.007,5.0683,5.0702,5.0702,5.0702,5.0702,5.0702,5.0702,5.0529,5.0414,5.0414,5.024,5.0144,5.0144,4.9529,4.916,4.9266,4.8604,4.7871,4.7117,4.7099,4.6869,4.6286,4.6289,4.6308,4.6308,4.6308,4.6308,4.6308,4.6308,4.6308,4.6308,4.6308,4.6308,4.6308,4.6308,4.6308,4.6308,4.6308,4.6308,4.6308,4.6308,4.6308,4.6308,4.6308,4.6226,4.6144,4.6113,4.5994,4.5832,4.5692,4.5618,4.5586,4.5586,4.5586,4.5586,4.5586,4.5586,4.5586,4.5586,4.5586,4.5586,4.5586,4.5586,4.5586,4.5586,4.5586,4.5586,4.5586,4.5586,4.5586,4.5586,4.5118,4.4726,4.4726,4.4095,4.3597,4.3597,4.3548,4.3497,4.3497,4.3497,4.3497,4.3497,4.3497,4.3497,4.3497,4.3497,4.3497,4.3497,4.3497,4.3497,4.3497,4.3497,4.3497,4.3497,4.3497,4.3497,4.3497,4.3497,4.3497,4.3497,4.3497,4.3497,4.3479,4.2939,4.2711,4.2655,4.1895,4.1313,4.0903,4.078,4.0449,4.007,4.007,4.007,4.007,5.0702,5.0702,5.0702,5.0702,5.0702,5.0702,5.0702,5.0702,5.0702,5.0702,5.0757,5.0756,5.0702,5.0417,5.0106,4.9829,4.9434,4.8898,4.815,4.8113,4.7768,4.6953,4.6914,4.6738,4.6308,4.6308,4.6308,4.6308,4.6308,4.6308,4.6308,4.6308,4.6308,4.6308,4.6308,4.6308,4.6308,4.6308,4.6308,4.6308,4.6308,4.6308,4.6289,4.6225,4.615,4.608,4.5986,4.5856,4.5692,4.5618,4.5586,4.5586,4.5586,4.5586,4.5586,4.5586,4.5586,4.5586,4.5586,4.5586,4.5586,4.5586,4.5586,4.5586,4.5586,4.5586,4.5586,4.5586,4.5586,4.555,4.54,4.4943,4.4527,4.4346,4.3868,4.3497,4.3497,4.3497,4.3497,4.3497,4.3497,4.3497,4.3497,4.3497,4.3497,4.3497,4.3497,4.3497,4.3497,4.3497,4.3497,4.3497,4.3497,4.3497,4.3497,4.3497,4.3497,4.3497,4.3497,4.3497,4.3479,4.325,4.3142,4.3105,4.2501,4.2262,4.2203,4.1621,4.1161,4.0856,4.0607,4.0319,4.007,4.007,4.007,4.007,5.0702,5.0702,5.0702,5.0702,5.0702,5.0702,5.0702,5.0702,5.0702,5.0702,5.0822,5.0867,5.0758,5.0946,5.0872,5.026,5.0235,4.9924,4.9179,4.9121,4.873,4.7851,4.7812,4.7402,4.6543,4.6523,4.6445,4.6308,4.6308,4.6308,4.6308,4.6308,4.6308,4.6308,4.6308,4.6308,4.6308,4.6308,4.6308,4.6308,4.6289,4.6268,4.6247,4.6117,4.6064,4.6034,4.5856,4.5723,4.5586,4.5586,4.5586,4.5586,4.5586,4.5586,4.5586,4.5586,4.5586,4.5586,4.5586,4.5586,4.5586,4.5586,4.5586,4.5586,4.5586,4.5586,4.5586,4.5532,4.5513,4.5419,4.5074,4.4732,4.4392,4.4058,4.3726,4.3497,4.3497,4.3497,4.3497,4.3497,4.3497,4.3497,4.3497,4.3497,4.3497,4.3497,4.3497,4.3497,4.3497,4.3497,4.3497,4.3497,4.3497,4.3497,4.3497,4.3497,4.3497,4.3497,4.3497,4.3444,4.3339,4.2902,4.2655,4.2519,4.1895,4.1664,4.1578,4.1013,4.078,4.0703,4.0286,4.007,4.007,4.007,4.007,4.007,5.0702,5.0702,5.0702,5.0702,5.0702,5.0702,5.0702,5.0702,5.0702,5.0702,5.0822,5.0894,5.0879,5.1064,5.1152,5.1045,5.1142,5.0878,5.0078,5.0019,4.9648,4.8769,4.8711,4.832,4.7441,4.7422,4.7051,4.6308,4.6308,4.6308,4.6308,4.6308,4.6308,4.6308,4.6308,4.6308,4.6308,4.6308,4.6308,4.6289,4.6173,4.614,4.6113,4.5981,4.5901,4.584,4.5822,4.5723,4.5586,4.5586,4.5586,4.5586,4.5586,4.5586,4.5586,4.5586,4.5586,4.5586,4.5586,4.5586,4.5586,4.5586,4.5586,4.5586,4.5586,4.5586,4.5513,4.5222,4.518,4.5074,4.4751,4.4346,4.4058,4.4016,4.3726,4.3497,4.3497,4.3497,4.3497,4.3497,4.3497,4.3497,4.3497,4.3497,4.3497,4.3497,4.3497,4.3497,4.3497,4.3497,4.3497,4.3497,4.3497,4.3497,4.3497,4.3497,4.3497,4.3497,4.3497,4.325,4.2826,4.2732,4.244,4.1895,4.1251,4.1041,4.0995,4.0417,4.0204,4.0204,4.0121,4.007,4.007,4.007,4.007,4.007,5.0702,5.0702,5.0702,5.0702,5.0702,5.0702,5.0702,5.0775,5.0805,5.0805,5.0965,5.1055,5.1027,5.1133,5.1234,5.1318,5.1366,5.125,5.0898,5.0879,5.0508,4.9668,4.9629,4.9219,4.8359,4.832,4.8144,4.7754,4.6777,4.6308,4.6308,4.6308,4.6308,4.6308,4.6308,4.6308,4.6308,4.6223,4.6198,4.6175,4.6039,4.5988,4.5981,4.5881,4.582,4.5783,4.5723,4.5651,4.5586,4.5586,4.5586,4.5586,4.5586,4.5586,4.5586,4.5586,4.5586,4.5586,4.5586,4.5586,4.5586,4.5586,4.5586,4.5586,4.5586,4.5476,4.5282,4.5118,4.5096,4.4943,4.4373,4.4117,4.3924,4.3758,4.3597,4.3497,4.3497,4.3497,4.3497,4.3497,4.3497,4.3497,4.3497,4.3497,4.3497,4.3497,4.3497,4.3497,4.3497,4.3497,4.3497,4.3497,4.3497,4.3497,4.3497,4.3497,4.3497,4.3497,4.3497,4.3375,4.3142,4.2826,4.2559,4.2262,4.1313,4.0903,4.0856,4.0336,4.007,4.007,4.007,4.007,4.007,4.007,4.007,4.007]}]]